     2              OBSERVATION DATA    GPS                 RINEX VERSION / TYPE
teqc 2000Jul20 Karen Wendt 20030408 21:39:50UTC             PGM / RUN BY / DATE
                                                            COMMENT
L2: 1 -> 1; 150 -> 5; 250 -> 9                              COMMENT
L2: 1 -> 1; 150 -> 5; 250 -> 9                              COMMENT
L2: 1 -> 1; 150 -> 5; 250 -> 9                              COMMENT
L2: 1 -> 1; 150 -> 5; 250 -> 9                              COMMENT
L2: 1 -> 1; 150 -> 5; 250 -> 9                              COMMENT
L2: 1 -> 1; 150 -> 5; 250 -> 9                              COMMENT
L2: 1 -> 1; 150 -> 5; 250 -> 9                              COMMENT
L2: 1 -> 1; 150 -> 5; 250 -> 9                              COMMENT
L2: 1 -> 1; 150 -> 5; 250 -> 9                              COMMENT
L2: 1 -> 1; 150 -> 5; 250 -> 9                              COMMENT
L2: 1 -> 1; 150 -> 5; 250 -> 9                              COMMENT
L2: 1 -> 1; 150 -> 5; 250 -> 9                              COMMENT
L2: 1 -> 1; 150 -> 5; 250 -> 9                              COMMENT
L2: 1 -> 1; 150 -> 5; 250 -> 9                              COMMENT
Original Marker Name: maso Mason_1942_USC&GS                COMMENT
Campaign Name: USGS 2003                                    COMMENT
4-Character Station Name: MASO                              COMMENT
6-Character Antenna Code: DMRCHT                            COMMENT
Vertical Measurement Point: BCR                             COMMENT
Vertical Offset to Rinex Ref. Point: 0.0348                 COMMENT
Radial Measurement Point: ECF                               COMMENT
Radial Offset to Rinex Ref. Point: 0.1897                   COMMENT
Antenna Height from Field Measurement: 1.2480 m             COMMENT
Additional Antenna Identification Info.:                    COMMENT
Turborogue and Ashtech Choke Ring                           COMMENT
Original XYZ: -2623312.9904 -4463703.8496 3713580.3556      COMMENT
New XYZ position is based on association with SCEC monument COMMENT
E1F1E6M3+0011. Position of that monument is believed to be  COMMENT
valid to within 1 m horizontally; vertical accuracy         COMMENT
should be no worse than 3-times this value.                 COMMENT
                                                            COMMENT
Revised Rinex header created by UCSD GPS archive for        COMMENT
GSAC on 11-Jul-2003 (2003:192) 16:20:22 GMT                 COMMENT
For assistance contact dagnew@ucsd.edu                      COMMENT
or anderson@python.ucsd.edu                                 COMMENT
                                                            COMMENT
MASON 1942                                                  MARKER NAME
CHS US GEOLOGICAL SURVEY                                    OBSERVER / AGENCY
LP019992804 ASHTECH Z-XII3 CD00                             REC # / TYPE / VERS
CR14341 DORNE-MARGOL. TYPE T                                ANT # / TYPE
 -2623325.1705 -4463673.9001  3713565.1247                  APPROX POSITION XYZ
        1.1987        0.0000        0.0000                  ANTENNA: DELTA H/E/N
     1     1     0                                          WAVELENGTH FACT L1/2
     5    C1    L1    L2    P1    P2                        # / TYPES OF OBSERV
    30                                                      INTERVAL
  2003     4     3     0     1    0.000000                  TIME OF FIRST OBS
  2003     4     3    23     2    0.000000                  TIME OF LAST OBS
                                                            END OF HEADER
 03  4  3  0  1  0.0000000  0  8G 3G14G31G15G 9G23G17G18
  22000087.109   -17293934.93549 -13129473.90347  22000086.637    22000093.767
  22335285.665   -15460900.29449 -10516637.17546  22335285.024    22335293.567
  23851285.981    -4855804.09449  -3770652.06145  23851285.389    23851294.955
  20244743.305   -28919263.32949 -22260015.84348  20244742.446    20244748.288
  24086644.531    -7224067.37849  -5619092.12745  24086644.293    24086655.916
  21275282.029   -21256614.14249 -16541112.51147  21275281.359    21275287.282
  21482285.213   -23503536.46049 -18035483.89747  21482284.494    21482291.734
  20620946.124   -26519376.56749 -20641592.04448  20620945.506    20620950.015
 03  4  3  0  1 30.0000000  0  8G 3G14G31G15G 9G23G17G18
  21991760.792   -17337689.63349 -13163568.40347  21991760.331    21991767.442
  22316650.521   -15558827.64149 -10592943.95046  22316649.865    22316658.350
  23835111.124    -4940803.21649  -3836885.01645  23835110.487    23835120.034
  20243799.541   -28924222.73549 -22263880.29448  20243798.680    20243804.514
  24076251.386    -7278683.26749  -5661649.70045  24076251.149    24076262.719
  21283199.365   -21215008.17849 -16508692.27947  21283198.688    21283204.618
  21490949.708   -23458004.55549 -18000004.51647  21490948.976    21490956.144
  20626491.282   -26490236.55849 -20618885.54248  20626490.658    20626495.175
 03  4  3  0  2  0.0000000  0  8G 3G14G31G15G 9G23G17G18
  21983532.516   -17380929.09049 -13197261.41347  21983532.088    21983539.204
  22298070.582   -15656464.90949 -10669024.69246  22298069.918    22298078.335
  23819002.882    -5025452.33949  -3902845.22545  23819002.218    23819011.735
  20242918.949   -28928850.16749 -22267486.06748  20242918.080    20242923.936
  24065925.653    -7332944.44949  -5703930.87745  24065925.227    24065937.036
  21291148.542   -21173235.00849 -16476141.74847  21291147.875    21291153.832
  21499671.518   -23412171.29949 -17964290.30447  21499670.768    21499677.913
  20632087.226   -26460829.50649 -20595970.95348  20632086.614    20632091.122
 03  4  3  0  2 30.0000000  0  8G 3G14G31G15G 9G23G17G18
  21975402.318   -17423653.17649 -13230552.84347  21975401.886    21975408.972
  22279546.029   -15753811.01049 -10744878.55746  22279545.352    22279553.694
  23802961.392    -5109750.33349  -3968531.82145  23802960.744    23802970.266
  20242101.483   -28933145.93749 -22270833.40348  20242100.625    20242106.458
  24055667.619    -7386849.42749  -5745934.47745  24055667.139    24055679.099
  21299129.008   -21131297.29649 -16443463.00647  21299128.320    21299134.296
  21508450.505   -23366037.61349 -17928342.00647  21508449.750    21508456.830
  20637733.443   -26431158.21549 -20572850.45948  20637732.825    20637737.366
 03  4  3  0  3  0.0000000  0  8G 3G14G31G15G 9G23G17G18
  21967371.219   -17465856.72949 -13263438.65847  21967370.766    21967377.853
  22261078.142   -15850859.64049 -10820500.63446  22261077.407    22261085.696
  23786987.937    -5193691.11249  -4033940.06345  23786987.232    23786996.704
  20241347.968   -28937105.44749 -22273918.71348  20241347.097    20241352.943
  24045478.620    -7440391.63049  -5787655.44245  24045478.252    24045490.351
  21307141.200   -21089192.99849 -16410654.44947  21307140.523    21307146.528
  21517287.467   -23319599.19449 -17892156.24047  21517286.712    21517293.755
  20643430.402   -26401220.37049 -20549522.25848  20643429.791    20643434.352
 03  4  3  0  3 30.0000000  0  8G 3G14G31G15G 9G23G17G18
  21959438.886   -17507541.22849 -13295920.01347  21959438.427    21959445.464
  22242666.761   -15947610.93149 -10895891.01646  22242666.063    22242674.314
  23771082.371    -5277274.74949  -4099070.00845  23771081.643    23771091.111
  20240658.199   -28940730.19249 -22276743.16848  20240657.344    20240663.182
  24035358.821    -7493570.76149  -5829093.49345  24035358.458    24035370.484
  21315184.342   -21046925.93349 -16377719.05647  21315183.655    21315189.657
  21526182.005   -23272858.18549 -17855734.69747  21526181.215    21526188.312
  20649177.351   -26371019.84949 -20525989.36448  20649176.742    20649181.310
 03  4  3  0  4  0.0000000  0  8G 3G14G31G15G 9G23G17G18
  21951605.352   -17548706.16849 -13327996.52647  21951604.950    21951611.968
  22224312.202   -16044063.66749 -10971048.76446  22224311.550    22224319.767
  23755245.034    -5360499.83949  -4163920.57345  23755244.327    23755253.867
  20240032.202   -28944019.92549 -22279306.57548  20240031.308    20240037.145
  24025308.300    -7546384.81549  -5870247.04445  24025308.056    24025319.962
  21323258.024   -21004498.53549 -16344658.73147  21323257.336    21323263.316
  21535133.882   -23225815.49049 -17819078.07547  21535133.117    21535140.294
  20654973.863   -26340558.93849 -20502253.57548  20654973.240    20654977.829
 03  4  3  0  4 30.0000000  0  8G 3G14G31G15G 9G23G17G18
  21943871.820   -17589345.62949 -13359663.57147  21943871.444    21943878.415
  22206015.871   -16140210.71649 -11045968.32046  22206015.226    22206023.357
  23739477.268    -5443359.45949  -4228486.35145  23739476.553    23739486.102
  20239470.882   -28946969.59949 -22281605.00348  20239470.016    20239475.796
  24015328.856    -7598826.86349  -5911110.76345  24015328.525    24015340.478
  21331362.719   -20961908.01749 -16311471.30547  21331362.035    21331367.987
  21544144.083   -23178466.69649 -17782182.93247  21544143.310    21544150.532
  20660820.440   -26309834.73649 -20478312.62348  20660819.852    20660824.440
 03  4  3  0  5  0.0000000  0  8G 3G14G31G15G 9G23G17G18
  21936238.052   -17629461.48449 -13390922.61347  21936237.609    21936244.511
  22187777.632   -16236052.57149 -11120650.06546  22187776.952    22187785.034
  23723778.903    -5525854.39849  -4292767.96645  23723778.170    23723787.639
  20238973.868   -28949581.32149 -22283640.08648  20238972.981    20238978.763
  24005420.050    -7650897.10349  -5951684.73745  24005419.754    24005431.605
  21339497.602   -20919158.90049 -16278160.29247  21339496.904    21339502.850
  21553211.918   -23130814.56249 -17745051.42047  21553211.133    21553218.477
  20666716.334   -26278851.64049 -20454169.93248  20666715.740    20666720.330
 03  4  3  0  5 30.0000000  0  8G 3G14G31G15G 9G23G17G18
  21928704.264   -17669051.45349 -13421771.87247  21928703.824    21928710.742
  22169598.044   -16331585.77649 -11195091.31146  22169597.397    22169605.427
  23708150.595    -5607981.03349  -4356762.59345  23708150.030    23708159.187
  20238541.562   -28951852.93949 -22285410.15548  20238540.700    20238546.475
  23995582.818    -7702591.46149  -5991965.84845  23995582.554    23995594.397
  21347662.620   -20876251.35849 -16244725.83447  21347661.921    21347667.862
  21562337.748   -23082857.78849 -17707682.53947  21562337.005    21562344.367
  20672661.368   -26247610.17249 -20429825.91548  20672660.775    20672665.364
 03  4  3  0  6  0.0000000  0  8G 3G14G31G15G 9G23G17G18
  21921270.179   -17708117.31449 -13452212.73847  21921269.771    21921276.710
  22151477.050   -16426811.13949 -11269292.67746  22151476.472    22151484.430
  23692592.152    -5689740.06649  -4420470.77345  23692591.581    23692600.672
  20238173.546   -28953786.62649 -22286916.89248  20238172.675    20238178.473
  23985816.958    -7753910.40049  -6031954.43045  23985816.675    23985828.527
  21355856.969   -20833189.83449 -16211171.38747  21355856.278    21355862.212
  21571521.052   -23034599.34349 -17670078.58047  21571520.297    21571527.676
  20678654.815   -26216114.55149 -20405283.85248  20678654.206    20678658.787
 03  4  3  0  6 30.0000000  0  8G 3G14G31G15G 9G23G17G18
  21913937.048   -17746652.80949 -13482240.33447  21913936.667    21913943.600
  22133416.148   -16521720.94249 -11343248.15946  22133415.556    22133423.477
  23677105.131    -5771123.96349  -4483886.64545  23677104.572    23677113.777
  20237871.018   -28955376.27649 -22288155.55348  20237870.164    20237875.953
  23976124.166    -7804846.01849  -6071644.31745  23976123.805    23976135.551
  21364081.281   -20789970.57849 -16177494.03447  21364080.595    21364086.557
  21580762.788   -22986033.54249 -17632235.13147  21580762.029    21580769.462
  20684697.305   -26184360.94149 -20380540.76348  20684696.692    20684701.269
 03  4  3  0  7  0.0000000  0  8G 3G14G31G15G 9G23G17G18
  21906704.598   -17784659.41349 -13511855.80847  21906704.194    21906711.101
  22115415.250   -16616315.52249 -11416958.02046  22115414.637    22115422.514
  23661689.458    -5852133.15149  -4547010.53445  23661688.974    23661698.053
  20237633.630   -28956623.66649 -22289127.52248  20237632.778    20237638.556
  23966504.383    -7855398.29649  -6111035.50145  23966503.955    23966515.576
  21372334.772   -20746598.09849 -16143697.29247  21372334.071    21372340.039
  21590062.552   -22937163.01449 -17594154.23447  21590061.791    21590069.259
  20690788.042   -26152353.86649 -20355600.17748  20690787.446    20690792.000
 03  4  3  0  7 30.0000000  0  8G 3G14G31G15G 9G23G17G18
  21899573.235   -17822134.83149 -13541057.37847  21899572.811    21899579.697
  22097475.008   -16710591.45949 -11490419.58346  22097474.357    22097482.168
  23646345.789    -5932764.22449  -4609839.80545  23646345.236    23646354.247
  20237461.794   -28957526.82749 -22289831.25648  20237460.947    20237466.698
  23956958.174    -7905563.35749  -6150124.94745  23956957.704    23956969.271
  21380617.410   -20703072.48849 -16109781.22747  21380616.727    21380622.718
  21599420.522   -22887986.42449 -17555834.84647  21599419.783    21599427.315
  20696927.006   -26120093.42749 -20330462.16448  20696926.396    20696930.931
 03  4  3  0  8  0.0000000  0  8G 3G14G31G15G 9G23G17G18
  21892542.925   -17859079.30949 -13569845.22847  21892542.498    21892549.324
  22079595.478   -16804547.72649 -11563632.06746  22079594.875    22079602.666
  23631074.278    -6013016.22049  -4672373.69145  23631073.669    23631082.684
  20237355.330   -28958086.17149 -22290267.07748  20237354.481    20237360.235
  23947485.835    -7955339.95249  -6188911.71145  23947485.331    23947496.970
  21388928.602   -20659396.64749 -16075748.09647  21388927.933    21388933.929
  21608836.483   -22838505.28949 -17517278.14847  21608835.734    21608843.315
  20703113.591   -26087582.78249 -20305129.18248  20703112.993    20703117.490
 03  4  3  0  8 30.0000000  0  8G 3G14G31G15G 9G23G17G18
  21885614.391   -17895488.65549 -13598216.09147  21885613.955    21885620.808
  22061777.870   -16898179.10649 -11636591.38646  22061777.290    22061785.045
  23615875.927    -6092883.66849  -4734607.93345  23615875.260    23615884.178
  20237315.028   -28958297.82149 -22290431.97448  20237314.179    20237319.933
  23938088.426    -8004722.10349  -6227391.10745  23938088.037    23938099.770
  21397268.750   -20615568.89249 -16041596.59947  21397268.089    21397274.055
  21618311.124   -22788715.88549 -17478481.25947  21618310.385    21618318.013
  20709348.140   -26054819.98449 -20279599.72548  20709347.547    20709352.015
 03  4  3  0  9  0.0000000  0  8G 3G14G31G15G 9G23G17G18
  21878786.993   -17931366.57049 -13626172.85047  21878786.561    21878793.399
  22044021.659   -16991487.65349 -11709299.14846  22044021.082    22044028.791
  23600750.324    -6172368.90449  -4796544.34545  23600749.671    23600758.420
  20237340.246   -28958165.33949 -22290328.71648  20237339.382    20237345.135
  23928765.734    -8053712.05249  -6265564.88645  23928765.281    23928777.041
  21405636.640   -20571595.44549 -16007331.57047  21405635.977    21405641.919
  21627843.581   -22738622.97749 -17439447.86447  21627842.826    21627850.470
  20715629.548   -26021810.95349 -20253878.39548  20715628.958    20715633.397
 03  4  3  0  9 30.0000000  0  8G 3G14G31G15G 9G23G17G18
  21872061.552   -17966708.69249 -13653712.10847  21872061.147    21872068.024
  22026328.056   -17084467.80749 -11781751.03146  22026327.421    22026335.054
  23585698.403    -6251466.46749  -4858178.67945  23585697.782    23585706.571
  20237431.594   -28957684.98949 -22289954.38648  20237430.738    20237436.515
  23919518.640    -8102303.77649  -6303428.35645  23919518.343    23919530.236
  21414032.629   -20527474.48249 -15972951.59847  21414031.954    21414037.866
  21637434.342   -22688223.39049 -17400175.48747  21637433.577    21637441.235
  20721958.071   -25988554.25649 -20227964.07248  20721957.477    20721961.925
 03  4  3  0 10  0.0000000  0  8G 3G14G31G15G 9G23G17G18
  21865438.680   -18001511.75249 -13680831.31547  21865438.272    21865445.168
  22008697.701   -17177114.98649 -11853943.44447  22008697.076    22008704.636
  23570721.222    -6330171.61049  -4919507.23845  23570720.629    23570729.269
  20237589.830   -28956853.32249 -22289306.30648  20237588.969    20237594.742
  23910348.439    -8150492.37649  -6340977.72845  23910348.161    23910360.194
  21422456.868   -20483204.88249 -15938455.80447  21422456.182    21422462.081
  21647083.965   -22637514.50749 -17360662.10847  21647083.206    21647090.815
  20728333.949   -25955048.76349 -20201855.88448  20728333.344    20728337.807
 03  4  3  0 10 30.0000000  0  8G 3G14G31G15G 9G23G17G18
  21858918.095   -18035777.49749 -13707531.84247  21858917.676    21858924.539
  21991130.715   -17269429.63549 -11925876.75147  21991130.078    21991137.532
  23555818.582    -6408484.89349  -4980530.45445  23555817.987    23555826.584
  20237814.532   -28955672.30749 -22288386.00548  20237813.673    20237819.444
  23901254.949    -8198278.18349  -6378213.23345  23901254.686    23901266.671
  21430908.507   -20438791.01749 -15903847.59747  21430907.841    21430913.741
  21656791.914   -22586499.22249 -17320909.98547  21656791.155    21656798.746
  20734756.364   -25921298.79349 -20175557.19948  20734755.747    20734760.224
 03  4  3  0 11  0.0000000  0  8G 3G14G31G15G 9G23G17G18
  21852499.943   -18069504.78649 -13733812.79447  21852499.539    21852506.371
  21973627.383   -17361409.38249 -11997549.09047  21973626.725    21973634.134
  23540990.954    -6486404.11349  -5041246.60345  23540990.361    23540999.009
  20238105.909   -28954140.99049 -22287192.74548  20238105.041    20238110.814
  23892238.880    -8245658.36249  -6415132.66445  23892238.518    23892250.334
  21439387.324   -20394234.37149 -15869128.12947  21439386.652    21439392.581
  21666558.272   -22535176.96849 -17280918.65447  21666557.514    21666565.108
  20741224.991   -25887305.76349 -20149069.11248  20741224.379    20741228.854
 03  4  3  0 11 30.0000000  0  8G 3G14G31G15G 9G23G17G18
  21846184.715   -18102691.38249 -13759672.42547  21846184.302    21846191.107
  21956188.459   -17453050.67149 -12068957.69647  21956187.778    21956195.164
  23526238.989    -6563925.55049  -5101652.80745  23526238.394    23526247.040
  20238464.313   -28952257.33949 -22285724.93748  20238463.463    20238469.245
  23883300.593    -8292629.06249  -6451732.99945  23883300.166    23883311.827
  21447893.262   -20349535.03849 -15834297.48247  21447892.593    21447898.549
  21676383.222   -22483546.61849 -17240687.24947  21676382.493    21676390.040
  20747739.845   -25853069.88049 -20122391.79048  20747739.259    20747743.729
 03  4  3  0 12  0.0000000  0  8G 3G14G31G15G 9G23G17G18
  21839972.231   -18135337.76649 -13785111.11447  21839971.852    21839978.635
  21938814.098   -17544352.67349 -12140101.92447  21938813.426    21938820.749
  23511562.936    -6641048.37549  -5161748.39245  23511562.285    23511570.934
  20238889.692   -28950021.93949 -22283983.03748  20238888.839    20238894.601
  23874440.326    -8339189.13249  -6488013.36645  23874439.910    23874451.475
  21456425.887   -20304695.75049 -15799357.77647  21456425.226    21456431.149
  21686266.645   -22431609.14949 -17200216.53047  21686265.891    21686273.419
  20754300.443   -25818593.63449 -20095527.16948  20754299.857    20754304.325
 03  4  3  0 12 30.0000000  0  8G 3G14G31G15G 9G23G17G18
  21833863.315   -18167440.47349 -13810126.16147  21833862.881    21833869.677
  21921505.227   -17635310.80449 -12210978.21047  21921504.549    21921511.797
  23496963.591    -6717768.01049  -5221529.81445  23496962.981    23496971.603
  20239382.626   -28947431.52349 -22281964.51048  20239381.768    20239387.524
  23865659.048    -8385333.65149  -6523969.94645  23865658.659    23865670.246
  21464985.353   -20259715.52349 -15764308.24847  21464984.700    21464990.584
  21696208.905   -22379362.33549 -17159504.76847  21696208.157    21696215.659
  20760906.965   -25783876.17249 -20068474.59448  20760906.374    20760910.839
 03  4  3  0 13  0.0000000  0  8G 3G14G31G15G 9G23G17G18
  21827857.580   -18199000.41049 -13834718.27347  21827857.149    21827863.961
  21904261.885   -17725924.53649 -12281586.12247  21904261.206    21904268.404
  23482441.096    -6794083.96349  -5280996.67645  23482440.505    23482449.071
  20239942.892   -28944487.03649 -22279670.08448  20239942.050    20239947.816
  23856957.380    -8431061.81749  -6559602.08045  23856956.923    23856968.294
  21473571.079   -20214597.42949 -15729151.29147  21473570.407    21473576.278
  21706209.702   -22326807.82549 -17118553.23847  21706208.984    21706216.464
  20767558.742   -25748920.77349 -20041236.60948  20767558.159    20767562.620
 03  4  3  0 13 30.0000000  0  8G 3G14G31G15G 9G23G17G18
  21821955.485   -18230015.78549 -13858886.04747  21821955.075    21821961.881
  21887084.681   -17816190.58449 -12351923.12247  21887084.037    21887091.143
  23467995.972    -6869993.08449  -5340146.50545  23467995.385    23468003.955
  20240570.906   -28941186.77049 -22277098.42948  20240570.055    20240575.823
  23848335.382    -8476370.20449  -6594907.11845  23848334.832    23848346.068
  21482182.870   -20169342.09549 -15693887.39447  21482182.195    21482188.068
  21716269.190   -22273944.96049 -17077361.43247  21716268.480    21716275.948
  20774255.724   -25713728.07649 -20013813.71248  20774255.132    20774259.576
 03  4  3  0 14  0.0000000  0  8G 3G14G31G15G 9G23G17G18
  21816157.140   -18260486.25749 -13882629.23147  21816156.739    21816163.477
  21869973.969   -17906107.25949 -12421987.87847  21869973.343    21869980.379
  23453628.620    -6945493.61549  -5398977.95945  23453628.061    23453636.635
  20241266.685   -28937530.24449 -22274249.16648  20241265.843    20241271.600
  23839793.238    -8521256.74649  -6629883.43545  23839792.935    23839804.146
  21490820.396   -20123951.46849 -15658518.06947  21490819.725    21490825.644
  21726387.337   -22220773.92849 -17035929.50047  21726386.606    21726394.072
  20780997.491   -25678299.82449 -19986207.26648  20780996.895    20781001.320
 03  4  3  0 14 30.0000000  0  8G 3G14G31G15G 9G23G17G18
  21810463.187   -18290408.04849 -13905944.87147  21810462.781    21810469.486
  21852930.675   -17995669.49349 -12491776.45447  21852930.082    21852937.064
  23439339.917    -7020580.68949  -5457487.23746  23439339.393    23439347.891
  20242030.952   -28933513.99549 -22271119.60348  20242030.104    20242035.835
  23831332.667    -8565716.30149  -6664527.04945  23831332.432    23831343.473
  21499483.984   -20078423.99549 -15623042.11647  21499483.317    21499489.255
  21736564.621   -22167292.29749 -16994255.54047  21736563.860    21736571.316
  20787784.305   -25642634.86749 -19958416.37748  20787783.727    20787788.141
 03  4  3  0 15  0.0000000  0  8G 3G14G31G15G 9G23G17G18
  21804873.192   -18319783.54549 -13928834.82647  21804872.781    21804879.506
  21835954.776   -18084878.07349 -12561289.45647  21835954.124    21835961.056
  23425129.806    -7095254.85249  -5515674.74846  23425129.270    23425137.814
  20242863.290   -28929139.93149 -22267711.22048  20242862.458    20242868.142
  23822953.483    -8609749.10649  -6698838.11545  23822953.213    23822964.250
  21508172.835   -20032763.90049 -15587462.82147  21508172.172    21508178.092
  21746800.521   -22113502.25349 -16952341.25347  21746799.754    21746807.243
  20794615.387   -25606737.32849 -19930444.25848  20794614.788    20794619.211
 03  4  3  0 15 30.0000000  0  8G 3G14G31G15G 9G23G17G18
  21799387.064   -18348612.95749 -13951299.25747  21799386.659    21799393.413
  21819046.310   -18173731.68149 -12630525.85547  21819045.679    21819052.583
  23410998.457    -7169515.04249  -5573539.69246  23410997.864    23411006.429
  20243763.650   -28924408.47949 -22264024.35448  20243762.815    20243768.474
  23814655.690    -8653353.95349  -6732815.71245  23814655.397    23814666.439
  21516886.453   -19986973.70749 -15551782.15647  21516885.780    21516891.696
  21757094.825   -22059405.22849 -16910187.76647  21757094.087    21757101.578
  20801490.249   -25570609.47949 -19902292.67848  20801489.659    20801494.101
 03  4  3  0 16  0.0000000  0  8G 3G14G31G15G 9G23G17G18
  21794006.066   -18376890.25649 -13973333.47647  21794005.654    21794012.387
  21802206.777   -18262223.31349 -12699480.19847  21802206.167    21802213.026
  23396947.309    -7243354.08449  -5631076.47446  23396946.721    23396955.212
  20244733.141   -28919313.74849 -22260054.41148  20244732.304    20244737.964
  23806440.668    -8696523.21649  -6766453.90245  23806440.345    23806451.402
  21525625.508   -19941049.64849 -15515997.17247  21525624.830    21525630.746
  21767448.589   -22004995.98349 -16867790.99047  21767447.839    21767455.371
  20808409.579   -25534247.88049 -19873958.95448  20808409.008    20808413.451
 03  4  3  0 16 30.0000000  0  8G 3G14G31G15G 9G23G17G18
  21788729.678   -18404617.99249 -13994939.46447  21788729.246    21788735.914
  21785436.068   -18350353.46949 -12768152.87947  21785435.447    21785442.292
  23382976.136    -7316772.78149  -5688285.70446  23382975.483    23382983.888
  20245771.303   -28913858.03249 -22255803.18248  20245770.475    20245776.118
  23798308.249    -8739257.41949  -6799753.08845  23798308.045    23798319.177
  21534389.170   -19894996.04749 -15480111.25147  21534388.523    21534394.442
  21777861.094   -21950277.78549 -16825153.47647  21777860.351    21777867.911
  20815372.499   -25497657.27249 -19845446.78248  20815371.928    20815376.369
 03  4  3  0 17  0.0000000  0  8G 3G14G31G15G 9G23G17G18
  21783558.429   -18431792.84649 -14016114.63547  21783557.997    21783564.669
  21768734.978   -18438117.66849 -12836540.39047  21768734.319    21768741.133
  23369085.750    -7389766.61649  -5745163.88345  23369085.029    23369093.412
  20246878.819   -28908037.95349 -22251268.03248  20246877.988    20246883.628
  23790259.816    -8781551.70449  -6832709.50845  23790259.636    23790270.558
  21543177.679   -19848811.92749 -15444123.62447  21543177.029    21543182.964
  21788332.974   -21895248.05749 -16782273.20147  21788332.222    21788339.795
  20822379.271   -25460836.21349 -19816755.03948  20822378.717    20822383.136
 03  4  3  0 17 30.0000000  0  8G 3G14G31G15G 9G23G17G18
  21778491.670   -18458418.51149 -14036861.86447  21778491.264    21778497.936
  21752102.958   -18525518.56649 -12904644.80747  21752102.333    21752109.104
  23355275.623    -7462338.06049  -5801712.90945  23355274.970    23355283.356
  20248054.945   -28901857.26849 -22246451.88748  20248054.094    20248059.758
  23782294.683    -8823408.27349  -6865324.81945  23782294.470    23782305.304
  21551989.935   -19802503.17049 -15408038.87847  21551989.288    21551995.227
  21798863.200   -21839911.31849 -16739153.69847  21798862.431    21798870.069
  20829428.812   -25423790.77549 -19787888.45348  20829428.227    20829432.661
 03  4  3  0 18  0.0000000  0  8G 3G14G31G15G 9G23G17G18
  21773530.600   -18484488.90749 -14057176.41747  21773530.189    21773536.852
  21735541.645   -18612548.31449 -12972460.02747  21735541.028    21735547.726
  23341547.316    -7534479.34949  -5857926.75645  23341546.834    23341555.231
  20249300.876   -28895309.68749 -22241349.85348  20249300.041    20249305.698
  23774414.479    -8864819.15549  -6897592.87245  23774414.196    23774424.836
  21560826.750   -19756065.66949 -15371853.81747  21560826.101    21560831.997
  21809452.901   -21784262.13049 -16695790.72946  21809452.150    21809459.815
  20836521.762   -25386516.83749 -19758843.82048  20836521.197    20836525.649
 03  4  3  0 18 30.0000000  0  8G 3G14G31G15G 9G23G17G18
  21768674.841   -18510005.93549 -14077059.78447  21768674.460    21768681.105
  21719050.890   -18699207.19849 -13039986.26147  21719050.265    21719056.918
  23327900.896    -7606191.04749  -5913805.88245  23327900.501    23327908.797
  20250616.265   -28888397.20649 -22235963.48448  20250615.421    20250621.087
  23766618.839    -8905784.74449  -6929513.93345  23766618.512    23766629.128
  21569687.320   -19709503.29449 -15335571.45347  21569686.656    21569692.518
  21820101.558   -21728303.31249 -16652186.49446  21820100.769    21820108.475
  20843657.453   -25349018.33949 -19729624.21148  20843656.897    20843661.357
 03  4  3  0 19  0.0000000  0  8G 3G14G31G15G 9G23G17G18
  21763924.138   -18534970.96549 -14096513.01647  21763923.739    21763930.347
  21702630.725   -18785495.13849 -13107223.44247  21702630.062    21702636.681
  23314336.375    -7677472.82749  -5969349.99745  23314335.941    23314344.195
  20252000.954   -28881120.53149 -22230293.32448  20252000.112    20252005.768
  23758907.970    -8946304.47249  -6961087.57545  23758907.672    23758918.272
  21578571.034   -19662819.10749 -15299194.16047  21578570.357    21578576.239
  21830808.726   -21672036.57349 -16608342.32346  21830807.976    21830815.700
  20850835.316   -25311298.48449 -19700232.11248  20850834.757    20850839.224
 03  4  3  0 19 30.0000000  0  8G 3G14G31G15G 9G23G17G18
  21759279.918   -18559376.50849 -14115530.29047  21759279.504    21759286.106
  21686282.796   -18871403.30349 -13174164.70247  21686282.149    21686288.715
  23300855.281    -7748315.94649  -6024552.30145  23300854.814    23300863.060
  20253456.287   -28873472.52949 -22224333.82748  20253455.455    20253461.078
  23751283.553    -8986369.28549  -6992306.73745  23751283.290    23751294.047
  21587478.917   -19616007.76349 -15262717.79047  21587478.240    21587484.115
  21841575.925   -21615455.03749 -16564252.85746  21841575.162    21841582.846
  20858056.293   -25273351.88749 -19670663.33248  20858055.739    20858060.206
 03  4  3  0 20  0.0000000  0  8G 3G14G31G15G 9G23G17G18
  21754740.775   -18583229.59649 -14134117.07247  21754740.337    21754746.982
  21670006.153   -18956936.86649 -13240814.05747  21670005.518    21670012.070
  23287456.757    -7818725.68349  -6079416.91646  23287456.260    23287464.418
  20254981.025   -28865459.97649 -22218090.26148  20254980.179    20254985.802
  23743744.913    -9025984.28549  -7023175.39445  23743744.677    23743755.499
  21596409.302   -19569078.08149 -15226149.20447  21596408.637    21596414.526
  21852401.491   -21558566.59249 -16519924.23346  21852400.717    21852408.412
  20865318.735   -25235187.48749 -19640924.82848  20865318.171    20865322.646
 03  4  3  0 20 30.0000000  0  8G 3G14G31G15G 9G23G17G18
  21750307.984   -18606523.80449 -14152268.36847  21750307.565    21750314.185
  21653802.292   -19042087.77349 -13307165.24447  21653801.705    21653808.248
  23274142.053    -7888694.17949  -6133937.71646  23274141.587    23274149.724
  20256576.401   -28857076.15349 -22211557.40048  20256575.565    20256581.146
  23736293.643    -9065141.26749  -7053687.14145  23736293.247    23736303.939
  21605363.107   -19522025.33449 -15189484.72447  21605362.449    21605368.332
  21863286.578   -21501365.48649 -16475351.99146  21863285.802    21863293.532
  20872623.465   -25196800.82849 -19611013.14648  20872622.904    20872627.371
 03  4  3  0 21  0.0000000  0  8G 3G14G31G15G 9G23G17G18
  21745981.167   -18629261.53849 -14169986.06447  21745980.741    21745987.296
  21637671.087   -19126857.38849 -13373219.33247  21637670.463    21637676.991
  23260911.129    -7958222.57649  -6188115.57546  23260910.637    23260918.783
  20258241.927   -28848323.67249 -22204737.28148  20258241.102    20258246.677
  23728929.138    -9103841.21249  -7083842.75745  23728928.794    23728939.354
  21614339.477   -19474854.17849 -15152727.97847  21614338.835    21614344.730
  21874230.587   -21443854.68249 -16430538.42646  21874229.825    21874237.501
  20879969.620   -25158196.60349 -19580931.93348  20879969.038    20879973.499
 03  4  3  0 21 30.0000000  0  8G 3G14G31G15G 9G23G17G18
  21741760.450   -18651441.22449 -14187268.90147  21741760.053    21741766.623
  21621612.955   -19211242.67949 -13438973.94347  21621612.359    21621618.843
  23247764.517    -8027307.71349  -6241948.03746  23247764.078    23247772.243
  20259977.955   -28839200.59249 -22197628.37248  20259977.120    20259982.711
  23721652.291    -9142080.72349  -7113639.58045  23721651.883    23721662.352
  21623338.349   -19427564.75249 -15115879.06247  21623337.695    21623343.611
  21885233.648   -21386033.57849 -16385483.06746  21885232.878    21885240.544
  20887357.078   -25119375.04149 -19550681.35247  20887356.484    20887360.987
 03  4  3  0 22  0.0000000  0  8G 3G14G31G15G 9G23G17G18
  21737646.323   -18673061.08649 -14204115.51747  21737645.911    21737652.474
  21605628.622   -19295240.09749 -13504426.32347  21605628.055    21605634.471
  23234702.991    -8095946.32849  -6295432.56345  23234702.451    23234710.561
  20261784.947   -28829704.76349 -22190229.01348  20261784.119    20261789.699
  23714463.685    -9179856.19849  -7143074.83745  23714463.459    23714473.825
  21632359.709   -19380157.08649 -15078938.01747  21632359.050    21632365.024
  21896296.045   -21327900.51149 -16340184.61546  21896295.290    21896302.924
  20894785.881   -25080336.21649 -19520261.48147  20894785.311    20894789.819
 03  4  3  0 22 30.0000000  0  8G 3G14G31G15G 9G23G17G18
  21733638.388   -18694122.38649 -14220526.88347  21733637.976    21733644.615
  21589718.208   -19378849.33949 -13569576.23447  21589717.620    21589723.991
  23221726.421    -8164138.05249  -6348568.87345  23221725.894    23221733.960
  20263662.630   -28819837.35049 -22182540.11048  20263661.789    20263667.393
  23707363.480    -9217167.24349  -7172148.18145  23707363.215    23707373.419
  21641403.007   -19332634.18649 -15041907.18347  21641402.349    21641408.321
  21907417.444   -21269457.38049 -16294644.55646  21907416.651    21907424.310
  20902255.489   -25041083.18349 -19489674.69847  20902254.930    20902259.444
 03  4  3  0 23  0.0000000  0  8G 3G14G31G15G 9G23G17G18
  21729737.342   -18714622.43349 -14236500.92147  21729736.956    21729743.553
  21573882.462   -19462065.94649 -13634420.19147  21573881.873    21573888.204
  23208835.713    -8231878.54049  -6401353.57045  23208835.218    23208843.232
  20265611.574   -28809595.30649 -22174559.28948  20265610.750    20265616.378
  23700352.469    -9254009.22149  -7200856.04645  23700352.238    23700362.522
  21650468.477   -19284994.72249 -15004785.51747  21650467.833    21650473.779
  21918598.172   -21210702.19949 -16248861.34646  21918597.421    21918605.052
  20909766.082   -25001614.73349 -19458920.05547  20909765.501    20909770.030
 03  4  3  0 23 30.0000000  0  8G 3G14G31G15G 9G23G17G18
  21725942.821   -18734562.75249 -14252038.80147  21725942.413    21725948.954
  21558121.377   -19544890.25949 -13698958.47347  21558120.814    21558127.092
  23196030.902    -8299168.18949  -6453786.95645  23196030.352    23196038.287
  20267631.531   -28798980.30749 -22166287.85248  20267630.721    20267636.345
  23693430.878    -9290382.46749  -7229198.65545  23693430.629    23693440.753
  21659555.461   -19237242.52749 -14967576.01247  21659554.802    21659560.696
  21929837.927   -21151637.09149 -16202836.63846  21929837.160    21929844.823
  20917316.929   -24961934.69749 -19428000.54247  20917316.373    20917320.884
 03  4  3  0 24  0.0000000  0  8G 3G14G31G15G 9G23G17G18
  21722255.105   -18753941.80749 -14267139.32547  21722254.676    21722261.223
  21542435.688   -19627318.90849 -13763188.44847  21542435.083    21542441.285
  23183312.572    -8366003.45549  -6505866.29645  23183311.987    23183319.816
  20269722.891   -28787990.03249 -22157723.98748  20269722.073    20269727.726
  23686599.189    -9326283.17349  -7257173.06945  23686598.760    23686608.700
  21668663.946   -19189377.29949 -14930278.42147  21668663.276    21668669.140
  21941136.970   -21092260.47649 -16156569.19346  21941136.178    21941143.907
  20924908.089   -24922043.00849 -19396916.10147  20924907.508    20924912.036
 03  4  3  0 24 30.0000000  0  8G 3G14G31G15G 9G23G17G18
  21718674.332   -18772758.19749 -14281801.40547  21718673.945    21718680.544
  21526825.783   -19709348.75549 -13827107.66747  21526825.209    21526831.383
  23170681.126    -8432381.44849  -6557589.31945  23170680.552    23170688.401
  20271886.014   -28776622.81349 -22148866.40248  20271885.196    20271890.836
  23679857.466    -9361708.19949  -7284776.81845  23679857.276    23679867.384
  21677793.858   -19141399.32149 -14892892.97447  21677793.186    21677799.036
  21952495.228   -21032572.36149 -16110059.01646  21952494.454    21952502.147
  20932539.417   -24881939.98349 -19365666.98447  20932538.855    20932543.356
 03  4  3  0 25  0.0000000  0  8G 3G14G31G15G 9G23G17G18
  21715201.059   -18791010.24449 -14296023.73147  21715200.659    21715207.282
  21511292.438   -19790976.47949 -13890713.54747  21511291.833    21511297.984
  23158137.348    -8498298.80849  -6608953.39746  23158136.796    23158144.707
  20274121.248   -28764876.62849 -22139713.52048  20274120.438    20274126.055
  23673207.727    -9396654.03749  -7312007.17345  23673207.379    23673217.500
  21686945.184   -19093308.47549 -14855419.58147  21686944.521    21686950.413
  21963913.056   -20972571.22349 -16063304.93646  21963912.300    21963920.047
  20940210.962   -24841625.68849 -19334253.23847  20940210.404    20940214.913
 03  4  3  0 25 30.0000000  0  8G 3G14G31G15G 9G23G17G18
  21711834.236   -18808703.22049 -14309810.42047  21711833.800    21711840.385
  21495834.903   -19872205.68349 -13954008.88447  21495834.304    21495840.434
  23145680.597    -8563759.21749  -6659961.41646  23145680.019    23145687.923
  20276427.642   -28752756.35649 -22130269.13348  20276426.802    20276432.420
  23666648.205    -9431124.19249  -7338866.87545  23666647.801    23666657.770
  21696116.712   -19045111.60449 -14817863.56847  21696116.042    21696122.000
  21975389.417   -20912262.48349 -16016311.15846  21975388.675    21975396.441
  20947921.435   -24801106.79049 -19302680.05447  20947920.886    20947925.398
 03  4  3  0 26  0.0000000  0  8G 3G14G31G15G 9G23G17G18
  21708574.780   -18825831.48049 -14323157.08047  21708574.377    21708580.928
  21480454.564   -19953029.18549 -14016988.09447  21480453.991    21480460.092
  23133312.183    -8628755.59949  -6710607.85346  23133311.531    23133319.439
  20278806.340   -28740256.20849 -22120528.73848  20278805.525    20278811.109
  23660180.546    -9465111.39349  -7365350.25445  23660180.149    23660189.997
  21705309.167   -18996804.77849 -14780221.88547  21705308.488    21705314.488
  21986925.232   -20851641.48349 -15969074.07146  21986924.489    21986932.295
  20955671.499   -24760379.86249 -19270944.77747  20955670.951    20955675.459
 03  4  3  0 26 30.0000000  0  8G 3G14G31G15G 9G23G17G18
  21705422.670   -18842395.59749 -14336064.14147  21705422.289    21705428.832
  21465151.665   -20033445.91149 -14079650.33347  21465151.065    21465157.139
  23121032.250    -8693286.76049  -6760891.77946  23121031.563    23121039.460
  20281257.311   -28727376.25449 -22110492.39248  20281256.478    20281262.057
  23653804.856    -9498614.22649  -7391456.21845  23653804.442    23653814.419
  21714522.176   -18948389.95449 -14742496.04847  21714521.510    21714527.475
  21998520.218   -20790709.36449 -15921594.53846  21998519.502    21998527.318
  20963460.804   -24719446.69049 -19239048.78947  20963460.249    20963464.756
 03  4  3  0 27  0.0000000  0  8G 3G14G31G15G 9G23G17G18
  21702377.936   -18858395.62749 -14348531.64647  21702377.527    21702384.100
  21449926.497   -20113454.37549 -14141994.44847  21449925.875    21449931.892
  23108841.104    -8757351.29049  -6810812.10046  23108840.453    23108848.327
  20283780.550   -28714116.34349 -22100159.97648  20283779.732    20283785.315
  23647521.845    -9531630.97749  -7417183.39545  23647521.431    23647531.447
  21723755.470   -18899868.73449 -14704687.30647  21723754.807    21723760.740
  22010174.322   -20729466.26749 -15873872.69146  22010173.654    22010181.502
  20971289.060   -24678308.92749 -19206993.37947  20971288.499    20971293.008
 03  4  3  0 27 30.0000000  0  8G 3G14G31G15G 9G23G17G18
  21699441.444   -18873826.89849 -14360555.97447  21699441.010    21699447.621
  21434780.201   -20193048.13249 -14204015.42347  21434779.581    21434785.530
  23096739.980    -8820942.85349  -6860363.88746  23096739.340    23096747.199
  20286377.040   -28700471.41449 -22089527.55448  20286376.224    20286381.792
  23641332.487    -9564155.35549  -7442526.90845  23641332.117    23641342.002
  21733009.596   -18851238.01349 -14666793.24747  21733008.931    21733014.893
  22021888.445   -20667908.28249 -15825905.49246  22021887.714    22021895.593
  20979156.751   -24636963.77449 -19174776.38047  20979156.232    20979160.727
 03  4  3  0 28  0.0000000  0  8G 3G14G31G15G 9G23G17G18
  21696611.511   -18888698.10349 -14372143.88947  21696611.109    21696617.650
  21419711.382   -20272234.39349 -14265718.86247  21419710.793    21419716.744
  23084727.444    -8884068.63449  -6909552.72746  23084726.866    23084734.676
  20289045.215   -28686449.83849 -22078601.63248  20289044.417    20289050.015
  23635235.292    -9596194.28349  -7467492.15845  23635235.077    23635244.911
  21742282.589   -18802507.89249 -14628821.72847  21742281.941    21742287.939
  22033660.774   -20606044.42049 -15777699.94346  22033660.064    22033667.900
  20987062.016   -24595421.39749 -19142405.68947  20987061.470    20987065.973
 03  4  3  0 28 30.0000000  0  8G 3G14G31G15G 9G23G17G18
  21693889.367   -18903002.69949 -14383290.28847  21693888.993    21693895.498
  21404721.823   -20351004.46349 -14327097.99647  21404721.250    21404727.167
  23072805.228    -8946720.01449  -6958371.90046  23072804.650    23072812.414
  20291786.486   -28672044.24649 -22067376.47948  20291785.699    20291791.302
  23629232.713    -9627739.04449  -7492072.32445  23629232.353    23629241.789
  21751575.600   -18753672.93249 -14590768.51747  21751574.958    21751580.932
  22045492.577   -20543868.06949 -15729250.89146  22045491.863    22045499.700
  20995005.802   -24553676.55649 -19109877.23347  20995005.260    20995009.728
 03  4  3  0 29  0.0000000  0  8G 3G14G31G15G 9G23G17G18
  21691274.770   -18916742.19749 -14393996.34647  21691274.383    21691280.933
  21389811.512   -20429358.32349 -14388152.80847  21389810.912    21389816.818
  23060973.165    -9008897.04849  -7006821.45046  23060972.661    23060980.351
  20294600.609   -28657255.88249 -22055853.05948  20294599.821    20294605.399
  23623323.862    -9658789.43249  -7516267.27245  23623323.514    23623332.888
  21760888.039   -18704736.07649 -14552635.91247  21760887.381    21760893.338
  22057383.273   -20481381.92449 -15680560.44146  22057382.592    22057390.406
  21002987.632   -24511732.07049 -19077193.22047  21002987.075    21002991.508
 03  4  3  0 29 30.0000000  0  8G 3G14G31G15G 9G23G17G18
  21688768.419   -18929912.95649 -14404259.25247  21688768.048    21688774.574
  21374981.388   -20507290.52949 -14448879.07747  21374980.799    21374986.684
  23049232.538    -9070594.23549  -7054897.08946  23049232.039    23049239.633
  20297488.383   -28642080.70449 -22044028.23848  20297487.572    20297493.128
  23617510.059    -9689340.06749  -7540072.81845  23617509.688    23617519.091
  21770220.299   -18655694.90149 -14514422.03247  21770219.611    21770225.566
  22069333.701   -20418582.15149 -15631625.62546  22069332.989    22069340.832
  21011007.795   -24469586.01549 -19044352.14447  21011007.222    21011011.644
 03  4  3  0 30  0.0000000  0  8G 3G14G31G15G 9G23G17G18
  21686369.448   -18942519.65749 -14414082.62447  21686369.039    21686375.541
  21360230.884   -20584804.22949 -14509279.22847  21360230.321    21360236.193
  23037582.626    -9131814.84049  -7102601.36346  23037582.084    23037589.710
  20300448.904   -28626523.06849 -22031905.39548  20300448.072    20300453.632
  23611790.830    -9719393.84049  -7563491.17945  23611790.558    23611799.943
  21779571.157   -18606555.57649 -14476131.65847  21779570.477    21779576.474
  22081342.887   -20355473.91149 -15582450.43046  22081342.154    22081350.028
  21019065.034   -24427244.58949 -19011358.82547  21019064.455    21019068.927
 03  4  3  0 30 30.0000000  0  8G 3G14G31G15G 9G23G17G18
  21684078.660   -18954557.96049 -14423463.09047  21684078.245    21684084.701
  21345561.295   -20661893.09249 -14569348.34247  21345560.716    21345566.532
  23026024.471    -9192552.61949  -7149929.41346  23026023.906    23026031.629
  20303483.147   -28610578.00949 -22019480.66248  20303482.322    20303487.828
  23606167.418    -9748944.44849  -7586517.47145  23606167.200    23606176.524
  21788941.307   -18557314.77749 -14437762.21547  21788940.670    21788946.658
  22093411.536   -20292053.04349 -15533031.64446  22093410.790    22093418.654
  21027160.065   -24384704.71949 -18978210.87647  21027159.500    21027163.985
 03  4  3  0 31  0.0000000  0  8G 3G14G31G15G 9G23G17G18
  21681895.296   -18966031.44049 -14432403.43547  21681894.857    21681901.344
  21330972.087   -20738559.35149 -14629088.16147  21330971.506    21330977.279
  23014557.847    -9252809.48349  -7196882.72446  23014557.314    23014565.057
  20306590.523   -28594248.55349 -22006756.40748  20306589.690    20306595.188
  23600639.441    -9777993.58249  -7609152.97645  23600639.129    23600648.610
  21798329.979   -18507977.27149 -14399317.41947  21798329.310    21798335.279
  22105538.888   -20228323.77149 -15483372.53746  22105538.144    22105546.016
  21035292.010   -24341971.23849 -18944912.06547  21035291.431    21035295.883
 03  4  3  0 31 30.0000000  0  8G 3G14G31G15G 9G23G17G18
  21679820.187   -18976935.96949 -14440900.44847  21679819.743    21679826.253
  21316464.456   -20814796.87449 -14688493.90047  21316463.899    21316469.646
  23003183.859    -9312579.78549  -7243456.89346  23003183.367    23003191.065
  20309771.948   -28577530.12349 -21993729.05348  20309771.108    20309776.616
  23595207.731    -9806535.42449  -7631393.23145  23595207.588    23595217.056
  21807737.560   -18458540.30949 -14360795.12947  21807736.888    21807742.795
  22117725.554   -20164282.68749 -15433470.47046  22117724.837    22117732.703
  21043461.315   -24299041.33249 -18911460.19247  21043460.735    21043465.138
 03  4  3  0 32  0.0000000  0  8G 3G14G31G15G 9G23G17G18
  21677852.613   -18987275.79149 -14448957.42847  21677852.165    21677858.621
  21302037.947   -20890608.08249 -14747567.44847  21302037.387    21302043.111
  22991902.069    -9371865.97649  -7289653.83946  22991901.578    22991909.175
  20313026.655   -28560426.38849 -21980401.45548  20313025.795    20313031.350
  23589872.544    -9834572.56049  -7653240.20645  23589872.272    23589881.397
  21817162.995   -18409009.26449 -14322199.52147  21817162.333    21817168.262
  22129970.843   -20099933.78649 -15383328.54246  22129970.091    22129977.964
  21051666.887   -24255920.82349 -18877859.79647  21051666.305    21051670.715
 03  4  3  0 32 30.0000000  0  8G 3G14G31G15G 9G23G17G18
  21675993.729   -18997044.36849 -14456569.28647  21675993.282    21675999.704
  21287694.183   -20965984.68049 -14806302.34247  21287693.597    21287699.294
  22980713.977    -9430659.66449  -7335466.99946  22980713.453    22980721.018
  20316356.064   -28542930.21649 -21966768.06748  20316355.210    20316360.776
  23584634.976    -9862096.51349  -7674687.30245  23584634.648    23584643.987
  21826607.348   -18359378.60649 -14283526.30047  21826606.705    21826612.661
  22142275.827   -20035271.03049 -15332942.04446  22142275.072    22142282.916
  21059909.756   -24212604.25549 -18844106.63047  21059909.178    21059913.588
 03  4  3  0 33  0.0000000  0  8G 3G14G31G15G 9G23G17G18
  21674242.147   -19006248.78449 -14463741.53647  21674241.685    21674248.131
  21273432.017   -21040932.03749 -14864702.76547  21273431.450    21273437.141
  22969618.513    -9488966.22649  -7380900.59346  22969617.985    22969625.541
  20319758.876   -28525048.17349 -21952834.00248  20319758.014    20319763.611
  23579493.474    -9889112.57249  -7695738.62945  23579493.297    23579502.874
  21836069.149   -18309656.62449 -14244781.91547  21836068.514    21836074.472
  22154639.054   -19970301.78349 -15282316.73046  22154638.373    22154646.230
  21068188.365   -24169099.81449 -18810207.07447  21068187.797    21068192.194
 03  4  3  0 33 30.0000000  0  8G 3G14G31G15G 9G23G17G18
  21672598.793   -19014884.46149 -14470470.61047  21672598.362    21672604.829
  21259252.796   -21115443.83549 -14922763.79147  21259252.216    21259257.896
  22958616.930    -9546779.51449  -7425949.81746  22958616.401    22958623.948
  20323236.059   -28506775.34849 -21938595.42948  20323235.217    20323240.804
  23574450.319    -9915614.40649  -7716389.29845  23574450.137    23574459.679
  21845548.989   -18259839.97949 -14205963.76747  21845548.361    21845554.281
  22167061.561   -19905021.64249 -15231449.16446  22167060.853    22167068.706
  21076503.357   -24125404.45049 -18776158.74447  21076502.781    21076507.154
 03  4  3  0 34  0.0000000  0  8G 3G14G31G15G 9G23G17G18
  21671063.671   -19022951.67949 -14476756.73347  21671063.235    21671069.664
  21245156.837   -21189518.25449 -14980484.00347  21245156.245    21245161.901
  22947709.556    -9604097.77349  -7470613.29846  22947708.982    22947716.570
  20326787.778   -28488110.92649 -21924051.71148  20326786.928    20326792.540
  23569505.379    -9941599.96149  -7736637.64145  23569505.181    23569514.529
  21855046.681   -18209929.57849 -14167072.55847  21855046.056    21855051.966
  22179543.161   -19839431.06049 -15180339.68746  22179542.432    22179550.315
  21084854.435   -24081519.24049 -18741962.47947  21084853.849    21084858.221
 03  4  3  0 34 30.0000000  0  8G 3G14G31G15G 9G23G17G18
  21669636.399   -19030451.88149 -14482601.03147  21669635.993    21669642.356
  21231144.113   -21263155.08649 -15037863.24247  21231143.535    21231149.148
  22936896.394    -9660920.77849  -7514890.86946  22936895.847    22936903.407
  20330413.831   -28469055.80749 -21909203.55348  20330412.988    20330418.581
  23564658.819    -9967069.08849  -7756483.59245  23564658.487    23564667.761
  21864561.654   -18159927.89649 -14128110.21847  21864561.029    21864566.995
  22192083.461   -19773531.74849 -15128989.65046  22192082.681    22192090.619
  21093241.061   -24037447.00349 -18707620.47847  21093240.484    21093244.897
 03  4  3  0 35  0.0000000  0  8G 3G14G31G15G 9G23G17G18
  21668317.451   -19037382.91449 -14488001.81947  21668317.036    21668323.398
  21217215.448   -21336350.32049 -15094898.38347  21217214.848    21217220.430
  22926178.250    -9717244.71349  -7558779.56546  22926177.697    22926185.267
  20334114.708   -28449607.35349 -21894048.90448  20334113.876    20334119.466
  23559911.355    -9992017.79149  -7775924.03145  23559910.943    23559919.915
  21874094.199   -18109833.97849 -14089076.00647  21874093.570    21874099.589
  22204682.793   -19707321.78549 -15077397.54146  22204682.059    22204690.066
  21101663.471   -23993186.75349 -18673131.97747  21101662.913    21101667.335
 03  4  3  0 35 30.0000000  0  8G 3G14G31G15G 9G23G17G18
  21667106.136   -19043748.42149 -14492961.92547  21667105.725    21667112.101
  21203370.383   -21409105.90149 -15151590.92447  21203369.813    21203375.373
  22915554.744    -9773071.58449  -7602280.93246  22915554.132    22915561.649
  20337889.850   -28429768.71249 -21878590.20248  20337889.042    20337894.620
  23555262.407   -10016448.01449  -7794960.45945  23555262.031    23555270.739
  21883643.447   -18059652.45049 -14049973.52447  21883642.799    21883648.784
  22217340.498   -19640805.29749 -15025566.57446  22217339.786    22217347.841
  21110120.801   -23948743.17749 -18638500.61647  21110120.218    21110124.682
 03  4  3  0 36  0.0000000  0  8G 3G14G31G15G 9G23G17G18
  21666003.246   -19049544.03049 -14497477.96547  21666002.818    21666009.173
  21189610.214   -21481415.57349 -15207936.02047  21189609.649    21189615.182
  22905027.041    -9828394.95549  -7645389.97746  22905026.400    22905033.922
  20341740.312   -28409534.44849 -21862823.23248  20341739.497    20341745.058
  23550713.268   -10040353.49149  -7813587.99545  23550712.871    23550721.634
  21893210.058   -18009379.71449 -14010799.98247  21893209.396    21893215.379
  22230057.423   -19573978.34549 -14973493.69646  22230056.632    22230064.616
  21118613.679   -23904113.04749 -18603723.90447  21118613.088    21118617.527
 03  4  3  0 36 30.0000000  0  8G 3G14G31G15G 9G23G17G18
  21665008.271   -19054772.30049 -14501551.92747  21665007.917    21665014.248
  21175934.787   -21553280.00249 -15263934.17247  21175934.216    21175939.714
  22894594.977    -9883215.79849  -7688107.44846  22894594.352    22894601.847
  20345665.668   -28388906.68249 -21846749.64148  20345664.849    20345670.391
  23546263.785   -10063734.84849  -7831807.13245  23546263.431    23546272.253
  21902793.328   -17959019.25149 -13971558.08047  21902792.692    21902798.657
  22242832.863   -19506843.43449 -14921180.86246  22242832.118    22242840.048
  21127141.346   -23859299.95049 -18568804.62447  21127140.775    21127145.162
 03  4  3  0 37  0.0000000  0  8G 3G14G31G15G 9G23G17G18
  21664121.666   -19059431.29749 -14505182.28747  21664121.301    21664127.652
  21162344.859   -21624695.35149 -15319582.38547  21162344.264    21162349.716
  22884259.163    -9937530.25149  -7730430.33246  22884258.598    22884265.995
  20349666.373   -28367882.81949 -21830367.39148  20349665.550    20349671.094
  23541914.757   -10086588.40849  -7849614.98645  23541914.391    23541923.403
  21912393.529   -17908569.90549 -13932246.90347  21912392.866    21912398.847
  22255667.251   -19439398.23349 -14868626.22346  22255666.503    22255674.545
  21135704.046   -23814302.76549 -18533741.88147  21135703.467    21135707.850
 03  4  3  0 37 30.0000000  0  8G 3G14G31G15G 9G23G17G18
  21663343.199   -19063522.10549 -14508369.90347  21663342.820    21663349.161
  21148840.404   -21695661.07449 -15374880.24247  21148839.843    21148845.262
  22874019.889    -9991337.71149  -7772358.15546  22874019.326    22874026.682
  20353742.391   -28346463.23549 -21813676.79448  20353741.578    20353747.087
  23537666.384   -10108913.31649  -7867010.92445  23537666.053    23537675.090
  21922010.336   -17858033.50349 -13892867.89647  21922009.658    21922015.640
  22268560.425   -19371644.36249 -14815831.06446  22268559.677    22268567.754
  21144301.276   -23769123.75249 -18498537.46047  21144300.715    21144305.101
 03  4  3  0 38  0.0000000  0  8G 3G14G31G15G 9G23G17G18
  21662672.506   -19067046.38549 -14511116.06147  21662672.124    21662678.493
  21135421.616   -21766176.74149 -15429827.40847  21135421.063    21135426.473
  22863877.206   -10044637.90649  -7813890.69146  22863876.608    22863883.922
  20357893.487   -28324648.90049 -21796678.59548  20357892.674    20357898.221
  23533518.795   -10130709.19549  -7883994.62145  23533518.424    23533527.321
  21931643.215   -17807412.47349 -13853422.94247  21931642.530    21931648.486
  22281511.985   -19303583.63549 -14762796.80046  22281511.240    22281519.402
  21152932.636   -23723765.63149 -18463193.46747  21152932.070    21152936.490
 03  4  3  0 38 30.0000000  0  8G 3G14G31G15G 9G23G17G18
  21662109.939   -19070002.61749 -14513419.59047  21662109.544    21662115.958
  21122089.156   -21836238.91549 -15484421.21147  21122088.602    21122093.960
  22853831.614   -10097427.54049  -7855025.40046  22853831.032    22853838.283
  20362120.159   -28302437.42149 -21779370.94248  20362119.338    20362124.907
  23529472.391   -10151972.91849  -7900563.64645  23529471.985    23529480.847
  21941292.305   -17756706.09349 -13813911.49247  21941291.670    21941297.562
  22294522.175   -19235214.65549 -14709522.34446  22294521.434    22294529.663
  21161598.243   -23678227.56949 -18427709.26547  21161597.691    21161602.101
 03  4  3  0 39  0.0000000  0  8G 3G14G31G15G 9G23G17G18
  21661655.492   -19072390.37949 -14515280.15847  21661655.138    21661661.537
  21108843.482   -21905845.10249 -15538659.69847  21108842.922    21108848.248
  22843883.591   -10149704.31649  -7895760.47146  22843882.949    22843890.244
  20366422.637   -28279827.66449 -21761752.94148  20366421.820    20366427.402
  23525527.665   -10172702.13049  -7916716.18145  23525527.266    23525536.073
  21950957.644   -17705914.59949 -13774333.71547  21950957.009    21950962.859
  22307591.156   -19166537.17049 -14656007.50246  22307590.376    22307598.580
  21170298.001   -23632510.02849 -18392085.21047  21170297.448    21170301.868
 03  4  3  0 39 30.0000000  0  8G 3G14G31G15G 9G23G17G18
  21661308.654   -19074212.97249 -14516700.32947  21661308.298    21661314.673
  21095684.210   -21974996.98949 -15592544.17747  21095683.672    21095688.984
  22834032.856   -10201469.60549  -7936096.96646  22834032.189    22834039.595
  20370800.431   -28256822.20149 -21743826.59548  20370799.609    20370805.214
  23521684.440   -10192898.07149  -7932453.18745  23521684.077    23521692.734
  21960638.396   -17655041.87349 -13734692.63347  21960637.737    21960643.604
  22320718.261   -19097554.31849 -14602254.70146  22320717.458    22320725.664
  21179031.083   -23586617.17049 -18356324.53747  21179030.522    21179034.962
 03  4  3  0 40  0.0000000  0  8G 3G14G31G15G 9G23G17G18
  21661070.187   -19075465.87649 -14517676.58847  21661069.813    21661076.232
  21082612.628   -22043688.24649 -15646069.72647  21082612.072    21082617.364
  22824280.614   -10252717.33849  -7976030.17646  22824279.980    22824287.460
  20375254.522   -28233415.66249 -21725587.72248  20375253.695    20375259.310
  23517943.862   -10212554.44249  -7947769.72245  23517943.547    23517952.248
  21970335.312   -17604084.19249 -13694985.35347  21970334.694    21970340.610
  22333904.211   -19028262.05549 -14548260.79946  22333903.441    22333911.698
  21187798.256   -23540545.30449 -18320424.37447  21187797.703    21187802.178
 03  4  3  0 40 30.0000000  0  8G 3G14G31G15G 9G23G17G18
  21660939.317   -19076153.64449 -14518212.48147  21660938.954    21660945.340
  21069628.219   -22111921.31549 -15699238.24447  21069627.670    21069632.948
  22814626.364   -10303450.03049  -8015562.05346  22814625.774    22814633.283
  20379784.205   -28209611.94549 -21707039.36348  20379783.380    20379788.974
  23514305.324   -10231673.84649  -7962667.84045  23514305.066    23514313.890
  21980047.414   -17553046.64449 -13655215.83547  21980046.780    21980052.745
  22347148.069   -18958664.74549 -14494029.19346  22347147.362    22347155.722
  21196598.472   -23494299.79149 -18284388.90747  21196597.921    21196602.379
 03  4  3  0 41  0.0000000  0  8G 3G14G31G15G 9G23G17G18
  21660916.571   -19076273.05349 -14518305.50047  21660916.200    21660922.580
  21056731.955   -22179691.11849 -15752045.77847  21056731.438    21056736.692
  22805071.111   -10353662.73549  -8054688.74146  22805070.538    22805078.034
  20384390.187   -28185407.12849 -21688178.46248  20384389.381    20384394.967
  23510770.189   -10250251.45849  -7977143.81845  23510769.903    23510778.757
  21989775.172   -17501926.71749 -13615382.12747  21989774.536    21989780.587
  22360450.727   -18888759.34849 -14439557.53746  22360450.002    22360458.336
  21205432.253   -23447878.21049 -18248216.24647  21205431.715    21205436.136
 03  4  3  0 41 30.0000000  0  8G 3G14G31G15G 9G23G17G18
  21661001.498   -19075826.61949 -14517957.60247  21661001.141    21661007.523
  21043923.804   -22246997.94849 -15804492.55047  21043923.295    21043928.537
  22795614.753   -10403355.94649  -8093410.63146  22795614.225    22795621.662
  20389072.237   -28160802.90449 -21669006.33448  20389071.430    20389076.983
  23507337.984   -10268287.66049  -7991197.89745  23507337.599    23507346.388
  21999518.091   -17450727.25349 -13575486.45047  21999517.461    21999523.539
  22373811.529   -18818548.47949 -14384847.83946  22373810.754    22373819.063
  21214298.881   -23401283.71149 -18211908.84147  21214298.357    21214302.754
 03  4  3  0 42  0.0000000  0  8G 3G14G31G15G 9G23G17G18
  21661194.235   -19074813.69849 -14517168.28647  21661193.848    21661200.221
  21031204.218   -22313839.71349 -15856576.93447  21031203.641    21031208.860
  22786257.794   -10452527.32649  -8131725.90646  22786257.193    22786264.559
  20393830.523   -28135797.85149 -21649521.86848  20393829.696    20393835.238
  23504009.174   -10285780.14449  -8004828.29945  23504008.834    23504017.433
  22009276.134   -17399448.24149 -13535528.77247  22009275.516    22009281.597
  22387230.478   -18748031.28149 -14329899.44446  22387229.743    22387238.068
  21223198.437   -23354516.30549 -18175466.70447  21223197.876    21223202.291
 03  4  3  0 42 30.0000000  0  8G 3G14G31G15G 9G23G17G18
  21661494.111   -19073237.63449 -14515940.16947  21661493.750    21661500.093
  21018572.870   -22380217.43549 -15908299.72947  21018572.315    21018577.490
  22776999.750   -10501178.35049  -8169635.69546  22776999.182    22777006.457
  20398664.736   -28110393.95349 -21629726.62248  20398663.919    20398669.451
  23500783.484   -10302730.29449  -8018036.10645  23500783.197    23500791.828
  22019048.632   -17348093.51649 -13495512.11147  22019048.010    22019054.068
  22400707.061   -18677211.44349 -14274715.24046  22400706.294    22400714.647
  21232130.096   -23307580.08749 -18138893.02847  21232129.582    21232133.985
 03  4  3  0 43  0.0000000  0  8G 3G14G31G15G 9G23G17G18
  21661902.460   -19071091.61149 -14514267.92847  21661902.097    21661908.427
  21006031.500   -22446122.18049 -15959653.97147  21006030.978    21006036.117
  22767842.426   -10549300.19649  -8207133.14746  22767841.811    22767849.044
  20403576.280   -28084583.62449 -21609614.67348  20403575.449    20403580.999
  23497662.633   -10319129.42149  -8030814.53845  23497662.327    23497671.088
  22028836.800   -17296656.56049 -13455431.37047  22028836.154    22028842.219
  22414242.488   -18606082.18549 -14219289.90546  22414241.723    22414250.221
  21241095.106   -23260468.86949 -18102182.99247  21241094.566    21241098.948
 03  4  3  0 43 30.0000000  0  8G 3G14G31G15G 9G23G17G18
  21662418.023   -19068382.13949 -14512156.64247  21662417.670    21662423.981
  20993579.237   -22511558.86549 -16010643.49547  20993578.698    20993583.820
  22758784.861   -10596897.57749  -8244221.92446  22758784.242    22758791.459
  20408564.027   -28058372.76449 -21589190.62348  20408563.196    20408568.753
  23494645.898   -10334982.16949  -8043167.22545  23494645.555    23494654.191
  22038639.275   -17245144.37349 -13415292.00547  22038638.628    22038644.657
  22427835.646   -18534649.82149 -14163628.39946  22427834.963    22427843.558
  21250091.983   -23213189.94249 -18065342.27247  21250091.428    21250095.818
 03  4  3  0 44  0.0000000  0  8G 3G14G31G15G 9G23G17G18
  21663040.955   -19065108.76749 -14509605.95947  21663040.559    21663046.880
  20981216.506   -22576525.05649 -16061266.39347  20981215.957    20981221.061
  22749827.554   -10643968.22249  -8280900.26646  22749826.972    22749834.108
  20413628.292   -28031759.84649 -21568453.28348  20413627.480    20413633.029
  23491733.598   -10350286.17349  -8055092.31245  23491733.261    23491741.729
  22048456.097   -17193556.85349 -13375093.93547  22048455.422    22048461.432
  22441486.642   -18462913.66449 -14107730.17446  22441485.932    22441494.555
  21259120.710   -23165743.36749 -18028370.91647  21259120.168    21259124.600
 03  4  3  0 44 30.0000000  0  8G 3G14G31G15G 9G23G17G18
  21663771.136   -19061271.63549 -14506615.98347  21663770.724    21663777.049
  20968943.726   -22641018.88549 -16111521.21447  20968943.133    20968948.211
  22740970.883   -10690510.36849  -8317166.78846  22740970.264    22740977.352
  20418769.164   -28004744.25949 -21547402.16648  20418768.341    20418773.913
  23488926.021   -10365039.83249  -8066588.57245  23488925.685    23488934.107
  22058287.071   -17141894.67849 -13334837.69547  22058286.426    22058292.392
  22455195.475   -18390873.86649 -14051595.34946  22455194.742    22455203.318
  21268181.212   -23118129.82549 -17991269.46047  21268180.655    21268185.118
 03  4  3  0 45  0.0000000  0  8G 3G14G31G15G 9G23G17G18
  21664608.850   -19056869.04949 -14503185.40147  21664608.494    21664614.802
  20956761.486   -22705036.42349 -16161404.90047  20956760.917    20956765.957
  22732215.421   -10736520.36549  -8353018.66046  22732214.815    22732221.833
  20423987.186   -27977323.34849 -21526035.21548  20423986.378    20423991.938
  23486223.942   -10379239.49949  -8077653.15145  23486223.585    23486231.856
  22068132.556   -17090156.29049 -13294522.06447  22068131.900    22068137.890
  22468962.440   -18318528.55649 -13995222.44946  22468961.671    22468970.185
  21277273.862   -23070347.77749 -17954036.70347  21277273.290    21277277.746
 03  4  3  0 45 30.0000000  0  8G 3G14G31G15G 9G23G17G18
  21665553.540   -19051904.86249 -14499317.21247  21665553.169    21665559.474
  20944669.550   -22768579.49749 -16210918.87647  20944668.988    20944674.013
  22723560.783   -10782000.15249  -8388457.38746  22723560.187    22723567.195
  20429281.826   -27949499.97549 -21504354.65748  20429281.003    20429286.553
  23483626.810   -10392887.05949  -8088287.49745  23483626.464    23483634.679
  22077991.713   -17038345.79949 -13254150.25347  22077991.045    22077997.074
  22482786.689   -18245881.68849 -13938614.57046  22482785.991    22482794.514
  21286397.599   -23022401.96049 -17916676.33047  21286397.054    21286401.521
 03  4  3  0 46  0.0000000  0  8G 3G14G31G15G 9G23G17G18
  21666605.650   -19046375.90649 -14495008.95747  21666605.261    21666611.565
  20932668.750   -22831643.48449 -16260059.54247  20932668.206    20932673.210
  22715008.037   -10826944.77049  -8423479.09746  22715007.477    22715014.448
  20434653.751   -27921270.14749 -21482357.38948  20434652.944    20434658.511
  23481135.682   -10405977.64549  -8098487.84545  23481135.349    23481143.415
  22087865.141   -16986460.35849 -13213720.03347  22087864.480    22087870.616
  22496668.915   -18172930.46749 -13881769.53246  22496668.181    22496676.680
  21295553.079   -22974289.64749 -17879186.22547  21295552.576    21295557.038
 03  4  3  0 46 30.0000000  0  8G 3G14G31G15G 9G23G17G18
  21667764.705   -19040285.02949 -14490262.83547  21667764.329    21667770.638
  20920759.092   -22894228.69449 -16308827.13647  20920758.550    20920763.528
  22706557.033   -10871354.99549  -8458084.41446  22706556.498    22706563.347
  20440102.732   -27892635.51949 -21460044.69248  20440101.942    20440107.464
  23478750.517   -10418511.93449  -8108254.72345  23478750.149    23478758.214
  22097752.261   -16934502.83849 -13173233.65747  22097751.625    22097757.772
  22510608.623   -18099676.99849 -13824688.98446  22510607.890    22510616.418
  21304739.715   -22926013.80549 -17841568.69347  21304739.216    21304743.655
 03  4  3  0 47  0.0000000  0  8G 3G14G31G15G 9G23G17G18
  21669030.828   -19033631.49649 -14485078.27647  21669030.453    21669036.757
  20908941.060   -22956332.58149 -16357219.67247  20908940.482    20908945.449
  22698208.201   -10915228.26449  -8492271.32146  22698207.618    22698214.408
  20445629.089   -27863594.37949 -21437415.22448  20445628.286    20445633.832
  23476471.596   -10430487.52049  -8117586.24545  23476471.197    23476479.294
  22107653.226   -16882472.89449 -13132690.84647  22107652.601    22107658.741
  22524606.018   -18026120.82749 -13767372.56746  22524605.260    22524613.805
  21313957.513   -22877574.30849 -17803823.63447  21313956.985    21313961.418
 03  4  3  0 47 30.0000000  0  8G 3G14G31G15G 9G23G17G18
  21670403.448   -19026418.46949 -14479457.75447  21670403.052    21670409.354
  20897214.413   -23017956.18049 -16405237.96147  20897213.830    20897218.786
  22689961.258   -10958565.80749  -8526040.77446  22689960.667    22689967.495
  20451232.384   -27834148.94049 -21414470.72248  20451231.557    20451237.102
  23474298.773   -10441905.43049  -8126483.22145  23474298.382    23474306.563
  22117567.330   -16830373.65749 -13092094.03747  22117566.707    22117572.871
  22538660.432   -17952264.71049 -13709822.43646  22538659.650    22538668.295
  21323205.733   -22828974.49949 -17765953.65647  21323205.202    21323209.622
 03  4  3  0 48  0.0000000  0  8G 3G14G31G15G 9G23G17G18
  21671883.124   -19018642.88049 -14473398.86947  21671882.738    21671889.004
  20885580.009   -23079094.71749 -16452878.28447  20885579.454    20885584.401
  22681817.201   -11001362.88649  -8559389.09746  22681816.605    22681823.439
  20456913.260   -27804295.64649 -21391208.41548  20456912.444    20456917.957
  23472232.770   -10452761.28149  -8134942.24145  23472232.432    23472240.695
  22127495.172   -16778202.49149 -13051441.18147  22127494.564    22127500.735
  22552772.496   -17878105.60349 -13652036.19346  22552771.751    22552780.361
  21332484.858   -22780212.19349 -17727957.05647  21332484.328    21332488.781
 03  4  3  0 48 30.0000000  0  8G 3G14G31G15G 9G23G17G18
  21673469.339   -19010307.24249 -14466903.57347  21673468.960    21673475.253
  20874037.837   -23139748.60649 -16500140.95647  20874037.305    20874042.232
  22673775.859   -11043619.99149  -8592316.65646  22673775.262    22673782.074
  20462671.569   -27774035.60149 -21367629.15648  20462670.768    20462676.248
  23470273.833   -10463055.46049  -8142963.57745  23470273.438    23470281.710
  22137436.237   -16725961.83049 -13010734.18347  22137435.672    22137441.801
  22566941.767   -17803645.71149 -13594015.58146  22566941.082    22566949.736
  21341794.412   -22731290.02249 -17689835.88347  21341793.874    21341798.371
 03  4  3  0 49  0.0000000  0  8G 3G14G31G15G 9G23G17G18
  21675162.098   -19001411.58349 -14459971.89247  21675161.738    21675168.042
  20862588.367   -23199915.88749 -16547024.45747  20862587.801    20862592.690
  22665837.647   -11085335.25749  -8624822.00146  22665837.048    22665843.863
  20468507.413   -27743368.05249 -21343732.36248  20468506.588    20468512.083
  23468421.974   -10472786.28449  -8150545.96445  23468421.620    23468429.934
  22147390.536   -16673651.84849 -12969973.16947  22147389.951    22147396.022
  22581168.196   -17728885.25449 -13535760.76846  22581167.513    22581176.286
  21351134.371   -22682208.22649 -17651590.33647  21351133.828    21351138.372
 03  4  3  0 49 30.0000000  0  8G 3G14G31G15G 9G23G17G18
  21676961.110   -18991957.79349 -14452605.30947  21676960.732    21676967.040
  20851231.569   -23259595.93349 -16593528.29247  20851230.993    20851235.844
  22658002.567   -11126508.52949  -8656905.01546  22658001.992    22658008.818
  20474420.726   -27712293.46549 -21319518.40248  20474419.914    20474425.390
  23466677.264   -10481953.46049  -8157689.15545  23466676.998    23466685.491
  22157357.727   -16621274.26249 -12929159.48547  22157357.091    22157363.134
  22595451.704   -17653825.58749 -13477272.79546  22595450.985    22595459.760
  21360504.317   -22632968.73549 -17613221.90447  21360503.781    21360508.332
 03  4  3  0 50  0.0000000  0  8G 3G14G31G15G 9G23G17G18
  21678866.320   -18981945.76049 -14444803.72047  21678865.943    21678872.258
  20839967.828   -23318786.87649 -16639651.01047  20839967.261    20839972.097
  22650271.066   -11167137.70149  -8688564.03846  22650270.465    22650277.310
  20480411.654   -27680810.75549 -21294986.42048  20480410.817    20480416.313
  23465040.377   -10490555.09049  -8164391.66045  23465040.111    23465048.560
  22167337.749   -16568829.12649 -12888293.15347  22167337.102    22167343.089
  22609792.202   -17578466.34049 -13418551.40346  22609791.517    22609800.247
  21369904.203   -22583571.88149 -17574730.85047  21369903.654    21369908.202
 03  4  3  0 50 30.0000000  0  8G 3G14G31G15G 9G23G17G18
  21680877.793   -18971375.42249 -14436567.09947  21680877.401    21680883.720
  20828797.563   -23377486.52149 -16685390.90447  20828797.004    20828801.822
  22642643.449   -11207220.87149  -8719797.61346  22642642.835    22642649.723
  20486480.471   -27648918.78749 -21270135.53948  20486479.645    20486485.161
  23463511.427   -10498589.34549  -8170652.05445  23463511.099    23463519.625
  22177330.668   -16516316.07149 -12847373.91447  22177330.034    22177336.012
  22624189.675   -17502807.47449 -13359596.52646  22624188.990    22624197.735
  21379334.145   -22534017.30149 -17536116.90147  21379333.585    21379338.092
 03  4  3  0 51  0.0000000  0  8G 3G14G31G15G 9G23G17G18
  21682994.933   -18960249.72449 -14427897.71847  21682994.545    21683000.897
  20817720.558   -23435696.06649 -16730748.90047  20817720.012    20817724.824
  22635119.549   -11246759.18149  -8750606.62246  22635118.953    22635125.786
  20492626.779   -27616619.62649 -21244967.35348  20492625.950    20492631.482
  23462090.094   -10506057.41049  -8176471.25445  23462089.824    23462098.418
  22187335.859   -16463738.36549 -12806404.29547  22187335.237    22187341.174
  22638643.649   -17426851.89149 -13300410.45546  22638642.943    22638651.679
  21388793.423   -22484308.72349 -17497382.94947  21388792.867    21388797.282
 03  4  3  0 51 30.0000000  0  8G 3G14G31G15G 9G23G17G18
  21685218.152   -18948566.64649 -14418794.01547  21685217.786    21685224.141
  20806737.652   -23493411.25649 -16775721.68547  20806737.096    20806741.894
  22627700.050   -11285748.66249  -8780987.97046  22627699.450    22627706.268
  20498851.225   -27583909.98449 -21219479.31848  20498850.391    20498855.922
  23460777.394   -10512955.38249  -8181846.23645  23460777.112    23460785.745
  22197353.819   -16411093.68349 -12765382.48847  22197353.172    22197359.142
  22653154.380   -17350597.47749 -13240991.52946  22653153.629    22653162.545
  21398282.386   -22434444.01949 -17458527.34447  21398281.848    21398286.224
 03  4  3  0 52  0.0000000  0  8G 3G14G31G15G 9G23G17G18
  21687546.978   -18936328.77849 -14409258.01647  21687546.604    21687552.920
  20795848.782   -23550632.44749 -16820309.53547  20795848.204    20795852.985
  22620384.886   -11324189.71049  -8810941.97146  22620384.304    22620391.084
  20505153.471   -27550791.25849 -21193672.51548  20505152.658    20505158.176
  23459573.105   -10519283.83749  -8186777.44545  23459572.796    23459581.390
  22207384.109   -16358384.25349 -12724310.23247  22207383.478    22207389.443
  22667721.621   -17274046.09649 -13181341.18746  22667720.903    22667729.789
  21407800.577   -22384425.79349 -17419552.10847  21407800.028    21407804.429
 03  4  3  0 52 30.0000000  0  8G 3G14G31G15G 9G23G17G18
  21689981.415   -18923535.84249 -14399289.49047  21689981.039    21689987.326
  20785054.272   -23607357.47849 -16864510.77247  20785053.717    20785058.473
  22613174.522   -11362080.22849  -8840466.99046  22613173.936    22613180.671
  20511533.844   -27517262.09549 -21167545.89348  20511533.021    20511538.559
  23458477.470   -10525040.61349  -8191263.18845  23458477.174    23458485.760
  22217426.791   -16305609.69149 -12683187.22447  22217426.186    22217432.144
  22682345.602   -17197197.18949 -13121459.01246  22682344.849    22682353.779
  21417347.948   -22334253.88949 -17380457.12647  21417347.379    21417351.805
 03  4  3  0 53  0.0000000  0  8G 3G14G31G15G 9G23G17G18
  21692521.231   -18910188.80849 -14388889.19647  21692520.860    21692527.156
  20774354.394   -23663585.16549 -16908324.46447  20774353.864    20774358.583
  22606069.033   -11399419.23849  -8869562.25546  22606068.505    22606075.218
  20517992.337   -27483322.52349 -21141099.46948  20517991.530    20517997.049
  23457491.031   -10530224.74949  -8195302.71845  23457490.747    23457499.181
  22227481.727   -16252770.76249 -12642014.05447  22227481.085    22227487.093
  22697026.008   -17120051.38449 -13061345.49446  22697025.266    22697034.214
  21426924.421   -22283929.23049 -17341243.10547  21426923.859    21426928.305
 03  4  3  0 53 30.0000000  0  8G 3G14G31G15G 9G23G17G18
  21695165.902   -18896291.28249 -14378059.95147  21695165.489    21695171.784
  20763749.003   -23719316.72649 -16951751.57148  20763748.466    20763753.165
  22599068.233   -11436208.47049  -8898229.11246  22599067.681    22599074.424
  20524528.527   -27448974.91449 -21114335.09948  20524527.695    20524533.200
  23456613.181   -10534838.16149  -8198897.52145  23456612.785    23456621.192
  22237548.155   -16199870.98949 -12600793.47147  22237547.506    22237553.626
  22711762.222   -17042612.05849 -13001003.25546  22711761.504    22711770.457
  21436529.238   -22233455.42249 -17301912.86947  21436528.670    21436533.165
 03  4  3  0 54  0.0000000  0  8G 3G14G31G15G 9G23G17G18
  21697916.080   -18881839.04249 -14366798.46547  21697915.665    21697921.937
  20753239.094   -23774546.41149 -16994787.61148  20753238.542    20753243.200
  22592173.236   -11472441.92449  -8926462.90446  22592172.614    22592179.408
  20531143.329   -27414213.99649 -21087248.67048  20531142.486    20531147.987
  23455844.991   -10538874.83249  -8202042.89745  23455844.687    23455852.976
  22247627.065   -16146906.00749 -12559522.08847  22247626.419    22247632.540
  22726555.039   -16964875.16849 -12940429.14846  22726554.344    22726563.254
  21446163.209   -22182828.52649 -17262463.34747  21446162.650    21446167.154
 03  4  3  0 54 30.0000000  0  8G 3G14G31G15G 9G23G17G18
  21700770.990   -18866836.44649 -14355108.12747  21700770.569    21700776.867
  20742824.321   -23829276.23849 -17037434.14448  20742823.762    20742828.387
  22585383.471   -11508121.78749  -8954265.31946  22585382.895    22585389.683
  20537836.130   -27379043.00749 -21059842.70248  20537835.302    20537840.823
  23455186.112   -10542337.33949  -8204740.89045  23455185.793    23455194.027
  22257717.661   -16093879.76549 -12518202.95747  22257716.973    22257723.143
  22741403.854   -16886844.30349 -12879625.97146  22741403.184    22741412.098
  21455825.568   -22132052.76749 -17222897.82247  21455825.001    21455829.462
 03  4  3  0 55  0.0000000  0  8G 3G14G31G15G 9G23G17G18
  21703730.335   -18851284.80549 -14342989.96647  21703729.930    21703736.224
  20732504.771   -23883505.47749 -17079690.61648  20732504.206    20732508.803
  22578699.181   -11543247.57549  -8981635.99146  22578698.602    22578705.437
  20544606.988   -27343461.97649 -21032117.22548  20544606.165    20544611.700
  23454636.562   -10545225.16149  -8206991.07745  23454636.213    23454644.446
  22267819.684   -16040793.25949 -12476836.86647  22267819.040    22267825.196
  22756308.539   -16808520.46149 -12818594.50446  22756307.825    22756316.712
  21465516.103   -22081129.03949 -17183217.00347  21465515.513    21465519.904
 03  4  3  0 55 30.0000000  0  8G 3G14G31G15G 9G23G17G18
  21706794.493   -18835182.56749 -14330442.77147  21706794.079    21706800.375
  20722281.224   -23937230.17649 -17121553.94048  20722280.674    20722285.234
  22572121.005   -11577815.56549  -9008572.02946  22572120.456    22572127.256
  20551456.399   -27307467.89849 -21004069.89448  20551455.583    20551461.122
  23454197.025   -10547534.58049  -8208790.57045  23454196.728    23454204.947
  22277933.606   -15987644.37949 -12435422.17447  22277932.948    22277939.095
  22771269.238   -16729901.63849 -12757333.18246  22771268.519    22771277.494
  21475235.057   -22030055.75349 -17143419.64647  21475234.484    21475238.796
 03  4  3  0 56  0.0000000  0  8G 3G14G31G15G 9G23G17G18
  21709962.925   -18818532.51249 -14317468.70747  21709962.516    21709968.796
  20712153.521   -23990451.23349 -17163024.81548  20712152.995    20712157.511
  22565648.843   -11611826.65249  -9035074.10546  22565648.337    22565655.073
  20558384.125   -27271062.52449 -20975702.06948  20558383.297    20558388.856
  23453867.494   -10549266.60149  -8210140.11745  23453867.215    23453875.252
  22288058.874   -15934435.74349 -12393960.90847  22288058.258    22288064.364
  22786285.494   -16650990.33449 -12695843.95046  22786284.863    22786293.906
  21484981.965   -21978835.55449 -17103507.80347  21484981.357    21484985.680
 03  4  3  0 56 30.0000000  0  8G 3G14G31G15G 9G23G17G18
  21713235.240   -18801336.13649 -14304068.93247  21713234.851    21713241.116
  20702121.837   -24043167.92049 -17204102.67348  20702121.290    20702125.760
  22559282.767   -11645280.33949  -9061141.84246  22559282.284    22559288.961
  20565390.091   -27234246.08649 -20947013.93448  20565389.257    20565394.803
  23453647.703   -10550420.96249  -8211039.52545  23453647.438    23453655.405
  22298195.435   -15881168.11549 -12352453.68247  22298194.831    22298200.863
  22801357.328   -16571787.73349 -12634127.74546  22801356.708    22801365.741
  21494756.551   -21927469.57349 -17063482.36247  21494755.950    21494760.305
 03  4  3  0 57  0.0000000  0  8G 3G14G31G15G 9G23G17G18
  21716612.057   -18783590.74449 -14290241.35847  21716611.693    21716617.973
  20692186.980   -24095375.83249 -17244784.08548  20692186.408    20692190.840
  22553023.603   -11678172.27649  -9086771.85546  22553023.107    22553029.755
  20572474.938   -27197014.89949 -20918002.62148  20572474.103    20572479.665
  23453538.661   -10550993.37649  -8211485.48845  23453538.373    23453546.382
  22308343.765   -15827838.56249 -12310898.19847  22308343.155    22308349.122
  22816485.146   -16492290.99649 -12572182.33446  22816484.476    22816493.563
  21504559.348   -21875955.35649 -17023341.42447  21504558.774    21504563.130
 03  4  3  0 57 30.0000000  0  8G 3G14G31G15G 9G23G17G18
  21720092.012   -18765303.52349 -14275991.58547  21720091.623    21720097.936
  20682347.952   -24147079.75049 -17285072.78148  20682347.389    20682351.810
  22546870.392   -11710507.53149  -9111968.09846  22546869.857    22546876.506
  20579637.586   -27159374.82049 -20888672.69547  20579636.784    20579642.319
  23453539.418   -10550989.19449  -8211482.15145  23453539.132    23453547.170
  22318502.602   -15774453.72349 -12269299.63347  22318501.962    22318507.926
  22831667.685   -16412506.79449 -12510012.91746  22831667.025    22831676.182
  21514389.031   -21824299.88849 -16983090.41947  21514388.449    21514392.818
 03  4  3  0 58  0.0000000  0  8G 3G14G31G15G 9G23G17G18
  21723675.689   -18746471.22349 -14261317.06547  21723675.302    21723681.592
  20672605.908   -24198274.26749 -17324964.53548  20672605.343    20672609.756
  22540824.098   -11742280.78249  -9136726.41346  22540823.593    22540830.197
  20586878.967   -27121321.35149 -20859020.64047  20586878.121    20586883.638
  23453650.888   -10550403.05249  -8211025.32745  23453650.585    23453658.621
  22328672.596   -15721009.86249 -12227655.06947  22328671.962    22328677.940
  22846905.603   -16332431.45049 -12447616.64946  22846904.976    22846914.116
  21524246.292   -21772499.28149 -16942726.31147  21524245.755    21524250.184
 03  4  3  0 58 30.0000000  0  8G 3G14G31G15G 9G23G17G18
  21727362.943   -18727094.41249 -14246218.24847  21727362.560    21727368.895
  20662961.062   -24248957.94249 -17364458.23948  20662960.520    20662964.905
  22534884.986   -11773490.79549  -9161045.84246  22534884.504    22534891.067
  20594199.063   -27082853.75249 -20829045.88647  20594198.243    20594203.754
  23453873.224   -10549233.92649  -8210114.25745  23453872.981    23453880.977
  22338853.821   -15667506.95549 -12185964.49247  22338853.194    22338859.215
  22862198.979   -16252064.89249 -12384993.46046  22862198.280    22862207.468
  21534131.161   -21720553.88949 -16902249.38847  21534130.641    21534135.089
 03  4  3  0 59  0.0000000  0  8G 3G14G31G15G 9G23G17G18
  21731153.325   -18707175.77549 -14230697.23147  21731152.946    21731159.288
  20653413.322   -24299131.42249 -17403554.38148  20653412.800    20653417.124
  22529052.891   -11804138.43249  -9184927.05446  22529052.402    22529058.932
  20601597.684   -27043973.77649 -20798749.80147  20601596.861    20601602.348
  23454206.377   -10547482.76949  -8208749.63645  23454206.081    23454214.146
  22349045.905   -15613947.32549 -12144229.71747  22349045.248    22349051.355
  22877547.223   -16171409.50549 -12322145.21646  22877546.564    22877555.787
  21544043.161   -21668466.34949 -16861661.70247  21544042.590    21544047.041
 03  4  3  0 59 30.0000000  0  8G 3G14G31G15G 9G23G17G18
  21735046.379   -18686717.75249 -14214755.91847  21735045.991    21735052.337
  20643962.622   -24348794.97449 -17442253.18248  20643962.073    20643966.382
  22523327.728   -11834224.14849  -9208370.40846  22523327.195    22523333.748
  20609074.544   -27004682.47049 -20768133.19947  20609073.705    20609079.222
  23454650.175   -10545150.21049  -8206931.98745  23454649.914    23454657.929
  22359248.431   -15560332.72749 -12102452.10847  22359247.775    22359253.928
  22892950.050   -16090467.68749 -12259073.78746  22892949.391    22892958.547
  21553981.788   -21616238.61949 -16820964.78147  21553981.239    21553985.677
 03  4  3  1  0  0.0000000  0  8G 3G14G31G15G 9G23G17G18
  21739042.386   -18665718.67249 -14198393.00347  21739041.985    21739048.317
  20634609.655   -24397944.75449 -17480551.64348  20634609.117    20634613.410
  22517710.128   -11863744.34149  -9231373.10946  22517709.594    22517716.144
  20616630.207   -26964976.90149 -20737193.79347  20616629.384    20616634.927
  23455205.222   -10542232.63849  -8204658.46545  23455205.020    23455213.085
  22369461.825   -15506660.85549 -12060629.87747  22369461.164    22369467.376
  22908407.886   -16009236.86549 -12195777.14146  22908407.249    22908416.373
  21563947.408   -21563868.89649 -16780157.22147  21563946.860    21563951.270
 03  4  3  1  0 30.0000000  0  8G 3G14G31G15G 9G23G17G18
  21743140.998   -18644180.14349 -14181609.73447  21743140.617    21743146.961
  20625354.582   -24446580.30949 -17518449.40748  20625354.025    20625358.315
  22512200.302   -11892698.53049  -9253934.77246  22512199.778    22512206.246
  20624264.660   -26924857.41149 -20705931.85247  20624263.859    20624269.410
  23455871.729   -10538729.84449  -8201928.96045  23455871.528    23455879.549
  22379685.999   -15452932.57349 -12018763.68347  22379685.326    22379691.546
  22923920.449   -15927718.21949 -12132256.22146  22923919.711    22923928.996
  21573939.990   -21511357.76449 -16739239.47647  21573939.432    21573943.799
 03  4  3  1  1  0.0000000  0  8G 3G14G31G15G 9G23G17G18
  21747341.679   -18622105.44949 -14164408.67147  21747341.309    21747347.654
  20616197.165   -24494702.57649 -17555947.20548  20616196.594    20616200.871
  22506797.986   -11921087.98849  -9276056.37646  22506797.419    22506803.874
  20631977.554   -26884325.84749 -20674348.80847  20631976.740    20631982.297
  23456649.323   -10534643.45149  -8198744.67745  23456649.050    23456657.117
  22389920.413   -15399150.38049 -11976855.49247  22389919.771    22389925.975
  22939487.149   -15845914.75149 -12068513.36345  22939486.444    22939495.808
  21583958.882   -21458708.24749 -16698213.89247  21583958.317    21583962.672
 03  4  3  1  1 30.0000000  0  8G 3G14G31G15G 9G23G17G18
  21751644.251   -18599495.44349 -14146790.48647  21751643.850    21751650.192
  20607137.591   -24542310.52049 -17593044.23748  20607137.026    20607141.309
  22501503.283   -11948911.75949  -9297737.18846  22501502.684    22501509.168
  20639769.031   -26843381.50849 -20642444.13147  20639768.216    20639773.773
  23457538.136   -10529972.52549  -8195104.94545  23457537.875    23457545.883
  22400165.050   -15345314.44349 -11934905.41547  22400164.419    22400170.596
  22955108.077   -15763826.60149 -12004548.66645  22955107.390    22955116.732
  21594003.947   -21405920.79249 -16657080.82547  21594003.383    21594007.769
 03  4  3  1  2  0.0000000  0  8G 3G14G31G15G 9G23G17G18
  21756048.954   -18576348.57549 -14128753.96547  21756048.561    21756054.869
  20598176.660   -24589400.12549 -17629737.36648  20598176.109    20598180.382
  22496316.826   -11976166.29449  -9318974.42746  22496316.245    22496322.813
  20647639.536   -26802021.51449 -20610215.56647  20647638.727    20647644.282
  23458538.732   -10524713.54849  -8191006.98045  23458538.512    23458546.527
  22410420.371   -15291422.50649 -11892911.71247  22410419.759    22410425.927
  22970783.544   -15681451.55949 -11940360.43045  22970782.828    22970792.275
  21604075.693   -21352993.39349 -16615838.71447  21604075.120    21604079.550
 03  4  3  1  2 30.0000000  0  8G 3G14G31G15G 9G23G17G18
  21760555.139   -18552668.39749 -14110301.87247  21760554.741    21760561.039
  20589314.076   -24635973.02749 -17666027.86848  20589313.535    20589317.784
  22491238.461   -12002853.12249  -9339769.30146  22491237.850    22491244.448
  20655588.719   -26760248.26349 -20577664.97747  20655587.904    20655593.464
  23459650.950   -10518868.22049  -8186452.11645  23459650.742    23459658.943
  22420685.840   -15237477.20649 -11850876.43347  22420685.233    22420691.375
  22986513.027   -15598792.98949 -11875951.24645  22986512.329    22986521.821
  21614173.444   -21299929.12249 -16574489.94747  21614172.900    21614177.339
 03  4  3  1  3  0.0000000  0  8G 3G14G31G15G 9G23G17G18
  21765162.661   -18528455.59449 -14091434.74847  21765162.282    21765168.590
  20580550.050   -24682027.83649 -17701914.66048  20580549.532    20580553.773
  22486268.316   -12028971.18849  -9360120.98946  22486267.751    22486274.326
  20663616.680   -26718061.17149 -20544791.92447  20663615.876    20663621.423
  23460874.968   -10512435.90549  -8181439.86545  23460874.754    23460882.846
  22430961.455   -15183478.62349 -11808799.63547  22430960.809    22430966.924
  23002296.596   -15515850.72449 -11811321.02545  23002295.832    23002305.261
  21624297.206   -21246728.11649 -16533034.63147  21624296.671    21624301.158
 03  4  3  1  3 30.0000000  0  8G 3G14G31G15G 9G23G17G18
  21769871.171   -18503711.90749 -14072153.95047  21769870.822    21769877.140
  20571884.663   -24727564.27449 -17737397.52848  20571884.161    20571888.401
  22481406.402   -12054520.37549  -9380029.40346  22481405.886    22481412.397
  20671723.309   -26675460.58149 -20511596.66347  20671722.494    20671728.037
  23462210.711   -10505416.19349  -8175969.89045  23462210.580    23462218.512
  22441247.032   -15129427.62749 -11766681.99347  22441246.368    22441252.514
  23018133.668   -15432626.35849 -11746470.95945  23018132.888    23018142.438
  21634446.744   -21193391.67549 -16491473.79447  21634446.225    21634450.742
 03  4  3  1  4  0.0000000  0  8G 3G14G31G15G 9G23G17G18
  21774680.334   -18478439.70949 -14052461.32747  21774679.953    21774686.246
  20563317.914   -24772582.51349 -17772476.60748  20563317.422    20563321.660
  22476652.692   -12079501.04149  -9399494.81346  22476652.148    22476658.628
  20679908.436   -26632447.50749 -20478079.98647  20679907.638    20679913.202
  23463658.192   -10497809.96249  -8170042.88545  23463658.018    23463665.971
  22451542.268   -15075325.57149 -11724524.56747  22451541.631    22451547.744
  23034024.030   -15349121.62949 -11681402.44245  23034023.347    23034032.992
  21644621.814   -21139921.37749 -16449808.64647  21644621.310    21644625.878
 03  4  3  1  4 30.0000000  0  8G 3G14G31G15G 9G23G17G18
  21779590.492   -18452636.59549 -14032355.00047  21779590.133    21779596.389
  20554850.690   -24817077.95149 -17807148.31148  20554850.183    20554854.411
  22472008.004   -12103908.76549  -9418513.77446  22472007.473    22472013.972
  20688172.798   -26589018.08149 -20444238.88547  20688172.026    20688177.556
  23465218.098   -10489612.90049  -8163655.51745  23465217.838    23465225.808
  22461847.879   -15021169.19149 -11682324.81247  22461847.276    22461853.334
  23049968.598   -15265333.33149 -11616112.97945  23049967.829    23049977.504
  21654822.992   -21086313.93849 -16408036.63047  21654822.488    21654827.055
 03  4  3  1  5  0.0000000  0  8G 3G14G31G15G 9G23G17G18
  21784600.674   -18426307.81749 -14011839.06447  21784600.315    21784606.588
  20546482.395   -24861053.37149 -17841414.80748  20546481.877    20546486.099
  22467471.759   -12127746.69549  -9437088.74546  22467471.224    22467477.719
  20696515.682   -26545176.05949 -20410076.28247  20696514.901    20696520.410
  23466889.702   -10480828.29449  -8156810.29945  23466889.480    23466897.499
  22472163.079   -14966962.66249 -11640085.97747  22472162.446    22472168.507
  23065966.157   -15181266.36049 -11550606.34645  23065965.404    23065974.889
  21665049.464   -21032574.08449 -16366161.43547  21665048.919    21665053.485
 03  4  3  1  5 30.0000000  0  8G 3G14G31G15G 9G23G17G18
  21789710.672   -18399454.57449 -13990914.45247  21789710.297    21789716.591
  20538213.206   -24904508.07849 -17875275.55548  20538212.661    20538216.879
  22463044.065   -12151014.19549  -9455219.21846  22463043.508    22463050.053
  20704937.096   -26500921.22049 -20375592.00047  20704936.291    20704941.838
  23468673.240   -10471455.65249  -8149506.88945  23468673.066    23468680.988
  22482487.744   -14912706.17349 -11597808.21546  22482487.098    22482493.252
  23082016.631   -15096921.45849 -11484883.14245  23082015.843    23082025.342
  21675300.945   -20978702.33349 -16324183.46347  21675300.402    21675304.936
 03  4  3  1  6  0.0000000  0  8G 3G14G31G15G 9G23G17G18
  21794920.661   -18372076.10649 -13969580.57847  21794920.271    21794926.521
  20530043.623   -24947439.15749 -17908728.28248  20530043.097    20530047.307
  22458725.455   -12173708.63349  -9472903.15746  22458724.898    22458731.421
  20713437.429   -26456251.71049 -20340784.60747  20713436.656    20713442.181
  23470569.083   -10461492.84049  -8141743.61245  23470568.963    23470576.643
  22492822.285   -14858397.97849 -11555490.16146  22492821.643    22492827.773
  23098120.232   -15012296.86149 -11418942.01645  23098119.484    23098129.014
  21685577.801   -20924697.17949 -16282101.53347  21685577.287    21685581.766
 03  4  3  1  6 30.0000000  0  8G 3G14G31G15G 9G23G17G18
  21800230.460   -18344172.68749 -13947837.64747  21800230.095    21800236.356
  20521974.101   -24989844.48149 -17941771.33048  20521973.563    20521977.763
  22454516.173   -12195828.35549  -9490139.26146  22454515.603    22454522.132
  20722016.945   -26411166.34849 -20305653.17447  20722016.137    20722021.658
  23472577.536   -10450938.05049  -8133519.04745  23472577.343    23472585.069
  22503166.832   -14804037.19149 -11513131.12746  22503166.182    22503172.296
  23114277.054   -14927392.20849 -11352782.65545  23114276.350    23114285.888
  21695880.212   -20870558.07449 -16239915.22947  21695879.665    21695884.139
 03  4  3  1  7  0.0000000  0  8G 3G14G31G15G 9G23G17G18
  21805639.255   -18315749.15049 -13925689.42347  21805638.870    21805645.160
  20514004.149   -25031726.85849 -17974406.88548  20514003.591    20514007.757
  22450415.693   -12217376.03549  -9506929.61346  22450415.141    22450421.660
  20730674.896   -26365668.41849 -20270200.24947  20730674.083    20730679.626
  23474697.952   -10439794.21449  -8124835.49045  23474697.776    23474705.576
  22513520.598   -14749627.67849 -11470734.11446  22513519.944    22513526.115
  23130486.448   -14842211.42349 -11286408.13245  23130485.708    23130495.335
  21706207.257   -20816288.92949 -16197627.58447  21706206.706    21706211.179
 03  4  3  1  7 30.0000000  0  8G 3G14G31G15G 9G23G17G18
  21811146.936   -18286806.22249 -13903136.48047  21811146.567    21811152.803
  20506133.913   -25073085.10249 -18006634.02648  20506133.329    20506137.470
  22446424.309   -12238350.91649  -9523273.63246  22446423.734    22446430.232
  20739411.428   -26319757.63249 -20234425.62547  20739410.635    20739416.196
  23476930.677   -10428060.66549  -8115692.41345  23476930.479    23476938.203
  22523883.647   -14695169.39649 -11428299.10946  22523883.010    22523889.230
  23146748.281   -14756755.09749 -11219818.89545  23146747.560    23146757.236
  21716558.951   -20761890.07149 -16155238.86047  21716558.420    21716562.917
 03  4  3  1  8  0.0000000  0  8G 3G14G31G15G 9G23G17G18
  21816753.503   -18257343.88449 -13880178.80447  21816753.076    21816759.306
  20498363.851   -25113916.96049 -18038450.99548  20498363.259    20498367.356
  22442542.313   -12258750.95749  -9539169.72246  22442541.732    22442548.153
  20748226.895   -26273432.24749 -20198327.93747  20748226.082    20748231.632
  23479275.950   -10415735.71649  -8106088.50845  23479275.726    23479283.394
  22534256.343   -14640661.01449 -11385825.05546  22534255.689    22534261.873
  23163062.677   -14671022.80149 -11153014.62445  23163062.006    23163071.636
  21726935.546   -20707360.61249 -16112748.37147  21726935.036    21726939.533
 03  4  3  1  8 30.0000000  0  8G 3G14G31G15G 9G23G17G18
  21822458.194   -18227365.34849 -13856818.90147  21822457.767    21822464.026
  20490693.635   -25154223.73549 -18069858.81248  20490693.059    20490697.143
  22438769.397   -12278577.66149  -9554619.06646  22438768.854    22438775.208
  20757120.804   -26226694.32249 -20161908.78947  20757119.975    20757125.543
  23481733.333   -10402821.34749  -8096025.31745  23481733.125    23481740.945
  22544638.043   -14586104.86049 -11343313.78046  22544637.382    22544643.554
  23179429.197   -14585017.00049 -11085997.24345  23179428.476    23179438.176
  21737336.563   -20652703.07649 -16070158.07847  21737336.025    21737340.514
 03  4  3  1  9  0.0000000  0  8G 3G14G31G15G 9G23G17G18
  21828261.203   -18196870.28249 -13833056.50247  21828260.770    21828267.035
  20483123.930   -25194002.61449 -18100855.27348  20483123.339    20483127.438
  22435106.039   -12297828.37049  -9569619.55946  22435105.500    22435111.877
  20766093.661   -26179541.66549 -20125166.47547  20766092.843    20766098.420
  23484303.573   -10389314.96749  -8085500.82345  23484303.375    23484311.128
  22555029.149   -14531499.14349 -11300763.87546  22555028.479    22555034.656
  23195848.001   -14498736.56049 -11018765.85045  23195847.209    23195857.001
  21747762.295   -20597915.66949 -16027466.58047  21747761.708    21747766.199
 03  4  3  1  9 30.0000000  0  8G 3G14G31G15G 9G23G17G18
  21834161.646   -18165862.98149 -13808894.96047  21834161.225    21834167.494
  20475654.267   -25233255.75849 -18131442.07948  20475653.680    20475657.745
  22431551.854   -12316505.59749  -9584173.19546  22431551.340    22431557.661
  20775144.931   -26131977.05549 -20088103.15947  20775144.097    20775149.677
  23486985.964   -10375218.99649  -8074516.89945  23486985.708    23486993.462
  22565429.075   -14476846.89649 -11258177.71646  22565428.469    22565434.601
  23212318.164   -14412185.18749 -10951323.34445  23212317.447    23212327.287
  21758211.984   -20543001.81349 -15984676.55447  21758211.424    21758215.944
 03  4  3  1 10  0.0000000  0  8G 3G14G31G15G 9G23G17G18
  21840159.969   -18134341.72849 -13784332.94647  21840159.562    21840165.797
  20468285.338   -25271979.50549 -18161616.36648  20468284.741    20468288.782
  22428107.370   -12334605.91549  -9598277.27546  22428106.865    22428113.272
  20784275.094   -26083997.71149 -20050716.67147  20784274.276    20784279.866
  23489781.208   -10360530.28449  -8063071.09945  23489780.873    23489788.539
  22575838.459   -14422145.31249 -11215553.11646  22575837.843    22575843.961
  23228840.502   -14325360.41649 -10883667.79745  23228839.779    23228849.695
  21768686.140   -20487959.41949 -15941786.36147  21768685.573    21768690.136
 03  4  3  1 10 30.0000000  0  8G 3G14G31G15G 9G23G17G18
  21846255.115   -18102311.42049 -13759374.25947  21846254.683    21846260.964
  20461016.627   -25310176.54349 -18191380.22648  20461016.053    20461020.068
  22424772.243   -12352132.21249  -9611934.07546  22424771.724    22424778.078
  20793483.598   -26035606.84149 -20013009.50947  20793482.771    20793488.352
  23492688.566   -10345251.88049  -8051165.79945  23492688.261    23492695.861
  22586256.565   -14367398.05649 -11172892.91846  22586255.921    22586262.054
  23245414.237   -14238266.26449 -10815802.34945  23245413.374    23245423.305
  21779184.161   -20432792.06749 -15898798.80247  21779183.595    21779188.148
 03  4  3  1 11  0.0000000  0  8G 3G14G31G15G 9G23G17G18
  21852447.349   -18069770.87849 -13734017.99547  21852446.936    21852453.210
  20453848.763   -25347843.55949 -18220731.08548  20453848.206    20453852.200
  22421546.862   -12369081.44449  -9625141.21046  22421546.327    22421552.683
  20802770.896   -25986801.78849 -19974979.60547  20802770.072    20802775.681
  23495708.789   -10329380.88649  -8038798.74445  23495708.390    23495716.067
  22596683.759   -14312602.43849 -11130195.03446  22596683.161    22596689.359
  23262039.401   -14150900.92549 -10747725.59745  23262038.545    23262048.481
  21789706.348   -20377497.44149 -15855712.06447  21789705.790    21789710.374
 03  4  3  1 11 30.0000000  0  8G 3G14G31G15G 9G23G17G18
  21858735.846   -18036724.31249 -13708267.43247  21858735.452    21858741.714
  20446781.425   -25384982.59549 -18249670.53248  20446780.838    20446784.824
  22418430.911   -12385455.85449  -9637900.43846  22418430.344    22418436.716
  20812136.469   -25937585.15549 -19936628.98547  20812135.658    20812141.287
  23498841.204   -10312920.08749  -8025972.09445  23498840.831    23498848.381
  22607119.610   -14257761.50649 -11087461.84146  22607119.037    22607125.223
  23278715.468   -14063267.60149 -10679439.99545  23278714.661    23278724.678
  21800252.153   -20322078.92249 -15812528.78747  21800251.640    21800256.221
 03  4  3  1 12  0.0000000  0  8G 3G14G31G15G 9G23G17G18
  21865121.113   -18003169.55949 -13682120.88647  21865120.722    21865126.963
  20439815.393   -25421589.14449 -18278195.05648  20439814.801    20439818.760
  22415425.014   -12401251.52749  -9650208.69246  22415424.455    22415430.836
  20821581.056   -25887953.46549 -19897954.94647  20821580.260    20821585.894
  23502086.539   -10295865.51449  -8012682.75945  23502086.084    23502093.790
  22617564.800   -14202871.72849 -11044690.57546  22617564.187    22617570.426
  23295443.046   -13975363.77649 -10610943.65545  23295442.380    23295452.274
  21810822.215   -20266533.09149 -15769246.30947  21810821.692    21810826.240
 03  4  3  1 12 30.0000000  0  8G 3G14G31G15G 9G23G17G18
  21871602.379   -17969110.42149 -13655581.31447  21871601.995    21871608.235
  20432950.297   -25457665.09749 -18306306.12848  20432949.723    20432953.664
  22412528.886   -12416470.39049  -9662067.50546  22412528.350    22412534.698
  20831104.197   -25837909.05849 -19858959.31247  20831103.417    20831109.030
  23505444.344   -10278219.59949  -7998932.65045  23505443.959    23505451.679
  22628018.767   -14147935.61749 -11001883.21946  22628018.149    22628024.440
  23312221.559   -13887192.84349 -10542239.13845  23312220.945    23312230.675
  21821415.892   -20210863.03349 -15725867.03847  21821415.338    21821419.870
 03  4  3  1 13  0.0000000  0  8G 3G14G31G15G 9G23G17G18
  21878178.554   -17934552.15949 -13628652.81147  21878178.182    21878184.465
  20426185.583   -25493213.65349 -18334006.23548  20426185.026    20426188.968
  22409741.891   -12431115.92149  -9673479.54646  22409741.329    22409747.728
  20840705.105   -25787455.90449 -19819645.16547  20840704.321    20840709.945
  23508914.011   -10259985.93449  -7984724.54845  23508913.628    23508921.555
  22638480.836   -14092957.13249 -10959042.83546  22638480.246    22638486.542
  23329050.020   -13798758.97349 -10473329.75045  23329049.405    23329059.235
  21832032.449   -20155072.63749 -15682393.99547  21832031.899    21832036.413
 03  4  3  1 13 30.0000000  0  8G 3G14G31G15G 9G23G17G18
  21884850.099   -17899493.02149 -13601334.02347  21884849.724    21884856.000
  20419522.042   -25528230.52749 -18361292.05348  20419521.509    20419525.431
  22407064.752   -12445184.20649  -9684441.79946  22407064.173    22407070.523
  20850384.497   -25736590.29349 -19780009.62947  20850383.730    20850389.407
  23512496.180   -10241160.69749  -7970055.48645  23512495.918    23512503.739
  22648951.630   -14037932.70749 -10916166.64846  22648951.057    22648957.297
  23345929.094   -13710059.54449 -10404213.42945  23345928.450    23345938.322
  21842672.517   -20099158.85849 -15638824.81547  21842671.963    21842676.434
 03  4  3  1 14  0.0000000  0  8G 3G14G31G15G 9G23G17G18
  21891617.167   -17863931.96949 -13573624.13547  21891616.769    21891623.012
  20412960.184   -25562712.93449 -18388161.39848  20412959.642    20412963.559
  22404498.006   -12458672.38049  -9694952.00846  22404497.419    22404503.810
  20860142.841   -25685309.77749 -19740050.78747  20860142.074    20860147.757
  23516191.443   -10221741.31849  -7954923.46845  23516191.230    23516198.945
  22659431.642   -13982860.10849 -10873252.93346  22659431.052    22659437.304
  23362859.053   -13621092.69349 -10334888.73045  23362858.340    23362868.282
  21853336.387   -20043119.79849 -15595158.01647  21853335.811    21853340.254
 03  4  3  1 14 30.0000000  0  8G 3G14G31G15G 9G23G17G18
  21898478.455   -17827875.74849 -13545528.40347  21898478.079    21898484.303
  20406499.216   -25596665.35249 -18414617.77248  20406498.675    20406502.580
  22402040.687   -12471585.43549  -9705014.08546  22402040.120    22402046.479
  20869979.177   -25633619.67049 -19699772.78947  20869978.365    20869984.056
  23519998.814   -10201732.92649  -7939332.48945  23519998.544    23520006.363
  22669919.773   -13927744.60049 -10830305.77746  22669919.201    22669925.373
  23379838.677   -13531864.79049 -10265360.60545  23379838.034    23379847.969
  21864023.051   -19986960.61349 -15551397.61847  21864022.512    21864027.000
 03  4  3  1 15  0.0000000  0  8G 3G14G31G15G 9G23G17G18
  21905434.099   -17791323.51849 -13517046.15847  21905433.734    21905439.965
  20400139.696   -25630084.64549 -18440658.71848  20400139.178    20400143.041
  22399693.318   -12483920.68649  -9714625.92046  22399692.746    22399699.088
  20879893.880   -25581517.63549 -19659173.80247  20879893.081    20879898.780
  23523918.948   -10181133.16949  -7923280.67645  23523918.650    23523926.302
  22680416.567   -13872583.66949 -10787323.24046  22680415.954    22680422.163
  23396868.436   -13442373.87349 -10195627.55545  23396867.735    23396877.648
  21874732.967   -19930679.45749 -15507542.16947  21874732.458    21874736.923
 03  4  3  1 15 30.0000000  0  8G 3G14G31G15G 9G23G17G18
  21912483.755   -17754277.33949 -13488179.02447  21912483.383    21912489.641
  20393881.594   -25662970.97349 -18466284.37548  20393881.070    20393884.910
  22397455.842   -12495678.52949  -9723787.83346  22397455.265    22397461.581
  20889886.844   -25529004.23349 -19618254.28147  20889886.053    20889891.773
  23527951.329   -10159942.66849  -7906768.56045  23527950.919    23527958.702
  22690921.861   -13817377.91349 -10744305.76446  22690921.272    22690927.477
  23413947.862   -13352620.96949 -10125690.34745  23413947.242    23413957.097
  21885466.019   -19874277.06449 -15463592.27347  21885465.467    21885469.931
 03  4  3  1 16  0.0000000  0  8G 3G14G31G15G 9G23G17G18
  21919626.993   -17716739.56749 -13458928.82947  21919626.608    21919632.831
  20387724.790   -25695324.88449 -18491495.15248  20387724.262    20387728.101
  22395328.139   -12506859.59249  -9732500.29746  22395327.508    22395333.851
  20899957.932   -25476080.22549 -19577014.79447  20899957.141    20899962.866
  23532095.854   -10138162.31049  -7889796.80545  23532095.579    23532103.370
  22701435.432   -13762128.42049 -10701254.21746  22701434.863    22701441.094
  23431076.761   -13262607.83049 -10055550.37845  23431076.214    23431086.012
  21896221.718   -19817755.19849 -15419549.26947  21896221.162    21896225.644
 03  4  3  1 16 30.0000000  0  8G 3G14G31G15G 9G23G17G18
  21926863.349   -17678712.44349 -13429297.31647  21926862.909    21926869.146
  20381669.370   -25727146.00049 -18516290.76848  20381668.874    20381672.690
  22393310.167   -12517464.04649  -9740763.46246  22393309.515    22393315.895
  20910107.031   -25422746.36849 -19535455.95347  20910106.245    20910111.976
  23536352.791   -10115792.52349  -7872365.77345  23536352.502    23536360.215
  22711957.339   -13706835.71549 -10658168.99646  22711956.710    22711962.899
  23448255.046   -13172335.96149  -9985208.79445  23448254.471    23448264.233
  21907000.085   -19761114.32149 -15375413.53947  21906999.580    21907004.060
 03  4  3  1 17  0.0000000  0  8G 3G14G31G15G 9G23G17G18
  21934192.752   -17640195.95049 -13399284.47847  21934192.405    21934198.623
  20375715.797   -25758432.11749 -18540669.50048  20375715.276    20375719.084
  22391402.193   -12527490.02449  -9748575.86146  22391401.555    22391407.942
  20920334.401   -25369001.07449 -19493576.51447  20920333.624    20920339.339
  23540722.084   -10092831.72049  -7854474.17845  23540721.798    23540729.346
  22722487.805   -13651497.84849 -10615048.58846  22722487.169    22722493.314
  23465482.685   -13081804.53849  -9914664.95845  23465482.134    23465491.882
  21917801.457   -19704353.13449 -15331184.05547  21917800.932    21917805.389
 03  4  3  1 17 30.0000000  0  8G 3G14G31G15G 9G23G17G18
  21941614.624   -17601193.87949 -13368893.27047  21941614.257    21941620.500
  20369863.658   -25789185.20549 -18564632.88748  20369863.147    20369866.925
  22389603.984   -12536939.40849  -9755938.98146  22389603.380    22389609.782
  20930639.684   -25314846.45249 -19451378.11847  20930638.900    20930644.639
  23545203.379   -10069282.08549  -7836123.78245  23545203.095    23545210.611
  22733026.330   -13596117.13349 -10571894.79846  22733025.694    22733031.981
  23482759.150   -12991016.31249  -9843921.02245  23482758.644    23482768.459
  21928625.271   -19647473.82549 -15286862.52747  21928624.689    21928629.189
 03  4  3  1 18  0.0000000  0  8G 3G14G31G15G 9G23G17G18
  21949128.597   -17561707.73449 -13338124.85647  21949128.234    21949134.490
  20364113.072   -25819404.48349 -18588180.31948  20364112.538    20364116.303
  22387915.469   -12545812.12449  -9762852.74446  22387914.909    22387921.282
  20941022.787   -25260282.71049 -19408860.92847  20941022.022    20941027.743
  23549796.719   -10045143.69049  -7817314.62645  23549796.455    23549803.927
  22743573.062   -13540693.47649 -10528707.54446  22743572.442    22743578.689
  23500084.298   -12899972.31349  -9772977.77645  23500083.820    23500093.695
  21939471.456   -19590476.73949 -15242449.22447  21939470.900    21939475.414
 03  4  3  1 18 30.0000000  0  8G 3G14G31G15G 9G23G17G18
  21956734.507   -17521738.41949 -13306979.94647  21956734.169    21956740.406
  20358464.306   -25849088.64149 -18611310.77148  20358463.789    20358467.545
  22386336.994   -12554107.11149  -9769316.33446  22386336.432    22386342.723
  20951483.992   -25205308.90749 -19366024.20947  20951483.210    20951488.930
  23554502.296   -10020415.56849  -7798045.92745  23554502.097    23554509.383
  22754128.259   -13485225.98049 -10485486.13446  22754127.596    22754133.883
  23517458.231   -12808672.30849  -9701835.05945  23517457.822    23517467.683
  21950340.179   -19533361.26349 -15197943.67847  21950339.626    21950344.098
 03  4  3  1 19  0.0000000  0  8G 3G14G31G15G 9G23G17G18
  21964431.891   -17481288.34449 -13275460.42647  21964431.541    21964437.795
  20352917.301   -25878238.18149 -18634024.64248  20352916.779    20352920.509
  22384868.287   -12561825.09349  -9775330.31046  22384867.719    22384873.995
  20962023.018   -25149925.99349 -19322868.70147  20962022.224    20962027.955
  23559319.906    -9995098.90249  -7778318.61845  23559319.632    23559326.834
  22764691.580   -13429715.49249 -10442231.21546  22764690.912    22764697.147
  23534880.499   -12717117.96149  -9630494.12945  23534880.102    23534890.062
  21961231.256   -19476128.50449 -15153346.72847  21961230.736    21961235.192
 03  4  3  1 19 30.0000000  0  8G 3G14G31G15G 9G23G17G18
  21972219.987   -17440361.89549 -13243569.71047  21972219.619    21972225.874
  20347471.629   -25906855.12449 -18656323.49648  20347471.089    20347474.810
  22383508.879   -12568968.54649  -9780896.60946  22383508.340    22383514.602
  20972639.406   -25094136.43449 -19279396.32847  20972638.624    20972644.386
  23564248.852    -9969196.15549  -7758134.64245  23564248.610    23564255.855
  22775262.647   -13374164.48849 -10398944.74346  22775261.954    22775268.162
  23552350.631   -12625312.54949  -9558957.57345  23552350.158    23552360.136
  21972144.079   -19418781.29749 -15108660.59447  21972143.532    21972148.028
 03  4  3  1 20  0.0000000  0  8G 3G14G31G15G 9G23G17G18
  21980098.825   -17398958.27749 -13211307.16947  21980098.474    21980104.748
  20342127.839   -25934936.77849 -18678205.24548  20342127.298    20342131.000
  22382259.296   -12575535.00549  -9786013.30446  22382258.745    22382265.008
  20983333.599   -25037938.07949 -19235605.40847  20983332.811    20983338.563
  23569289.903    -9942705.05449  -7737492.17945  23569289.679    23569296.978
  22785841.884   -13318570.43549 -10355624.71146  22785841.220    22785847.415
  23569868.897   -12533254.35149  -9487224.04945  23569868.290    23569878.293
  21983079.070   -19361317.65849 -15063883.74347  21983078.492    21983083.008
 03  4  3  1 20 30.0000000  0  8G 3G14G31G15G 9G23G17G18
  21988068.416   -17357077.90649 -13178673.13847  21988068.047    21988074.348
  20336886.173   -25962481.57649 -18699668.67148  20336885.647    20336889.310
  22381119.789   -12581523.10849  -9790679.33946  22381119.234    22381125.519
  20994105.838   -24981329.84549 -19191495.11047  20994105.063    20994110.774
  23574443.208    -9915624.86649  -7716390.70645  23574442.872    23574450.267
  22796429.536   -13262932.05649 -10312270.14646  22796428.851    22796435.082
  23587435.250   -12440943.52949  -9415293.69145  23587434.509    23587444.618
  21994036.441   -19303736.37249 -15019015.21947  21994035.886    21994040.349
 03  4  3  1 21  0.0000000  0  8G 3G14G31G15G 9G23G17G18
  21996127.586   -17314726.95349 -13145672.42747  21996127.198    21996133.515
  20331745.892   -25989493.69049 -18720717.01848  20331745.356    20331748.999
  22380089.391   -12586937.55349  -9794898.36446  22380088.857    22380095.129
  21004955.116   -24924316.63749 -19147069.24247  21004954.323    21004960.048
  23579707.505    -9887960.32749  -7694833.88645  23579707.208    23579714.623
  22807024.734   -13207253.94949 -10268884.62246  22807024.066    22807030.356
  23605048.620   -12348384.97949  -9343170.28545  23605047.965    23605058.002
  22005015.256   -19246042.12249 -14974058.66047  22005014.695    22005019.188
 03  4  3  1 21 30.0000000  0  8G 3G14G31G15G 9G23G17G18
  22004276.474   -17271904.13449 -13112304.02147  22004276.077    22004282.438
  20326707.645   -26015969.74949 -18741347.65948  20326707.104    20326710.728
  22379168.897   -12591775.07049  -9798667.84846  22379168.334    22379174.550
  21015882.033   -24866895.45049 -19102325.47047  21015881.228    21015886.963
  23585083.498    -9859708.60049  -7672819.51645  23585083.266    23585090.772
  22817628.085   -13151532.89649 -10225465.62446  22817627.405    22817633.682
  23622709.767   -12255576.43149  -9270852.04945  23622709.039    23622718.941
  22016016.100   -19188232.05849 -14929011.85947  22016015.610    22016020.084
 03  4  3  1 22  0.0000000  0  8G 3G14G31G15G 9G23G17G18
  22012514.432   -17228613.46849 -13078571.06547  22012514.054    22012520.400
  20321771.120   -26041911.14649 -18761561.67748  20321770.571    20321774.177
  22378357.729   -12596037.74949  -9801989.40346  22378357.136    22378363.325
  21026886.129   -24809068.45349 -19057265.47647  21026885.320    21026891.054
  23590571.119    -9830871.79649  -7650349.24245  23590570.878    23590578.186
  22828239.231   -13095770.74649 -10182014.60746  22828238.649    22828244.896
  23640417.671   -12162521.00249  -9198341.47145  23640416.970    23640427.058
  22027038.623   -19130308.49549 -14883876.60347  22027038.108    22027042.571
 03  4  3  1 22 30.0000000  0  8G 3G14G31G15G 9G23G17G18
  22020841.196   -17184856.33749 -13044474.63147  22020840.779    22020847.158
  20316936.435   -26067317.41649 -18781358.72048  20316935.888    20316939.450
  22377655.925   -12599725.36849  -9804862.86946  22377655.412    22377661.582
  21037967.515   -24750835.42849 -19011889.10447  21037966.729    21037972.436
  23596169.822    -9801450.09449  -7627423.20845  23596169.612    23596176.872
  22838858.280   -13039967.18649 -10138531.32046  22838857.658    22838863.963
  23658172.544   -12069219.20749  -9125638.89645  23658171.789    23658182.005
  22038082.729   -19072271.35249 -14838652.86247  22038082.223    22038086.692
 03  4  3  1 23  0.0000000  0  8G 3G14G31G15G 9G23G17G18
  22029256.400   -17140634.28649 -13010015.93247  22029256.013    22029262.390
  20312203.708   -26092187.93549 -18800738.29148  20312203.164    20312206.696
  22377063.606   -12602837.63449  -9807288.01546  22377063.131    22377069.269
  21049126.171   -24692196.38549 -18966196.35247  21049125.354    21049131.070
  23601879.826    -9771443.41049  -7604041.34645  23601879.639    23601887.087
  22849485.304   -12984121.70149 -10095015.36246  22849484.691    22849491.004
  23675974.152   -11975671.83649  -9052744.98645  23675973.384    23675983.588
  22049148.446   -19014120.71249 -14793340.67747  22049147.952    22049152.383
 03  4  3  1 23 30.0000000  0  8G 3G14G31G15G 9G23G17G18
  22037759.808   -17095948.61449 -12975195.96247  22037759.397    22037765.786
  20307573.043   -26116522.13249 -18819699.94848  20307572.480    20307575.988
  22376580.957   -12605374.23049  -9809264.58346  22376580.466    22376586.573
  21060362.112   -24633151.05949 -18920187.02047  21060361.285    21060367.052
  23607701.238    -9740851.65849  -7580203.57245  23607701.009    23607708.461
  22860120.401   -12928233.81249 -10051466.36446  22860119.778    22860126.108
  23693822.417   -11881879.07149  -8979659.83845  23693821.739    23693831.907
  22060235.821   -18955856.20449 -14747939.76447  22060235.337    22060239.717
 03  4  3  1 24  0.0000000  0  8G 3G14G31G15G 9G23G17G18
  22046350.365   -17050804.82349 -12940019.01347  22046349.979    22046356.408
  20303043.795   -26140323.36949 -18838246.31048  20303043.236    20303046.720
  22376207.103   -12607338.98849  -9810795.55646  22376206.584    22376212.712
  21071674.686   -24573703.20449 -18873864.02547  21071673.874    21071679.610
  23613633.291    -9709679.01549  -7555913.15445  23613633.082    23613640.413
  22870762.942   -12872306.98149 -10007887.02246  22870762.331    22870768.594
  23711716.608   -11787845.21549  -8906386.84445  23711715.950    23711726.172
  22071344.123   -18897481.66849 -14702453.11247  22071343.627    22071348.036
 03  4  3  1 24 30.0000000  0  8G 3G14G31G15G 9G23G17G18
  22055028.611   -17005200.76249 -12904483.41147  22055028.221    22055034.605
  20298616.735   -26163587.42149 -18856374.08148  20298616.181    20298619.668
  22375942.744   -12608728.01649  -9811877.90446  22375942.257    22375948.410
  21083064.520   -24513849.31249 -18827224.63347  21083063.679    21083069.415
  23619676.511    -9677921.77749  -7531167.23545  23619676.209    23619683.733
  22881413.713   -12816337.10949  -9964274.12946  22881413.047    22881419.256
  23729657.077   -11693567.50349  -8832923.82945  23729656.431    23729666.699
  22082474.125   -18838992.98049 -14656877.50847  22082473.661    22082478.092
 03  4  3  1 25  0.0000000  0  8G 3G14G31G15G 9G23G17G18
  22063793.085   -16959143.10449 -12868594.35947  22063792.694    22063799.122
  20294291.048   -26186318.86849 -18874086.84348  20294290.515    20294293.969
  22375786.996   -12609546.41949  -9812515.61746  22375786.505    22375792.658
  21094530.645   -24453594.30049 -18780272.68147  21094529.811    21094535.545
  23625829.894    -9645585.10149  -7505969.76945  23625829.539    23625837.193
  22892071.729   -12760328.82249  -9920631.30346  22892071.069    22892077.264
  23747642.962   -11599051.52349  -8759275.13045  23747642.339    23747652.670
  22093624.904   -18780395.39649 -14611217.05747  22093624.392    22093628.838
 03  4  3  1 25 30.0000000  0  8G 3G14G31G15G 9G23G17G18
  22072644.440   -16912628.99249 -12832349.62847  22072644.047    22072650.524
  20290067.589   -26208513.01149 -18891380.92148  20290067.059    20290070.482
  22375740.775   -12609789.41049  -9812704.95346  22375740.257    22375746.363
  21106074.023   -24392933.58849 -18733004.59847  21106073.200    21106078.865
  23632094.367    -9612664.86249  -7480317.61145  23632093.991    23632101.537
  22902738.007   -12704277.30049  -9876954.79846  22902737.354    22902743.483
  23765674.844   -11504293.61349  -8685437.93445  23765674.216    23765684.631
  22104797.256   -18721684.35849 -14565468.19847  22104796.718    22104801.178
 03  4  3  1 26  0.0000000  0  8G 3G14G31G15G 9G23G17G18
  22081581.469   -16865664.52949 -12795753.97147  22081581.099    22081587.586
  20285945.668   -26230173.69749 -18908259.31948  20285945.133    20285948.530
  22375803.147   -12609461.52249  -9812449.44746  22375802.635    22375808.714
  21117693.742   -24331871.78049 -18685423.97647  21117692.896    21117698.561
  23638469.062    -9579165.68049  -7454214.31345  23638468.708    23638476.185
  22913411.744   -12648186.50549  -9833247.68946  22913411.116    22913417.214
  23783751.836   -11409298.84449  -8611416.16745  23783751.212    23783761.690
  22115990.320   -18662864.16849 -14519634.29047  22115989.849    22115994.306
 03  4  3  1 26 30.0000000  0  8G 3G14G31G15G 9G23G17G18
  22090604.394   -16818248.94049 -12758806.79147  22090604.013    22090610.475
  20281925.766   -26251298.25249 -18924719.95648  20281925.225    20281928.621
  22375974.640   -12608560.43449  -9811747.28746  22375974.116    22375980.168
  21129390.145   -24270406.66549 -18637529.08947  21129389.328    21129394.978
  23644954.214    -9545085.40649  -7427658.19545  23644953.769    23644961.325
  22924093.467   -12592053.81849  -9789507.93246  22924092.821    22924098.910
  23801874.182   -11314065.74249  -8537208.70545  23801873.506    23801884.053
  22127204.644   -18603932.41349 -14473713.44447  22127204.145    22127208.643
 03  4  3  1 27  0.0000000  0  8G 3G14G31G15G 9G23G17G18
  22099712.055   -16770387.91549 -12721512.51347  22099711.688    22099718.196
  20278007.198   -26271890.22749 -18940765.59648  20278006.658    20278010.054
  22376254.466   -12607090.07649  -9810601.52946  22376253.962    22376259.992
  21141162.643   -24208541.97849 -18589322.84347  21141161.808    21141167.457
  23651549.028    -9510428.43549  -7400652.72245  23651548.794    23651556.324
  22934782.452   -12535882.64549  -9745738.19046  22934781.861    22934787.962
  23820041.055   -11218598.25849  -8462818.58045  23820040.329    23820051.040
  22138439.535   -18544892.78549 -14427708.54547  22138439.018    22138443.530
 03  4  3  1 27 30.0000000  0  8G 3G14G31G15G 9G23G17G18
  22108904.898   -16722079.50449 -12683869.62647  22108904.504    22108911.026
  20274190.752   -26291945.58249 -18956393.09348  20274190.210    20274193.612
  22376643.320   -12605046.68149  -9809009.25846  22376642.783    22376648.826
  21153011.820   -24146274.17649 -18540802.48447  21153011.025    21153016.608
  23658254.437    -9475191.20849  -7373195.11145  23658254.181    23658261.767
  22945479.582   -12479668.78149  -9701935.18146  22945478.995    22945485.136
  23838253.090   -11122893.61149  -8388243.65945  23838252.261    23838263.184
  22149695.612   -18485741.68949 -14381616.78647  22149695.135    22149699.600
 03  4  3  1 28  0.0000000  0  8G 3G14G31G15G 9G23G17G18
  22118181.368   -16673331.41749 -12645884.12647  22118180.982    22118187.513
  20270475.310   -26311470.09149 -18971606.94048  20270474.782    20270478.150
  22377140.033   -12602436.54749  -9806975.36246  22377139.469    22377145.518
  21164936.485   -24083609.49349 -18491972.86247  21164935.690    21164941.293
  23665069.015    -9439380.20249  -7345290.39945  23665068.734    23665076.256
  22956183.663   -12423418.06349  -9658103.45546  22956183.095    22956189.374
  23856509.116   -11026958.51949  -8313489.16945  23856508.333    23856519.150
  22160971.801   -18426484.95849 -14335442.71847  22160971.309    22160975.780
 03  4  3  1 28 30.0000000  0  8G 3G14G31G15G 9G23G17G18
  22127542.253   -16624139.77749 -12607553.00347  22127541.891    22127548.410
  20266862.098   -26330457.69249 -18986402.41948  20266861.554    20266864.882
  22377745.572   -12599254.03949  -9804495.45646  22377745.040    22377751.102
  21176937.771   -24020542.26749 -18442829.57247  21176936.982    21176942.563
  23671993.688    -9402990.11649  -7316934.46045  23671993.410    23672001.016
  22966896.032   -12367124.29749  -9614238.18346  22966895.439    22966901.756
  23874809.640   -10930788.47049  -8238551.62045  23874808.893    23874819.747
  22172269.221   -18367116.63449 -14289181.68347  22172268.728    22172273.167
 03  4  3  1 29  0.0000000  0  8G 3G14G31G15G 9G23G17G18
  22136986.229   -16574511.36949 -12568881.53647  22136985.844    22136992.373
  20263350.076   -26348913.16249 -19000783.25248  20263349.515    20263352.838
  22378459.053   -12595504.37349  -9801573.62046  22378458.565    22378464.564
  21189014.733   -23957077.62349 -18393376.61047  21189013.931    21189019.500
  23679027.708    -9366026.56149  -7288131.62645  23679027.381    23679034.863
  22977615.718   -12310792.04749  -9570342.93146  22977615.098    22977621.494
  23893153.797   -10834389.17649  -8163435.41345  23893153.184    23893163.961
  22183586.994   -18307641.70549 -14242837.59047  22183586.463    22183590.921
 03  4  3  1 29 30.0000000  0  8G 3G14G31G15G 9G23G17G18
  22146513.448   -16524445.58249 -12529869.26347  22146513.068    22146519.599
  20259939.723   -26366834.40349 -19014747.80648  20259939.176    20259942.498
  22379280.926   -12591185.50649  -9798208.24246  22379280.407    22379286.389
  21201167.633   -23893213.67149 -18343612.49747  21201166.838    21201172.436
  23686171.121    -9328487.40649  -7258880.29545  23686170.855    23686178.301
  22988343.178   -12254418.85949  -9526415.76446  22988342.562    22988349.000
  23911541.912   -10737758.90349  -8088139.23945  23911541.275    23911552.293
  22194925.419   -18248058.02449 -14196408.74447  22194924.853    22194929.300
 03  4  3  1 30  0.0000000  0  8G 3G14G31G15G 9G23G17G18
  22156123.197   -16473945.87849 -12490518.87147  22156122.845    22156129.401
  20256630.826   -26384222.39649 -19028296.84248  20256630.297    20256633.631
  22380210.732   -12586299.17449  -9794400.69146  22380210.233    22380216.233
  21213396.252   -23828951.89149 -18293538.38647  21213395.472    21213401.042
  23693423.685    -9290374.79049  -7229182.11645  23693423.434    23693430.898
  22999078.153   -12198005.79649  -9482457.53946  22999077.570    22999084.078
  23929973.659   -10640899.86149  -8012664.77145  23929972.984    23929983.976
  22206284.233   -18188367.02249 -14149896.27247  22206283.689    22206288.152
 03  4  3  1 30 30.0000000  0  8G 3G14G31G15G 9G23G17G18
  22165814.883   -16423016.16349 -12450833.40547  22165814.536    22165821.046
  20253423.112   -26401078.86249 -19041431.70048  20253422.577    20253425.899
  22381248.084   -12580847.67949  -9790152.74146  22381247.574    22381253.633
  21225700.134   -23764294.64649 -18243156.12247  21225699.354    21225704.923
  23700784.987    -9251691.25249  -7199039.04945  23700784.678    23700792.209
  23009820.536   -12141554.36549  -9438469.41846  23009819.923    23009826.429
  23948448.460   -10543815.04749  -7937014.41145  23948447.834    23948458.680
  22217663.049   -18128570.79849 -14103301.80746  22217662.522    22217666.981
 03  4  3  1 31  0.0000000  0  8G 3G14G31G15G 9G23G17G18
  22175588.516   -16371655.37749 -12410812.03747  22175588.170    22175594.706
  20250317.079   -26417401.08849 -19054150.26748  20250316.538    20250319.849
  22382393.516   -12574828.33249  -9785462.32246  22382393.012    22382399.037
  21238079.792   -23699239.13349 -18192463.51547  21238079.004    21238084.557
  23708255.350    -9212434.42649  -7168449.28445  23708255.096    23708262.464
  23020570.880   -12085061.21149  -9394448.77846  23020570.211    23020576.677
  23966966.495   -10446503.04049  -7861186.97745  23966965.735    23966976.446
  22229062.601   -18068665.94849 -14056622.70046  22229062.061    22229066.505
 03  4  3  1 31 30.0000000  0  8G 3G14G31G15G 9G23G17G18
  22185443.109   -16319869.36949 -12370459.32847  22185442.738    22185449.274
  20247311.977   -26433192.78049 -19066455.43348  20247311.438    20247314.722
  22383646.221   -12568245.46849  -9780332.79946  22383645.705    22383651.677
  21250534.401   -23633789.70849 -18141463.96847  21250533.622    21250539.183
  23715833.925    -9172608.82849  -7137416.30745  23715833.580    23715841.105
  23031328.382   -12028529.99949  -9350398.47846  23031327.784    23031334.142
  23985527.060   -10348967.56449  -7785185.42845  23985526.276    23985536.954
  22240481.981   -18008656.49949 -14009862.09146  22240481.406    22240485.898
 03  4  3  1 32  0.0000000  0  8G 3G14G31G15G 9G23G17G18
  22195378.430   -16267658.69649 -12329775.70647  22195378.070    22195384.637
  20244408.119   -26448452.46249 -19078346.04448  20244407.578    20244410.837
  22385006.321   -12561097.89749  -9774763.24846  22385005.813    22385011.756
  21263064.231   -23567944.98649 -18090156.39747  21263063.437    21263069.002
  23723520.757    -9132213.82249  -7105939.62145  23723520.539    23723527.927
  23042093.557   -11971958.73249  -9306316.98146  23042092.941    23042099.229
  24004130.148   -10251208.65349  -7709009.75445  24004129.187    24004140.066
  22251921.563   -17948540.85749 -13963018.72646  22251921.015    22251925.526
 03  4  3  1 32 30.0000000  0  8G 3G14G31G15G 9G23G17G18
  22205394.171   -16215025.82549 -12288763.10147  22205393.786    22205400.378
  20241605.418   -26463180.73949 -19089822.57348  20241604.859    20241608.108
  22386473.665   -12553386.72449  -9768754.51346  22386473.197    22386479.172
  21275669.054   -23501706.18949 -18038541.75347  21275668.262    21275673.851
  23731315.722    -9091250.62949  -7074020.22745  23731315.482    23731323.011
  23052866.301   -11915347.74849  -9262204.53046  23052865.664    23052871.905
  24022775.443   -10153227.52749  -7632660.93645  24022774.429    24022785.264
  22263381.266   -17888319.68549 -13916093.13246  22263380.722    22263385.218
 03  4  3  1 33  0.0000000  0  8G 3G14G31G15G 9G23G17G18
  22215489.870   -16161972.95249 -12247423.22147  22215489.477    22215496.031
  20238903.745   -26477377.93249 -19100885.27048  20238903.169    20238906.409
  22388048.177   -12545112.69849  -9762307.20546  22388047.657    22388053.660
  21288348.811   -23435073.87149 -17986620.47547  21288347.993    21288353.560
  23739218.731    -9049720.20249  -7041658.80345  23739218.431    23739225.751
  23063646.541   -11858697.03749  -9218061.12846  23063645.920    23063652.143
  24041462.810   -10055025.85449  -7556140.26145  24041461.742    24041472.527
  22274860.953   -17827993.31249 -13869085.56846  22274860.445    22274864.920
 03  4  3  1 33 30.0000000  0  8G 3G14G31G15G 9G23G17G18
  22225665.088   -16108501.59149 -12205757.24247  22225664.712    22225671.305
  20236303.206   -26491043.41049 -19111533.64448  20236302.659    20236305.888
  22389729.795   -12536275.76649  -9755421.26246  22389729.223    22389735.261
  21301103.419   -23368047.82649 -17934392.39447  21301102.614    21301108.189
  23747229.571    -9007622.79249  -7008855.60445  23747229.285    23747236.726
  23074434.514   -11802005.73049  -9173886.09546  23074433.903    23074440.113
  24060191.929    -9956603.96649  -7479448.01445  24060190.905    24060201.621
  22286360.767   -17767561.12749 -13821995.55246  22286360.274    22286364.748
 03  4  3  1 34  0.0000000  0  8G 3G14G31G15G 9G23G17G18
  22235919.167   -16054615.97349 -12163768.47247  22235918.784    22235925.397
  20233803.430   -26504179.59549 -19121769.57848  20233802.900    20233806.120
  22391518.008   -12526878.57149  -9748098.74646  22391517.425    22391523.466
  21313932.534   -23300630.42049 -17881859.35847  21313931.702    21313937.286
  23755347.740    -8964961.42149  -6975612.93545  23755347.456    23755354.881
  23085229.855   -11745275.72049  -9129680.90846  23085229.299    23085235.440
  24078962.502    -9857964.33049  -7402586.07245  24078961.551    24078972.350
  22297880.417   -17707025.30249 -13774824.78546  22297879.919    22297884.340
 03  4  3  1 34 30.0000000  0  8G 3G14G31G15G 9G23G17G18
  22246251.795   -16000317.54249 -12121458.02647  22246251.421    22246258.066
  20231404.484   -26516786.08949 -19131592.77048  20231403.941    20231407.160
  22393412.830   -12516921.09849  -9740339.65546  22393412.253    22393418.227
  21326836.075   -23232821.76049 -17829021.44647  21326835.259    21326840.822
  23763573.203    -8921736.00249  -6941930.73745  23763572.971    23763580.259
  23096032.815   -11688505.87949  -9085444.67646  23096032.269    23096038.374
  24097774.363    -9759107.72949  -7325555.06545  24097773.608    24097784.466
  22309419.876   -17646385.06049 -13727572.64846  22309419.380    22309423.764
 03  4  3  1 35  0.0000000  0  8G 3G14G31G15G 9G23G17G18
  22256662.852   -15945607.42649 -12078826.79247  22256662.443    22256669.058
  20229106.541   -26528861.70449 -19141002.29348  20229105.981    20229109.178
  22395414.346   -12506402.82349  -9732143.57846  22395413.818    22395419.798
  21339814.191   -23164621.24549 -17775878.20247  21339813.404    21339818.961
  23771905.945    -8877946.58049  -6907809.08745  23771905.682    23771913.027
  23106843.633   -11631694.92949  -9041176.42246  23106843.016    23106849.149
  24116627.482    -9660034.20149  -7248355.06045  24116626.887    24116637.672
  22320979.481   -17585639.23149 -13680238.23946  22320978.968    22320983.289
 03  4  3  1 35 30.0000000  0  8G 3G14G31G15G 9G23G17G18
  22267151.214   -15890490.75149 -12035878.75147  22267150.822    22267157.450
  20226908.996   -26540409.68649 -19150000.66848  20226908.433    20226911.619
  22397521.906   -12495327.40649  -9723513.34646  22397521.369    22397527.362
  21352866.301   -23096032.12549 -17722432.14347  21352865.499    21352871.094
  23780345.502    -8833597.05249  -6873250.96345  23780345.170    23780352.307
  23117661.759   -11574845.35749  -8996878.06846  23117661.126    23117667.272
  24135521.092    -9560747.51249  -7170988.93045  24135520.406    24135531.350
  22332558.492   -17524791.10149 -13632824.12546  22332558.002    22332562.280
 03  4  3  1 36  0.0000000  0  9G 3G14G31G15G 9G25G23G17G18
  22277715.588   -15834974.59349 -11992619.42547  22277715.218    22277721.791
  20224810.840   -26551435.23549 -19158591.95248  20224810.285    20224813.466
  22399734.477   -12483700.47549  -9714453.37046  22399733.917    22399739.951
  21365991.235   -23027059.99049 -17668687.63447  21365990.433    21365996.048
  23788890.307    -8788693.41349  -6838261.04945  23788889.965    23788897.169
  24531611.925    -5729664.05749  -4197035.27245  24531611.710    24531626.901
  23128486.387   -11517961.82449  -8952553.26046  23128485.723    23128491.843
  24154454.131    -9461253.83649  -7093461.47145  24154453.460    24154464.551
  22344156.087   -17463845.42149 -13585333.98246  22344155.583    22344159.823
 03  4  3  1 36 30.0000000  0  9G 3G14G31G15G 9G25G23G17G18
  22288357.244   -15779052.47649 -11949043.77246  22288356.862    22288363.438
  20222813.716   -26561929.98649 -19166769.63148  20222813.148    20222816.309
  22402053.406   -12471514.23649  -9704957.56746  22402052.842    22402058.846
  21379190.614   -22957696.73649 -17614638.35747  21379189.825    21379195.444
  23797541.882    -8743228.03049  -6802833.45345  23797541.705    23797548.998
  24512977.351    -5827586.82249  -4273338.21145  24512977.121    24512992.195
  23139319.087   -11461035.50849  -8908195.11146  23139318.433    23139324.596
  24173428.116    -9361545.86449  -7015767.06745  24173427.354    24173438.617
  22355773.830   -17402793.54949 -13537761.09646  22355773.340    22355777.645
 03  4  3  1 37  0.0000000  0  9G 3G14G31G15G 9G25G23G17G18
  22299075.483   -15722728.19549 -11905154.75146  22299075.052    22299081.590
  20220917.206   -26571896.03149 -19174535.32948  20220916.641    20220919.773
  22404478.336   -12458770.97549  -9695027.72846  22404477.813    22404483.764
  21392464.010   -22887944.46349 -17560285.94747  21392463.236    21392468.866
  23806300.104    -8697203.35249  -6766970.03645  23806299.941    23806307.086
  24494332.528    -5925563.95949  -4349683.50945  24494332.178    24494347.114
  23150159.754   -11404067.74449  -8863804.65746  23150159.108    23150165.243
  24192442.260    -9261626.46249  -6937907.92845  24192441.491    24192452.796
  22367411.434   -17341637.47749 -13490107.01946  22367410.943    22367415.290
 03  4  3  1 37 30.0000000  0  9G 3G14G31G15G 9G25G23G17G18
  22309868.996   -15666007.78149 -11860957.05846  22309868.589    22309875.117
  20219120.583   -26581337.21249 -19181892.04448  20219120.005    20219123.123
  22407008.421   -12445475.18249  -9684667.34846  22407007.861    22407013.835
  21405810.711   -22817807.25149 -17505633.58847  21405809.916    21405815.533
  23815163.928    -8650623.95749  -6730674.37745  23815163.626    23815171.057
  24475677.011    -6023596.53149  -4426072.01545  24475676.792    24475691.659
  23161007.610   -11347061.84449  -8819384.49046  23161006.948    23161013.131
  24211495.943    -9161499.78649  -6859887.26045  24211495.181    24211506.448
  22379068.216   -17280380.70449 -13442374.46546  22379067.723    22379072.119
 03  4  3  1 38  0.0000000  0  9G 3G14G31G15G 9G25G23G17G18
  22320738.274   -15608889.38149 -11816449.24446  22320737.885    22320744.433
  20217424.527   -26590249.73049 -19188836.81448  20217423.979    20217427.073
  22409644.261   -12431623.66249  -9673873.92846  22409643.707    22409649.729
  21419231.284   -22747281.92749 -17450678.80147  21419230.475    21419236.113
  23824133.675    -8603487.10449  -6693944.33345  23824133.426    23824140.899
  24457012.361    -6121677.39749  -4502498.15845  24457012.154    24457026.958
  23171863.526   -11290013.50849  -8774931.24146  23171862.903    23171869.096
  24230589.442    -9061162.80849  -6781702.71545  24230588.682    24230600.027
  22390744.884   -17219019.21249 -13394560.31246  22390744.380    22390748.835
 03  4  3  1 38 30.0000000  0  9G 3G14G31G15G 9G25G23G17G18
  22331682.275   -15551378.33249 -11771635.47346  22331681.908    22331688.452
  20215828.388   -26598637.21349 -19195372.46748  20215827.854    20215830.936
  22412385.114   -12417220.28649  -9662650.50046  22412384.559    22412390.558
  21432724.933   -22676372.29849 -17395424.55847  21432724.114    21432729.800
  23833208.672    -8555796.94649  -6656783.13745  23833208.573    23833216.044
  24438338.522    -6219807.07349  -4578962.34745  24438338.321    24438352.923
  23182727.058   -11232925.62949  -8730447.20246  23182726.433    23182732.622
  24249722.100    -8960620.42049  -6703358.13545  24249721.367    24249732.689
  22402440.976   -17157555.90849 -13346666.82246  22402440.443    22402444.949
 03  4  3  1 39  0.0000000  0  9G 3G14G31G15G 9G25G23G17G18
  22342700.704   -15493476.28549 -11726517.03246  22342700.300    22342706.866
  20214332.178   -26606499.53249 -19201498.90748  20214331.650    20214334.733
  22415230.871   -12402265.60449  -9650997.48746  22415230.359    22415236.298
  21446291.653   -22605078.47449 -17339870.94547  21446290.871    21446296.563
  23842389.007    -8507554.23849  -6619191.40845  23842388.789    23842396.237
  24419656.070    -6317981.98449  -4655461.78745  24419655.865    24419670.473
  23193598.206   -11175797.48749  -8685931.78646  23193597.537    23193603.730
  24268893.745    -8859872.83349  -6624853.65045  24268892.955    24268904.409
  22414156.481   -17095990.63049 -13298693.87946  22414155.933    22414160.472
 03  4  3  1 39 30.0000000  0  9G 3G14G31G15G 9G25G23G17G18
  22353792.861   -15435186.64049 -11681096.55446  22353792.472    22353799.001
  20212935.668   -26613838.02549 -19207217.15948  20212935.136    20212938.205
  22418181.252   -12386761.37449  -9638916.25146  22418180.776    22418186.628
  21459931.264   -22533402.07849 -17284019.21447  21459930.439    21459936.123
  23851673.924    -8458761.08249  -6581170.74945  23851673.779    23851681.342
  24400965.473    -6416200.31949  -4731995.06245  24400965.094    24400979.717
  23204476.946   -11118629.55349  -8641385.32746  23204476.245    23204482.453
  24288104.049    -8758922.62349  -6546191.28045  24288103.196    24288114.705
  22425891.135   -17034324.21849 -13250642.11546  22425890.619    22425895.233
 03  4  3  1 40  0.0000000  0  8G 3G14G31G15G 9G25G23G18
  22364958.372   -15376511.84449 -11635375.97746  22364957.992    22364964.475
  20211638.729   -26620653.46549 -19212527.84148  20211638.194    20211641.238
  22421235.945   -12370708.81049  -9626407.74446  22421235.432    22421241.293
  21473643.512   -22461343.90649 -17227869.99947  21473642.707    21473648.394
  23861063.379    -8409418.89449  -6542722.26945  23861063.220    23861070.798
  24382266.958    -6514459.87049  -4808560.43845  24382266.478    24382280.969
  23215363.213   -11061421.89249  -8596807.92646  23215362.489    23215368.740
  22437644.971   -16972557.15249 -13202511.92746  22437644.472    22437649.085
 03  4  3  1 40 30.0000000  0  8G 3G14G31G15G 9G25G23G18
  22376196.955   -15317452.84649 -11589356.00946  22376196.571    22376203.073
  20210441.452   -26626944.82949 -19217430.15448  20210440.923    20210443.942
  22424395.001   -12354107.40549  -9613471.56046  22424394.475    22424400.415
  21487428.474   -22388903.27149 -17171422.76447  21487427.664    21487433.361
  23870557.439    -8359527.45849  -6503845.80145  23870557.207    23870564.741
  24363561.331    -6612756.48549  -4885154.68645  24363560.988    24363575.207
  23226257.298   -11004172.78149  -8552198.22146  23226256.637    23226262.893
  22449418.356   -16910687.92049 -13154302.13146  22449417.831    22449422.338
 03  4  3  1 41  0.0000000  0  8G 3G14G31G15G 9G25G23G18
  22387507.642   -15258014.77749 -11543040.65846  22387507.241    22387513.761
  20209343.337   -26632715.45849 -19221926.69848  20209342.803    20209345.813
  22427657.885   -12336960.87649  -9600110.61146  22427657.326    22427663.236
  21501285.602   -22316083.75449 -17114680.28847  21501284.800    21501290.475
  23880155.161    -8309090.65549  -6464544.37545  23880154.894    23880162.614
  24344848.761    -6711089.70549  -4961777.43745  24344848.493    24344862.414
  23237158.864   -10946884.38349  -8507557.90046  23237158.231    23237164.573
  22461210.646   -16848719.19649 -13106014.80346  22461210.108    22461214.617
 03  4  3  1 41 30.0000000  0  8G 3G14G31G15G 9G25G23G18
  22398890.077   -15198199.59849 -11496431.46446  22398889.701    22398896.248
  20208344.305   -26637965.13949 -19226017.31148  20208343.775    20208346.778
  22431024.388   -12319269.78249  -9586325.33046  22431023.865    22431029.733
  21515214.827   -22242885.35049 -17057642.57847  21515214.007    21515219.653
  23889856.647    -8258109.34949  -6424818.66845  23889856.297    23889863.931
  24326129.869    -6809456.26149  -5038426.16745  24326129.621    24326143.285
  23248068.128   -10889556.06649  -8462886.46346  23248067.458    23248073.763
  22473021.883   -16786650.62449 -13057649.67446  22473021.381    22473025.811
 03  4  3  1 42  0.0000000  0  8G 3G14G31G15G 9G25G23G18
  22410343.915   -15138009.40849 -11449530.04446  22410343.542    22410350.098
  20207444.280   -26642694.57449 -19229702.53448  20207443.768    20207446.766
  22434494.388   -12301035.09249  -9572116.44746  22434493.843    22434499.688
  21529215.970   -22169308.65749 -17000310.09947  21529215.154    21529220.864
  23899661.399    -8206584.74949  -6384669.60345  23899661.099    23899668.830
  24307405.174    -6907853.35349  -5115098.66845  24307404.995    24307418.397
  23258985.034   -10832187.43949  -8418183.62246  23258984.360    23258990.681
  22484852.253   -16724482.03049 -13009206.60146  22484851.721    22484856.055
 03  4  3  1 42 30.0000000  0  8G 3G14G31G15G 9G25G23G18
  22421868.745   -15077446.41849 -11402338.13346  22421868.344    22421874.882
  20206643.247   -26646903.85849 -19232982.45548  20206642.742    20206645.704
  22438067.617   -12282257.49849  -9557484.53746  22438067.070    22438072.933
  21543289.004   -22095354.35849 -16942683.38747  21543288.192    21543293.908
  23909569.468    -8154517.79949  -6344097.94445  23909569.160    23909576.748
  24288675.186    -7006277.91849  -5191792.58145  24288674.942    24288688.166
  23269909.608   -10774777.89849  -8373448.89246  23269908.997    23269915.421
  22496701.624   -16662213.22049 -12960685.45146  22496701.098    22496705.445
 03  4  3  1 43  0.0000000  0  8G 3G14G31G15G 9G25G23G18
  22433463.757   -15016513.97949 -11354858.34346  22433463.396    22433469.975
  20205940.923   -26650594.50349 -19235858.23648  20205940.409    20205943.362
  22441743.766   -12262939.15849  -9542431.25846  22441743.185    22441749.015
  21557433.503   -22021024.33349 -16884763.90247  21557432.730    21557438.428
  23919580.189    -8101911.11949  -6303105.70545  23919579.889    23919587.305
  24269940.339    -7104728.03749  -5268506.39945  24269940.061    24269953.342
  23280841.901   -10717328.22649  -8328682.89846  23280841.309    23280847.714
  22508569.834   -16599845.17449 -12912086.97646  22508569.332    22508573.630
 03  4  3  1 43 30.0000000  0  8G 3G14G31G15G 9G25G23G18
  22445128.640   -14955214.75549 -11307092.74346  22445128.291    22445134.844
  20205337.094   -26653767.41049 -19238330.59348  20205336.587    20205339.515
  22445522.494   -12243081.41849  -9526957.66946  22445521.948    22445527.793
  21571649.346   -21946319.53749 -16826552.38847  21571648.559    21571654.297
  23929693.393    -8048766.19849  -6261694.05245  23929693.088    23929700.325
  24251201.217    -7203201.15349  -5345238.15345  24251200.934    24251214.067
  23291781.966   -10659838.28249  -8283885.53646  23291781.315    23291787.709
  22520456.899   -16537378.29949 -12863411.48646  22520456.363    22520460.681
 03  4  3  1 44  0.0000000  0  8G 3G14G31G15G 9G25G23G18
  22456863.205   -14893549.53949 -11259041.95946  22456862.847    22456869.389
  20204832.011   -26656421.46149 -19240398.64548  20204831.516    20204834.434
  22449404.020   -12222683.65649  -9511063.28246  22449403.501    22449409.343
  21585936.719   -21871238.85049 -16768047.97247  21585935.947    21585941.678
  23939909.210    -7995082.56349  -6219862.63045  23939908.776    23939915.955
  24232458.535    -7301692.51949  -5421984.12845  24232458.239    24232471.272
  23302729.942   -10602306.01649  -8239055.19146  23302729.296    23302735.662
  22532363.069   -16474810.63749 -12814657.45946  22532362.560    22532366.914
 03  4  3  1 44 30.0000000  0  9G 3G14G31G15G 9G25G23G11G18
  22468665.283   -14831529.23949 -11210714.47746  22468664.907    22468671.531
  20204423.919   -26658565.93149 -19242069.62748  20204423.409    20204426.312
  22453386.481   -12201755.60749  -9494755.68446  22453385.944    22453391.835
  21600293.871   -21795791.66649 -16709257.97947  21600293.088    21600298.830
  23950225.429    -7940870.22849  -6177619.22145  23950225.034    23950232.162
  24213711.294    -7400208.00049  -5498748.87645  24213710.988    24213723.889
  23313684.405   -10544739.71949  -8194198.32246  23313683.803    23313690.143
  24665618.900    -4858120.84049  -3742660.95345  24665618.249    24665625.007
  22544286.757   -16412150.63249 -12765831.49346  22544286.246    22544290.734
 03  4  3  1 45  0.0000000  0  9G 3G14G31G15G 9G25G23G11G18
  22480536.332   -14769146.59349 -11162104.66246  22480535.939    22480542.581
  20204114.515   -26660191.71449 -19243336.43848  20204114.003    20204116.904
  22457471.437   -12180288.81949  -9478028.29746  22457470.887    22457476.820
  21614722.441   -21719968.96349 -16650175.37147  21614721.650    21614727.407
  23960643.708    -7886121.00049  -6134957.47245  23960643.491    23960650.468
  24194961.770    -7498735.36249  -5575522.90445  24194961.437    24194974.214
  23324647.306   -10487129.41649  -8149307.17646  23324646.653    23324652.960
  24646534.696    -4958408.35449  -3820806.94345  24646534.020    24646540.858
  22556229.922   -16349388.86649 -12716926.21646  22556229.387    22556233.877
 03  4  3  1 45 30.0000000  0  9G 3G14G31G15G 9G25G23G11G18
  22492475.278   -14706407.29849 -11113216.92546  22492474.864    22492481.519
  20203903.050   -26661302.93949 -19244202.29548  20203902.519    20203905.420
  22461658.035   -12158287.86749  -9460884.66946  22461657.498    22461663.406
  21629221.589   -21643775.20849 -16590803.63747  21629220.802    21629226.619
  23971163.374    -7830839.68549  -6091881.08545  23971163.119    23971169.957
  24176209.963    -7597274.86549  -5652306.39445  24176209.729    24176222.259
  23335617.973   -10429478.13649  -8104384.10246  23335617.328    23335623.638
  24627461.542    -5058637.92249  -3898907.78245  24627461.173    24627467.637
  22568191.795   -16286528.73649 -12667944.30946  22568191.246    22568195.799
 03  4  3  1 46  0.0000000  0  9G 3G14G31G15G 9G25G23G11G18
  22504481.763   -14643312.82749 -11064052.44146  22504481.332    22504487.984
  20203789.582   -26661899.14549 -19244666.84048  20203789.018    20203791.926
  22465946.337   -12135753.04049  -9443325.05146  22465945.779    22465951.625
  21643791.461   -21567210.19549 -16531142.61147  21643790.666    21643796.484
  23981784.116    -7775026.83849  -6048390.55945  23981783.747    23981790.816
  24157456.549    -7695822.82849  -5729096.47245  24157456.222    24157468.643
  23346596.651   -10371784.55349  -8059428.06346  23346596.078    23346602.350
  24608399.928    -5158806.39749  -3976960.99745  24608399.779    24608406.054
  22580172.492   -16223569.24349 -12618884.96146  22580172.022    22580176.637
 03  4  3  1 46 30.0000000  0  9G 3G14G31G15G 9G25G23G11G18
  22516555.422   -14579865.31449 -11014612.85046  22516555.023    22516561.694
  20203774.041   -26661980.79049 -19244730.42848  20203773.479    20203776.383
  22470336.011   -12112684.97349  -9425349.90746  22470335.421    22470341.307
  21658431.904   -21490274.19649 -16471192.50447  21658431.130    21658436.920
  23992505.835    -7718683.20249  -6004486.39045  23992505.604    23992512.642
  24138702.155    -7794375.77349  -5805890.43645  24138701.845    24138714.086
  23357583.526   -10314047.77749  -8014438.37146  23357582.942    23357589.285
  24589350.352    -5258911.50349  -4054964.82145  24589350.268    24589356.678
  22592172.303   -16160509.87149 -12569747.78646  22592171.805    22592176.430
 03  4  3  1 47  0.0000000  0  9G 3G14G31G15G 9G25G23G11G18
  22528695.105   -14516070.76149 -10964902.85046  22528694.719    22528701.474
  20203855.564   -26661552.29749 -19244396.51148  20203854.992    20203857.875
  22474826.114   -12089088.75449  -9406963.22546  22474825.552    22474831.565
  21673142.093   -21412971.99149 -16410957.05047  21673141.296    21673147.045
  24003327.708    -7661813.96849  -5960172.68645  24003327.422    24003334.435
  24119946.451    -7892934.64349  -5882689.03245  24119946.240    24119958.432
  23368578.119   -10256271.23349  -7969417.69046  23368577.471    23368583.764
  24570312.854    -5358954.39449  -4132920.18345  24570312.647    24570319.174
  22604190.529   -16097354.17449 -12520535.55746  22604190.015    22604194.592
 03  4  3  1 47 30.0000000  0  9G 3G14G31G15G 9G25G23G11G18
  22540900.929   -14451928.93549 -10914922.24746  22540900.569    22540907.329
  20204034.587   -26660611.28049 -19243663.22148  20204034.048    20204036.911
  22479417.139   -12064962.65349  -9388163.65046  22479416.614    22479422.607
  21687922.383   -21335301.26849 -16350434.43847  21687921.574    21687927.316
  24014249.529    -7604418.12149  -5915448.59945  24014249.242    24014256.481
  24101190.768    -7991493.40849  -5959487.55245  24101190.653    24101202.799
  23379580.768   -10198451.52949  -7924363.38046  23379580.133    23379586.450
  24551287.921    -5458930.16949  -4210823.25345  24551287.757    24551294.183
  22616227.557   -16034099.15749 -12471245.93946  22616227.042    22616231.667
 03  4  3  1 48  0.0000000  0  9G 3G14G31G15G 9G25G23G11G18
  22553171.827   -14387445.12049 -10864675.15546  22553171.454    22553178.220
  20204310.515   -26659160.98449 -19242533.10148  20204309.977    20204312.832
  22484108.318   -12040310.59149  -9368954.25246  22484107.776    22484113.709
  21702772.072   -21257265.67849 -16289627.51347  21702771.284    21702777.005
  24025271.025    -7546499.68749  -5870317.34545  24025270.761    24025277.998
  24082435.245    -8090051.82249  -6036285.81145  24082435.158    24082447.217
  23390591.254   -10140590.97249  -7879277.24846  23390590.651    23390597.039
  24532275.827    -5558839.14049  -4288674.24545  24532275.579    24532281.985
  22628282.939   -15970747.60249 -12421881.10046  22628282.466    22628287.052
 03  4  3  1 48 30.0000000  0  9G 3G14G31G15G 9G25G23G11G18
  22565507.607   -14322620.81149 -10814162.74846  22565507.164    22565513.905
  20204683.324   -26657201.80949 -19241006.44248  20204682.789    20204685.645
  22488899.307   -12015133.35649  -9349335.61446  22488898.780    22488904.733
  21717691.160   -21178865.49949 -16228536.49347  21717690.356    21717696.102
  24036391.823    -7488059.51149  -5824779.52745  24036391.522    24036398.821
  24063680.477    -8188606.36449  -6113081.05145  24063680.391    24063692.381
  23401609.726   -10082688.54049  -7834158.46246  23401609.093    23401615.458
  24513277.011    -5658678.61049  -4366471.08745  24513276.841    24513283.114
  22640356.880   -15907298.83049 -12372440.50446  22640356.367    22640360.982
 03  4  3  1 49  0.0000000  0  9G 3G14G31G15G 9G25G23G11G18
  22577907.200   -14257460.49149 -10763388.50946  22577906.780    22577913.535
  20205152.408   -26654736.49049 -19239085.38648  20205151.874    20205154.746
  22493789.704   -11989434.10849  -9329310.21546  22493789.184    22493795.122
  21732679.103   -21100103.43749 -16167163.48747  21732678.310    21732684.058
  24047611.410    -7429100.86049  -5778837.68945  24047611.205    24047618.469
  24044926.682    -8287156.09749  -6189872.55645  24044926.604    24044938.504
  23412635.834   -10024745.73949  -7789008.21746  23412635.250    23412641.542
  24494291.554    -5758448.19949  -4444213.49145  24494291.315    24494297.500
  22652448.983   -15843754.75649 -12322925.62746  22652448.456    22652452.968
 03  4  3  1 49 30.0000000  0  9G 3G14G31G15G 9G25G23G11G18
  22590370.795   -14191964.17549 -10712352.44946  22590370.382    22590377.160
  20205718.219   -26651763.15049 -19236768.47248  20205717.683    20205720.552
  22498779.634   -11963211.70649  -9308877.16946  22498779.129    22498785.099
  21747736.210   -21020978.01849 -16105507.34947  21747735.406    21747741.147
  24058929.541    -7369623.05849  -5732491.33945  24058929.321    24058936.714
  24026174.775    -8385695.73449  -6266656.19345  24026174.736    24026186.545
  23423670.187    -9966759.60449  -7743824.21146  23423669.601    23423675.960
  24475320.228    -5858143.25949  -4521897.79745  24475319.779    24475325.916
  22664559.670   -15780112.63849 -12273334.36246  22664559.152    22664563.654
 03  4  3  1 50  0.0000000  0  9G 3G14G31G15G 9G25G23G11G18
  22602897.570   -14126135.33749 -10661057.28146  22602897.190    22602903.985
  20206380.314   -26648283.69849 -19234057.18348  20206379.774    20206382.620
  22503868.725   -11936468.69949  -9288038.45446  22503868.166    22503874.090
  21762862.121   -20941491.11849 -16043569.52847  21762861.315    21762867.046
  24070346.068    -7309628.82449  -5685742.54945  24070345.907    24070353.145
  24007425.154    -8484223.30249  -6343430.43345  24007425.176    24007436.865
  23434712.716    -9908730.88349  -7698607.02246  23434712.156    23434718.477
  24456363.278    -5957762.64449  -4599523.15745  24456362.792    24456368.907
  22676688.797   -15716373.34249 -12223667.37346  22676688.315    22676692.784
 03  4  3  1 50 30.0000000  0  9G 3G14G31G15G 9G25G23G11G18
  22615487.137   -14059976.98949 -10609505.35046  22615486.744    22615493.527
  20207138.503   -26644299.24949 -19230952.38748  20207137.959    20207140.788
  22509056.439   -11909206.91649  -9266795.49546  22509055.915    22509061.842
  21778056.472   -20861644.25449 -15981351.22147  21778055.686    21778061.423
  24081860.413    -7249120.43549  -5638593.11145  24081860.265    24081867.501
  23988678.409    -8582736.12849  -6420193.17945  23988678.404    23988689.990
  23445763.306    -9850659.69749  -7653356.75346  23445762.756    23445769.092
  24437421.134    -6057304.49849  -4677088.12045  24437420.476    24437426.618
  22688836.367   -15652537.62149 -12173925.24746  22688835.876    22688840.294
 03  4  3  1 51  0.0000000  0  9G 3G14G31G15G 9G25G23G11G18
  22628138.589   -13993493.25649 -10557699.88146  22628138.186    22628144.976
  20207992.272   -26639812.48749 -19227456.17948  20207991.758    20207994.573
  22514342.335   -11881429.37249  -9245150.64446  22514341.796    22514347.674
  21793318.885   -20781439.88349 -15918854.33547  21793318.100    21793323.796
  24093472.171    -7188100.83249  -5591045.34645  24093471.937    24093479.072
  23969934.712    -8681233.19949  -6496943.66345  23969934.690    23969946.146
  23456821.797    -9792547.18049  -7608074.26846  23456821.271    23456827.542
  24418493.600    -6156768.32449  -4754592.28545  24418492.969    24418499.134
  22701002.084   -15588606.69749 -12124108.94246  22701001.524    22701005.924
 03  4  3  1 51 30.0000000  0  9G 3G14G31G15G 9G25G23G11G18
  22640851.713   -13926685.36049 -10505641.80646  22640851.275    22640858.108
  20208941.715   -26634822.74049 -19223568.03248  20208941.211    20208944.038
  22519726.370   -11853136.04649  -9223103.89346  22519725.828    22519731.708
  21808649.349   -20700877.66749 -15856078.60547  21808648.587    21808654.265
  24105181.103    -7126570.26449  -5543099.43345  24105180.791    24105188.089
  23951194.787    -8779710.15249  -6573678.46945  23951194.764    23951206.095
  23467888.452    -9734391.56849  -7562758.19946  23467887.899    23467894.174
  24399581.562    -6256150.56749  -4832032.87345  24399581.112    24399587.111
  22713186.137   -15524578.90449 -12074217.15346  22713185.569    22713189.974
 03  4  3  1 52  0.0000000  0  9G 3G14G31G15G 9G25G23G11G18
  22653626.322   -13859554.26549 -10453331.88546  22653625.901    22653632.783
  20209987.055   -26629329.45349 -19219287.51248  20209986.528    20209989.350
  22525208.582   -11824326.91749  -9200655.21146  22525208.053    22525213.917
  21824048.089   -20619957.07149 -15793023.62147  21824047.326    21824052.981
  24116987.092    -7064528.94249  -5494755.50645  24116986.837    24116993.917
  23932459.638    -8878162.56049  -6650394.16145  23932459.484    23932470.714
  23478963.742    -9676190.84649  -7517406.99246  23478963.142    23478969.430
  24380685.863    -6355447.15349  -4909406.72345  24380685.573    24380691.512
  22725388.870   -15460453.16449 -12024249.03646  22725388.321    22725392.713
 03  4  3  1 52 30.0000000  0  9G 3G14G31G15G 9G25G23G11G18
  22666461.235   -13792106.53849 -10400775.23946  22666460.835    22666467.715
  20211127.291   -26623337.34849 -19214618.30148  20211126.758    20211129.576
  22530787.908   -11795007.29249  -9177808.73146  22530787.351    22530793.242
  21839514.022   -20538682.93749 -15729693.14647  21839513.270    21839518.928
  24128889.223    -7001982.49849  -5446017.99445  24128888.868    24128895.912
  23913728.861    -8976591.27649  -6727091.40445  23913728.771    23913739.834
  23490046.905    -9617948.40249  -7472023.26746  23490046.338    23490052.638
  24361806.234    -6454659.80649  -4986715.18845  24361805.973    24361811.865
  22737609.589   -15396232.93149 -11974207.29146  22737609.051    22737613.379
 03  4  3  1 53  0.0000000  0  9G 3G14G31G15G 9G25G23G11G18
  22679355.945   -13724344.43149 -10347973.62446  22679355.528    22679362.430
  20212362.324   -26616847.06849 -19209560.89748  20212361.783    20212364.605
  22536464.039   -11765178.56949  -9154565.55246  22536463.531    22536469.427
  21855047.133   -20457055.86949 -15666087.65647  21855046.406    21855052.057
  24140887.246    -6938932.38449  -5396888.00645  24140886.912    24140893.854
  23895003.204    -9074993.20449  -6803767.78945  23895003.104    23895014.060
  23501138.215    -9559663.71049  -7426606.61646  23501137.561    23501143.936
  24342943.050    -6553786.09549  -5063956.37145  24342942.682    24342948.507
  22749848.344   -15331917.75049 -11924091.56046  22749847.808    22749852.160
 03  4  3  1 53 30.0000000  0  9G 3G14G31G15G 9G25G23G11G18
  22692310.201   -13656269.48049 -10294928.22646  22692309.741    22692316.695
  20213692.151   -26609858.44649 -19204115.17948  20213691.623    20213694.438
  22542237.023   -11734841.21549  -9130926.04446  22542236.514    22542242.448
  21870647.509   -20375075.81849 -15602207.12547  21870646.746    21870652.390
  24152980.848    -6875379.59449  -5347366.31545  24152980.569    24152987.501
  23876283.346    -9173364.47949  -6880420.29345  23876283.284    23876294.083
  23512237.627    -9501335.30149  -7381155.91046  23512237.057    23512243.470
  24324096.924    -6652822.75249  -5141127.69345  24324096.629    24324102.253
  22762105.264   -15267506.94449 -11873901.31946  22762104.713    22762109.092
 03  4  3  1 54  0.0000000  0  9G 3G14G31G15G 9G25G23G11G18
  22705323.873   -13587882.05649 -10241639.34346  22705323.472    22705330.393
  20215117.048   -26602370.41649 -19198280.31148  20215116.546    20215119.347
  22548106.941   -11703994.66949  -9106889.76846  22548106.421    22548112.308
  21886315.171   -20292741.78149 -15538050.74847  21886314.400    21886320.051
  24165170.374    -6811323.42549  -5297452.39245  24165170.051    24165177.150
  23857570.218    -9271700.11249  -6957045.04545  23857570.269    23857580.987
  23523345.885    -9442960.54149  -7335669.08446  23523345.347    23523351.797
  24305268.841    -6751765.45549  -5218225.83345  24305268.463    24305273.961
  22774380.820   -15202998.23349 -11823634.77846  22774380.275    22774384.724
 03  4  3  1 54 30.0000000  0  9G 3G14G31G15G 9G25G23G11G18
  22718395.578   -13519190.13849 -10188113.19446  22718395.122    22718402.055
  20216635.712   -26594389.49549 -19192061.36948  20216635.215    20216638.009
  22554072.372   -11672645.85449  -9082462.11146  22554071.851    22554077.719
  21902048.995   -20210060.20849 -15473623.56947  21902048.207    21902053.896
  24177454.204    -6746771.22549  -5247151.94645  24177453.907    24177460.936
  23838863.551    -9370002.40249  -7033643.83245  23838863.639    23838874.189
  23534462.189    -9384544.50449  -7290150.10146  23534461.622    23534467.939
  24286457.842    -6850617.19349  -5295253.07045  24286457.545    24286462.982
  22786674.114   -15138396.66949 -11773295.90346  22786673.584    22786677.989
 03  4  3  1 55  0.0000000  0  9G 3G14G31G15G 9G25G23G11G18
  22731525.228   -13450193.27849 -10134349.43046  22731524.793    22731531.785
  20218248.668   -26585913.32449 -19185456.51648  20218248.148    20218250.928
  22560133.732   -11640793.22949  -9057641.87146  22560133.175    22560139.066
  21917849.263   -20127029.12249 -15408924.03747  21917848.509    21917854.211
  24189832.786    -6681721.60949  -5196463.91845  24189832.457    24189839.418
  23820164.421    -9468265.24249  -7110211.86845  23820164.573    23820174.863
  23545586.890    -9326083.53449  -7244596.10646  23545586.309    23545592.622
  24267665.270    -6949372.53149  -5372205.19745  24267664.916    24267670.304
  22798985.671   -15073699.05849 -11722882.17446  22798985.081    22798989.493
 03  4  3  1 55 30.0000000  0  9G 3G14G31G15G 9G25G23G11G18
  22744712.503   -13380893.71649 -10080349.79946  22744712.074    22744719.033
  20219955.646   -26576942.91349 -19178466.54948  20219955.126    20219957.909
  22566290.699   -11608438.25749  -9032430.20146  22566290.183    22566296.075
  21933715.992   -20043649.28649 -15343952.75447  21933715.175    21933720.848
  24202305.805    -6616176.10549  -5145389.47045  24202305.413    24202312.325
  23801473.483    -9566485.37849  -7186746.64845  23801473.663    23801483.700
  23556720.250    -9267577.08749  -7199006.65746  23556719.652    23556726.025
  24248891.494    -7048028.98549  -5449080.26745  24248891.102    24248896.619
  22811315.464   -15008905.13949 -11672393.40446  22811314.925    22811319.337
 03  4  3  1 56  0.0000000  0  9G 3G14G31G15G 9G25G23G11G18
  22757956.454   -13311296.54449 -10026118.26146  22757956.014    22757962.939
  20221756.081   -26567481.37549 -19171093.87948  20221755.560    20221758.339
  22572542.434   -11575584.79849  -9006830.10046  22572541.954    22572547.822
  21949648.428   -19959923.83549 -15278712.15647  21949647.635    21949653.295
  24214872.239    -6550138.96349  -5093931.92145  24214871.784    24214878.738
  23782790.884    -9664662.19749  -7263247.66345  23782790.907    23782800.807
  23567861.932    -9209026.99749  -7153383.22646  23567861.389    23567867.684
  24230136.398    -7146586.57949  -5525878.29945  24230136.097    24230141.692
  22823663.274   -14944016.80249 -11621831.04846  22823662.757    22823667.237
 03  4  3  1 56 30.0000000  0  9G 3G14G31G15G 9G25G23G11G18
  22771256.378   -13241404.95149  -9971657.30446  22771255.967    22771262.937
  20223649.720   -26557530.09749 -19163339.59548  20223649.199    20223651.983
  22578888.756   -11542235.11449  -8980843.32846  22578888.191    22578894.017
  21965646.323   -19875854.33349 -15213203.46447  21965645.530    21965651.252
  24227531.654    -6483612.54449  -5042093.12145  24227531.280    24227538.490
  23764116.798    -9762793.27449  -7339713.01045  23764116.865    23764126.695
  23579011.937    -9150433.33949  -7107725.83046  23579011.400    23579017.623
  24211400.472    -7245043.66749  -5602597.98745  24211400.146    24211405.766
  22836028.863   -14879034.97949 -11571195.85446  22836028.396    22836032.812
 03  4  3  1 57  0.0000000  0  9G 3G14G31G15G 9G25G23G11G18
  22784612.389   -13171218.80949  -9916966.83346  22784611.991    22784618.955
  20225636.782   -26547087.80249 -19155202.70548  20225636.253    20225639.042
  22585329.640   -11508388.24449  -8954469.13046  22585329.012    22585334.858
  21981710.000   -19791439.42549 -15147425.63647  21981709.169    21981714.892
  24240284.525    -6416596.20349  -4989872.60945  24240284.269    24240291.390
  23745452.527    -9860873.14649  -7416138.45245  23745452.606    23745462.244
  23590170.826    -9091793.13649  -7062032.17546  23590170.285    23590176.415
  24192684.665    -7343395.20249  -5679235.45045  24192684.384    24192690.076
  22848412.848   -14813956.77149 -11520485.54646  22848412.343    22848416.739
 03  4  3  1 57 30.0000000  0  9G 3G14G31G15G 9G25G23G11G18
  22798023.385   -13100743.43349  -9862050.97146  22798022.997    22798029.989
  20227716.523   -26536158.40349 -19146686.24948  20227716.024    20227718.798
  22591864.116   -11474048.82549  -8927711.12746  22591863.558    22591869.435
  21997838.501   -19706683.25249 -15081381.87447  21997837.714    21997843.499
  24253129.643    -6349094.76149  -4937274.04245  24253129.258    24253136.450
  23726798.121    -9958901.70749  -7492523.89945  23726798.070    23726807.689
  23601338.035    -9033108.78349  -7016304.10646  23601337.455    23601343.608
  24173988.897    -7441641.91249  -5755791.20845  24173988.476    24173994.205
  22860814.547   -14748785.02149 -11469702.34246  22860814.088    22860818.544
 03  4  3  1 58  0.0000000  0  9G 3G14G31G15G 9G25G23G11G18
  22811489.216   -13029980.18849  -9806910.80946  22811488.834    22811495.735
  20229889.061   -26524741.50349 -19137789.92748  20229888.560    20229891.340
  22598492.369   -11439217.15149  -8900569.55646  22598491.829    22598497.687
  22014032.057   -19621585.40549 -15015071.88047  22014031.283    22014037.095
  24266066.863    -6281108.72349  -4884297.87145  24266066.682    24266073.667
  23708154.259   -10056874.47549  -7568865.85145  23708154.137    23708163.666
  23612514.107    -8974378.36249  -6970540.15046  23612513.547    23612519.634
  24155313.756    -7539779.86249  -5832262.22845  24155313.335    24155319.025
  22873234.430   -14683518.06149 -11418844.97146  22873233.980    22873238.358
 03  4  3  1 58 30.0000000  0  9G 3G14G31G15G 9G25G23G11G18
  22825008.988   -12958933.57149  -9751549.83746  22825008.605    22825015.418
  20232153.801   -26512839.90349 -19128515.91648  20232153.312    20232156.095
  22605213.698   -11403896.59049  -8873047.02346  22605213.146    22605218.934
  22030290.158   -19536148.77549 -14948497.89547  22030289.348    22030295.168
  24279095.801    -6212641.49549  -4830946.77845  24279095.611    24279102.496
  23689521.220   -10154790.06449  -7645163.26845  23689521.117    23689530.606
  23623698.706    -8915603.09449  -6924741.25146  23623698.124    23623704.212
  24136659.478    -7637808.57449  -5908648.10245  24136659.009    24136664.794
  22885672.197   -14618157.46249 -11367914.63046  22885671.749    22885676.088
 03  4  3  1 59  0.0000000  0  9G 3G14G31G15G 9G25G23G11G18
  22838582.562   -12887603.83549  -9695968.24146  22838582.229    22838589.017
  20234511.053   -26500452.46049 -19118863.32448  20234510.550    20234513.319
  22612028.028   -11368086.61949  -8845143.13646  22612027.489    22612033.310
  22046612.807   -19450372.24449 -14881659.04747  22046612.058    22046617.921
  24292216.362    -6143692.73749  -4777220.46545  24292216.169    24292222.921
  23670900.031   -10252643.45249  -7721412.21545  23670899.908    23670909.282
  23634892.280    -8856780.23049  -6878905.25746  23634891.625    23634897.880
  24118026.722    -7735723.48749  -5984945.30945  24118026.269    24118032.189
  22898128.212   -14552701.06949 -11316909.63446  22898127.666    22898132.031
 03  4  3  1 59 30.0000000  0  9G 3G14G31G15G 9G25G23G11G18
  22852209.067   -12815995.95649  -9640169.91446  22852208.745    22852215.565
  20236960.041   -26487582.75849 -19108834.94948  20236959.554    20236962.320
  22618934.663   -11331791.52749  -8816861.21646  22618934.198    22618940.042
  22062999.580   -19364259.27449 -14814558.04647  22062998.804    22063004.676
  24305427.525    -6074266.94549  -4723122.42045  24305427.323    24305434.250
  23652290.717   -10350434.16749  -7797612.32245  23652290.661    23652299.922
  23646094.619    -8797911.66749  -6833033.66146  23646094.000    23646100.209
  24099415.700    -7833524.32849  -6061153.63545  24099415.282    24099421.227
  22910601.956   -14487150.80049 -11265831.49946  22910601.391    22910605.829
 03  4  3  2  0  0.0000000  0  9G 3G14G31G15G 9G25G23G11G18
  22865887.940   -12744113.40249  -9584157.56646  22865887.625    22865894.437
  20239500.436   -26474232.56949 -19098432.16948  20239499.966    20239502.724
  22625933.285   -11295013.64949  -8788203.11546  22625932.773    22625938.619
  22079450.002   -19277811.62049 -14747196.25146  22079449.235    22079455.157
  24318728.956    -6004366.56949  -4668654.64645  24318728.714    24318735.989
  23633693.782   -10448159.80349  -7873761.74245  23633693.735    23633702.914
  23657305.627    -8738997.64949  -6787126.62446  23657305.018    23657311.225
  24080826.668    -7931209.75649  -6137272.01645  24080826.360    24080832.209
  22923093.530   -14421507.34949 -11214680.75246  22923092.993    22923097.461
 03  4  3  2  0 30.0000000  0  9G 3G14G31G15G 9G25G23G11G18
  22879618.866   -12671957.23849  -9527932.00646  22879618.520    22879625.305
  20242132.399   -26460401.48649 -19087654.66648  20242131.924    20242134.672
  22633023.708   -11257753.22949  -8759169.00146  22633023.204    22633029.011
  22095964.197   -19191028.86249 -14679573.33046  22095963.442    22095969.360
  24332120.662    -5933992.37649  -4613817.54245  24332120.595    24332127.794
  23615110.205   -10545815.95149  -7949857.01946  23615110.080    23615119.165
  23668525.654    -8680036.11449  -6741182.55946  23668525.041    23668531.260
  24062260.406    -8028775.69749  -6213297.27145  24062260.124    24062266.009
  22935603.176   -14355769.00249 -11163456.07746  22935602.613    22935607.106
 03  4  3  2  1  0.0000000  0  9G 3G14G31G15G 9G25G23G11G18
  22893400.997   -12599531.71749  -9471496.56446  22893400.688    22893407.418
  20244855.379   -26446092.18049 -19076504.52548  20244854.869    20244857.619
  22640205.317   -11220013.81749  -8729761.64946  22640204.772    22640210.552
  22112541.708   -19103913.86949 -14611691.53146  22112540.926    22112546.861
  24345601.718    -5863147.63049  -4558613.85845  24345601.640    24345608.980
  23596540.046   -10643401.11849  -8025897.01646  23596539.886    23596548.997
  23679754.492    -8621028.26449  -6695202.41346  23679753.908    23679760.158
  24043717.032    -8126221.42649  -6289228.87045  24043716.731    24043722.611
  22948130.489   -14289937.26249 -11112158.61046  22948130.000    22948134.525
 03  4  3  2  1 30.0000000  0  9G 3G14G31G15G 9G25G23G11G18
  22907234.122   -12526838.15249  -9414852.25746  22907233.822    22907240.544
  20247669.316   -26431304.56849 -19064981.67748  20247668.801    20247671.570
  22647477.861   -11181795.85849  -8699981.40746  22647477.328    22647483.185
  22129182.388   -19016466.59349 -14543550.80446  22129181.586    22129187.487
  24359172.458    -5791833.18749  -4503044.13045  24359172.374    24359179.675
  23577984.270   -10740910.79349  -8101878.19346  23577984.172    23577993.076
  23690992.472    -8561972.11749  -6649184.63545  23690991.898    23690998.172
  24025197.088    -8223543.68349  -6365064.26045  24025196.863    24025202.691
  22960676.003   -14224010.40049 -11060787.02446  22960675.515    22960679.995
 03  4  3  2  2  0.0000000  0  8G 3G14G31G15G25G23G11G18
  22921117.576   -12453880.31649  -9358002.02146  22921117.290    22921124.040
  20250573.835   -26416041.00849 -19053087.95848  20250573.310    20250576.092
  22654840.898   -11143102.41249  -8669830.64446  22654840.440    22654846.292
  22145885.814   -18928689.48249 -14475153.06146  22145885.023    22145890.969
  23559443.150   -10838343.58449  -8177799.48446  23559442.988    23559451.757
  23702239.454    -8502868.61949  -6603129.95045  23702238.901    23702245.173
  24006700.990    -8320740.69749  -6440802.05445  24006700.777    24006706.562
  22973239.309   -14157989.82049 -11009342.42946  22973238.828    22973243.311
 03  4  3  2  2 30.0000000  0  8G 3G14G31G15G25G23G11G18
  22935050.980   -12380660.04949  -9300947.30046  22935050.665    22935057.457
  20253568.873   -26400301.82049 -19040823.62448  20253568.356    20253571.142
  22662294.326   -11103934.43949  -8639310.13346  22662293.850    22662299.704
  22162652.011   -18840582.68049 -14406498.42346  22162651.206    22162657.146
  23540917.385   -10935695.42549  -8253657.72846  23540917.233    23540925.974
  23713495.785    -8443716.27549  -6557037.19745  23713495.229    23713501.521
  23988229.328    -8417809.39049  -6516439.86045  23988229.135    23988234.805
  22985820.669   -14091874.29049 -10957823.83146  22985820.168    22985824.664
 03  4  3  2  3  0.0000000  0  8G 3G14G31G15G25G23G11G18
  22949033.145   -12307183.06749  -9243692.53646  22949032.835    22949039.706
  20256653.597   -26384091.35349 -19028192.05748  20256653.071    20256655.830
  22669837.177   -11064296.87249  -8608423.70146  22669836.609    22669842.420
  22179480.137   -18752150.51149 -14337590.25046  22179479.316    22179485.246
  23522407.036   -11032966.47249  -8329453.01646  23522406.878    23522415.562
  23724760.941    -8384517.60649  -6510908.36045  23724760.360    23724766.640
  23969781.944    -8514750.30649  -6591978.09745  23969781.805    23969787.409
  22998419.500   -14025666.61349 -10906233.42846  22998419.026    22998423.550
 03  4  3  2  3 30.0000000  0  8G 3G14G31G15G25G23G11G18
  22963064.058   -12233450.42649  -9186238.56446  22963063.673    22963070.550
  20259828.169   -26367408.89749 -19015192.70648  20259827.633    20259830.369
  22677469.242   -11024189.95549  -8577171.54046  22677468.675    22677474.518
  22196370.240   -18663392.51349 -14268428.17746  22196369.433    22196375.293
  23503912.999   -11130151.84549  -8405181.55746  23503912.811    23503921.447
  23736035.227    -8325270.54249  -6464741.79545  23736034.665    23736041.050
  23951359.655    -8611559.56949  -6667413.75345  23951359.489    23951365.099
  23011036.178   -13959365.09849 -10854569.90246  23011035.742    23011040.319
 03  4  3  2  4  0.0000000  0  8G 3G14G31G15G25G23G11G18
  22977143.182   -12159464.39349  -9128587.13346  22977142.775    22977149.578
  20263092.312   -26350255.55849 -19001826.43648  20263091.803    20263094.485
  22685190.365   -10983615.25449  -8545554.88146  22685189.780    22685195.624
  22213322.164   -18574309.69049 -14199013.00046  22213321.367    22213327.237
  23485435.833   -11227248.52849  -8480840.99446  23485435.642    23485444.196
  23747318.849    -8265974.30149  -6418536.93345  23747318.324    23747324.732
  23932963.055    -8708234.27849  -6742744.56145  23932962.825    23932968.309
  23023670.964   -13892969.07949 -10802832.74646  23023670.494    23023675.014
 03  4  3  2  4 30.0000000  0  8G 3G14G31G15G25G23G11G18
  22991269.727   -12085229.25549  -9070741.61146  22991269.305    22991276.131
  20266445.539   -26332634.26449 -18988095.52648  20266445.012    20266447.679
  22692999.748   -10942576.31849  -8513576.48446  22692999.214    22693005.082
  22230335.306   -18484904.76949 -14129346.83346  22230334.540    22230340.421
  23466975.878   -11324254.69649  -8556429.90846  23466975.701    23466984.171
  23758611.764    -8206629.73349  -6372294.40945  23758611.206    23758617.541
  23914591.922    -8804773.57549  -6817969.84545  23914591.853    23914597.245
  23036323.362   -13826480.06849 -10751023.13746  23036322.916    23036327.384
 03  4  3  2  5  0.0000000  0  8G 3G14G31G15G25G23G11G18
  23005442.885   -12010748.74749  -9012704.88846  23005442.484    23005449.367
  20269887.358   -26314547.10649 -18974001.60448  20269886.839    20269889.498
  22700896.887   -10901076.12549  -8481238.65546  22700896.397    22700902.311
  22247409.368   -18395180.16549 -14059431.55746  22247408.570    22247414.434
  23448533.613   -11421168.33549  -8631946.72746  23448533.438    23448541.765
  23769913.716    -8147237.51449  -6326014.74845  23769913.211    23769919.454
  23896246.990    -8901176.43049  -6893088.83245  23896246.893    23896252.203
  23048993.260   -13759899.01949 -10699141.80046  23048992.834    23048997.324
 03  4  3  2  5 30.0000000  0  8G 3G14G31G15G25G23G11G18
  23019662.903   -11936022.01749  -8954476.29446  23019662.509    23019669.442
  20273418.275   -26295991.90649 -18959542.97748  20273417.775    20273420.433
  22708882.190   -10859113.17049  -8448540.24446  22708881.718    22708887.597
  22264544.699   -18305133.29049 -13989265.16946  22264543.897    22264549.759
  23430110.165   -11517983.19149  -8707386.57746  23430110.003    23430118.183
  23781225.544    -8087793.47549  -6279694.72845  23781224.990    23781231.318
  23877929.326    -8997436.63049  -6968096.62345  23877929.094    23877934.416
  23061681.475   -13693222.34549 -10647185.95146  23061681.011    23061685.497
 03  4  3  2  6  0.0000000  0  8G 3G14G31G15G25G23G11G18
  23033928.458   -11861056.01649  -8896061.27746  23033928.073    23033935.034
  20277037.148   -26276974.46749 -18944724.16948  20277036.660    20277039.319
  22716954.396   -10816693.81849  -8415486.19646  22716953.890    22716959.728
  22281740.280   -18214769.99649 -13918852.21946  22281739.473    22281745.325
  23411705.249   -11614700.54149  -8782750.44646  23411705.094    23411713.202
  23792546.489    -8028301.53549  -6233337.35345  23792545.992    23792552.180
  23859638.195    -9093556.27649  -7042994.90545  23859637.987    23859643.302
  23074387.095   -13626453.99649 -10595158.68446  23074386.645    23074391.053
 03  4  3  2  6 30.0000000  0  8G 3G14G31G15G25G23G11G18
  23048239.344   -11785852.15449  -8837460.90646  23048238.907    23048245.848
  20280744.046   -26257494.39949 -18929544.86448  20280743.553    20280746.212
  22725113.314   -10773818.37549  -8382076.75346  22725112.792    22725118.644
  22298996.200   -18124089.79549 -13848192.33046  22298995.377    22299001.161
  23393319.807   -11711315.52649  -8858034.55246  23393319.622    23393327.606
  23803877.047    -7968759.59749  -6186941.04445  23803876.500    23803882.721
  23841374.694    -9189531.08649  -7117780.34445  23841374.470    23841379.683
  23087110.490   -13559592.21849 -10543058.59046  23087110.027    23087114.446
 03  4  3  2  7  0.0000000  0  8G 3G14G31G15G25G23G11G18
  23062594.917   -11710413.16549  -8778677.31346  23062594.498    23062601.456
  20284538.817   -26237552.80849 -18914005.93348  20284538.306    20284540.956
  22733358.610   -10730488.97549  -8348313.58246  22733358.054    22733363.932
  22316312.192   -18033094.16049 -13777286.64646  22316311.309    22316317.086
  23374954.296   -11807825.48549  -8933236.82146  23374954.226    23374962.039
  23815217.105    -7909167.12549  -6140505.34045  23815216.549    23815222.737
  23823139.319    -9285358.46949  -7192450.89145  23823138.935    23823144.165
  23099851.649   -13492636.75549 -10490885.51346  23099851.205    23099855.676
 03  4  3  2  7 30.0000000  0  8G 3G14G31G15G25G23G11G18
  23076994.669   -11634741.86449  -8719712.69846  23076994.309    23077001.261
  20288420.955   -26217151.98049 -18898109.15748  20288420.439    20288423.084
  22741689.822   -10686708.24649  -8314198.72946  22741689.266    22741695.129
  22333687.644   -17941785.02249 -13706136.68246  22333686.860    22333692.649
  23356609.334   -11904228.05949  -9008355.41146  23356609.216    23356616.899
  23826566.742    -7849524.31549  -6094030.41645  23826566.191    23826572.437
  23804932.147    -9381037.10449  -7267005.54645  23804931.799    23804936.997
  23112610.634   -13425588.25749 -10438639.93146  23112610.163    23112614.541
 03  4  3  2  8  0.0000000  0  8G 3G14G31G15G25G23G11G18
  23091438.063   -11558841.17149  -8660569.33446  23091437.700    23091444.721
  20292390.249   -26196292.96949 -18881855.34948  20292389.741    20292392.385
  22750106.546   -10642478.06549  -8279733.64646  22750105.979    22750111.843
  22351122.601   -17850163.57949 -13634743.36046  22351121.840    22351127.604
  23338285.509   -12000519.89549  -9083387.70146  23338285.302    23338292.882
  23837926.117    -7789830.52349  -6047515.77945  23837925.558    23837931.755
  23786753.915    -9476564.33149  -7341442.22645  23786753.513    23786758.666
  23125387.347   -13358446.18349 -10386321.43346  23125386.858    23125391.292
 03  4  3  2  8 30.0000000  0  8G 3G14G31G15G25G23G11G18
  23105924.518   -11482714.38549  -8601249.80546  23105924.152    23105931.215
  20296446.367   -26174977.79949 -18865246.09948  20296445.843    20296448.499
  22758608.294   -10597801.29749  -8244920.58546  22758607.734    22758613.531
  22368616.708   -17758231.63049 -13563108.09646  22368615.889    22368621.631
  23319983.144   -12096698.70349  -9158331.93646  23319982.872    23319990.373
  23849295.103    -7730085.74449  -6000961.39145  23849294.567    23849300.778
  23768604.685    -9571938.39649  -7415759.54845  23768604.308    23768609.455
  23138181.732   -13291210.98249 -10333930.37146  23138181.260    23138185.715
 03  4  3  2  9  0.0000000  0  8G 3G14G31G15G25G23G11G18
  23120453.507   -11406364.08749  -8541756.10546  23120453.174    23120460.237
  20300589.001   -26153207.96349 -18848282.56348  20300588.465    20300591.121
  22767194.597   -10552680.00149  -8209761.13546  22767194.020    22767199.784
  22386169.531   -17665990.64849 -13491232.02346  22386168.758    22386174.521
  23301702.930   -12192761.42249  -9233185.68446  23301702.527    23301709.974
  23860673.887    -7670289.36949  -5954366.79245  23860673.370    23860679.640
  23750485.134    -9667156.55449  -7489955.41045  23750484.761    23750489.875
  23150993.924   -13223882.53949 -10281466.63746  23150993.431    23150997.886
 03  4  3  2  9 30.0000000  0  8G 3G14G31G15G25G23G11G18
  23135024.520   -11329793.09949  -8482090.44446  23135024.166    23135031.301
  20304817.927   -26130984.74749 -18830965.74248  20304817.397    20304820.063
  22775865.077   -10507116.14449  -8174256.83246  22775864.477    22775870.308
  22403780.920   -17573442.21349 -13419116.38246  22403780.156    22403785.970
  23283445.289   -12288705.23749  -9307946.77446  23283444.797    23283452.191
  23872062.683    -7610440.91549  -5907731.63745  23872062.115    23872068.439
  23732395.813    -9762216.44549  -7564027.93745  23732395.435    23732400.475
  23163823.915   -13156460.69349 -10228930.13046  23163823.429    23163827.782
 03  4  3  2 10  0.0000000  0  8G 3G14G31G15G25G23G11G18
  23149636.643   -11253005.99949  -8422256.39146  23149636.370    23149643.494
  20309132.575   -26108310.98149 -18813297.84648  20309132.021    20309134.701
  22784619.087   -10461113.44249  -8138410.57446  22784618.527    22784624.363
  22421450.367   -17480588.90649 -13346763.18346  22421449.553    22421455.406
  23265210.468   -12384528.71049  -9382614.11146  23265209.931    23265217.216
  23883461.255    -7550541.52349  -5861056.75345  23883460.625    23883466.958
  23714336.721    -9857117.02349  -7637976.32045  23714336.317    23714341.426
  23176671.252   -13088946.76849 -10176321.87146  23176670.805    23176675.161
 03  4  3  2 10 30.0000000  0  8G 3G14G31G15G25G23G11G18
  23164289.654   -11176004.34849  -8362255.15346  23164289.346    23164296.476
  20313532.837   -26085187.23549 -18795279.31648  20313532.294    20313534.973
  22793456.394   -10414673.18549  -8102223.36946  22793455.829    22793461.635
  22439177.700   -17387431.12949 -13274172.72546  22439176.891    22439182.736
  23246999.288   -12480227.59049  -9457184.35546  23246998.798    23247005.913
  23894869.706    -7490589.50349  -5814340.89845  23894869.096    23894875.481
  23696308.550    -9951854.96049  -7711797.96745  23696308.207    23696313.278
  23189536.460   -13021339.65949 -10123640.99646  23189536.009    23189540.414
 03  4  3  2 11  0.0000000  0  8G 3G14G31G15G25G23G11G18
  23178982.878   -11098790.92549  -8302088.89846  23178982.574    23178989.710
  20318018.401   -26061615.07249 -18776911.37148  20318017.879    20318020.564
  22802376.524   -10367797.67549  -8065697.00746  22802375.984    22802381.720
  22456962.585   -17293970.64949 -13201346.41046  22456961.869    22456967.728
  23228812.380   -12575799.32749  -9531655.52946  23228811.899    23228818.906
  23906288.239    -7430584.64349  -5767583.83845  23906287.612    23906293.953
  23678311.825   -10046428.02849  -7785491.15545  23678311.486    23678316.421
  23202419.421   -12953639.07649 -10070887.28046  23202418.960    23202423.459
 03  4  3  2 11 30.0000000  0  8G 3G14G31G15G25G23G11G18
  23193716.183   -11021366.71349  -8241758.39146  23193715.964    23193723.077
  20322589.433   -26037594.04549 -18758193.66848  20322588.915    20322591.594
  22811379.392   -10320487.28849  -8028831.78546  22811378.861    22811384.528
  22474805.234   -17200207.02349 -13128283.87046  22474804.467    22474810.330
  23210650.549   -12671239.11649  -9606023.88846  23210650.062    23210656.987
  23917717.301    -7370524.63049  -5720783.81945  23917716.650    23917722.931
  23660347.219   -10140832.15749  -7859052.67946  23660346.893    23660351.939
  23215320.481   -12885843.31549 -10018059.41246  23215320.029    23215324.535
 03  4  3  2 12  0.0000000  0  8G 3G14G31G15G25G23G11G18
  23208488.059   -10943739.98249  -8181270.07746  23208487.868    23208495.014
  20327244.431   -26013131.47249 -18739131.89648  20327243.922    20327246.611
  22820463.476   -10272749.86849  -7991633.79346  22820462.972    22820468.652
  22492704.257   -17106147.26249 -13054990.58246  22492703.505    22492709.392
  23192513.145   -12766549.52849  -9680291.45146  23192512.818    23192519.724
  23929155.864    -7310414.66449  -5673944.87145  23929155.200    23929161.414
  23642414.142   -10235070.29649  -7932484.86546  23642413.888    23642418.920
  23228238.710   -12817957.80049  -9965161.58946  23228238.235    23228242.634
 03  4  3  2 12 30.0000000  0  8G 3G14G31G15G25G23G11G18
  23223298.874   -10865909.25649  -8120622.81946  23223298.605    23223305.734
  20331984.082   -25988224.31249 -18719723.70048  20331983.581    20331986.280
  22829629.311   -10224583.18849  -7954101.32646  22829628.777    22829634.484
  22510660.237   -17011788.23049 -12981464.09846  22510659.464    22510665.370
  23174402.013   -12861722.71749  -9754452.08646  23174401.736    23174408.584
  23940604.830    -7250249.63149  -5627063.01045  23940604.125    23940610.355
  23624513.922   -10329135.85449  -8005782.57646  23624513.750    23624518.669
  23241174.861   -12749977.70549  -9912190.08546  23241174.410    23241178.750
 03  4  3  2 13  0.0000000  0  8G 3G14G31G15G25G23G11G18
  23238147.513   -10787879.27249  -8059820.27846  23238147.245    23238154.363
  20336807.691   -25962875.92949 -18699971.69448  20336807.181    20336809.881
  22838876.019   -10175991.44849  -7916237.64446  22838875.515    22838881.177
  22528672.437   -16917133.42949 -12907707.14546  22528671.655    22528677.572
  23156317.216   -12956757.89749  -9828505.21146  23156316.856    23156323.673
  23952064.017    -7190031.05149  -5580139.41845  23952063.341    23952069.601
  23606646.644   -10423028.14649  -8078945.26946  23606646.469    23606651.486
  23254128.665   -12681904.96149  -9859146.37646  23254128.171    23254132.573
 03  4  3  2 13 30.0000000  0  8G 3G14G31G15G25G23G11G18
  23253033.968   -10709650.81149  -7998863.09546  23253033.660    23253040.741
  20341715.390   -25937085.88849 -18679875.54248  20341714.864    20341717.530
  22848203.544   -10126974.94949  -7878042.98246  22848203.019    22848208.710
  22546741.052   -16822181.99249 -12833719.04846  22546740.297    22546746.330
  23138259.557   -13051650.21549  -9902447.01946  23138259.217    23138265.969
  23963533.987    -7129756.36749  -5533172.10845  23963533.371    23963539.507
  23588813.301   -10516742.63749  -8151969.42746  23588813.065    23588818.109
  23267100.585   -12613737.41349  -9806028.79146  23267100.082    23267104.410
 03  4  3  2 14  0.0000000  0  8G 3G14G31G15G25G23G11G18
  23267956.767   -10631231.46949  -7937757.16546  23267956.419    23267963.456
  20346705.882   -25910860.54849 -18659440.19448  20346705.359    20346707.997
  22857610.566   -10077540.66049  -7839522.76146  22857610.056    22857615.763
  22564864.894   -16726940.45749 -12759504.90446  22564864.189    22564870.203
  23120228.732   -13146401.39549  -9976278.86046  23120228.389    23120235.139
  23975013.694    -7069429.91449  -5486164.45945  23975013.124    23975019.198
  23571013.313   -10610281.48549  -8224856.71645  23571013.028    23571018.118
  23280089.709   -12545479.62049  -9752840.88246  23280089.159    23280093.541
 03  4  3  2 14 30.0000000  0  8G 3G14G31G15G25G23G11G18
  23282916.217   -10552619.52549  -7876501.16346  23282915.823    23282922.875
  20351779.751   -25884197.04649 -18638663.42148  20351779.226    20351781.864
  22867097.408   -10027686.56349  -7800675.42546  22867096.908    22867102.687
  22583044.575   -16631406.16049 -12685062.63146  22583043.804    22583049.774
  23102226.041   -13241004.11149 -10049995.02546  23102225.793    23102232.524
  23986504.250    -7009046.80949  -5439112.68245  23986503.689    23986509.648
  23553248.128   -10703637.85749  -8297601.82145  23553247.886    23553252.915
  23293096.707   -12477127.07049  -9699579.15546  23293096.225    23293100.583
 03  4  3  2 15  0.0000000  0  8G 3G14G31G15G25G23G11G18
  23297911.256   -10473820.32749  -7815099.23846  23297910.872    23297917.928
  20356936.191   -25857099.62449 -18617548.52348  20356935.697    20356938.317
  22876663.199    -9977417.75749  -7761504.92446  22876662.726    22876668.507
  22601279.088   -16535583.25049 -12610395.45146  22601278.340    22601284.278
  23084251.710   -13335458.38449 -10123595.52946  23084251.476    23084258.238
  23998005.140    -6948609.20049  -5392018.43045  23998004.487    23998010.587
  23535517.502   -10796812.52949  -8370205.36145  23535517.241    23535522.190
  23306121.258   -12408682.47349  -9646245.70446  23306120.738    23306125.173
 03  4  3  2 15 30.0000000  0  8G 3G14G31G15G25G23G11G18
  23312941.506   -10394835.93749  -7753553.02046  23312941.066    23312948.189
  20362175.094   -25829569.09149 -18596096.14148  20362174.570    20362177.176
  22886307.697    -9926735.81349  -7722012.50846  22886307.200    22886312.959
  22619568.325   -16439472.35749 -12535503.88046  22619567.629    22619573.622
  23066306.313   -13429760.42349 -10197077.42946  23066306.179    23066312.904
  24009516.596    -6888115.94249  -5344880.81145  24009516.059    24009522.007
  23517822.135   -10889801.97749  -8442664.57046  23517821.811    23517826.761
  23319163.612   -12340144.77649  -9592839.68246  23319163.029    23319167.495
 03  4  3  2 16  0.0000000  0  8G 3G14G31G15G25G23G11G18
  23328006.288   -10315670.06749  -7691865.37646  23328005.868    23328013.012
  20367495.948   -25801607.71849 -18574308.03148  20367495.426    20367498.030
  22896030.202    -9875643.80249  -7682200.55346  22896029.698    22896035.471
  22637911.988   -16343075.82849 -12460389.72946  22637911.320    22637917.297
  23048390.543   -13523907.86149 -10270438.86246  23048390.362    23048396.997
  24021038.615    -6827567.27149  -5297700.01245  24021037.952    24021044.096
  23500162.298   -10982604.47349  -8514978.11746  23500162.067    23500166.919
  23332223.460   -12271514.54049  -9539361.56146  23332222.898    23332227.350
 03  4  3  2 16 30.0000000  0  8G 3G14G31G15G25G23G11G18
  23343105.465   -10236323.35349  -7630036.83046  23343105.085    23343112.196
  20372898.930   -25773214.88949 -18552183.72848  20372898.396    20372900.995
  22905830.719    -9824141.77049  -7642069.11246  22905830.204    22905835.978
  22656310.228   -16246392.87049 -12385052.40246  22656309.503    22656315.478
  23030505.100   -13617895.57449 -10343675.83146  23030504.924    23030511.512
  24032571.665    -6766960.31049  -5250473.80245  24032571.058    24032577.265
  23482539.014   -11075215.24749  -8587142.27946  23482538.737    23482543.533
  23345301.472   -12202789.19149  -9485809.33146  23345300.954    23345305.352
 03  4  3  2 17  0.0000000  0  8G 3G14G31G15G25G23G11G18
  23358237.808   -10156802.58149  -7568072.64646  23358237.409    23358244.559
  20378382.879   -25744396.31449 -18529727.66348  20378382.350    20378384.947
  22915708.061    -9772236.09449  -7601623.12646  22915707.545    22915713.289
  22674761.852   -16149429.01649 -12309496.17746  22674761.150    22674767.119
  23012649.869   -13711724.39749 -10416788.99046  23012649.754    23012656.237
  24044115.250    -6706298.48249  -5203204.83745  24044114.616    24044120.806
  23464951.775   -11167635.99749  -8659158.34546  23464951.542    23464956.383
  23358396.875   -12133972.64049  -9432186.02346  23358396.339    23358400.656
 03  4  3  2 17 30.0000000  0  8G 3G14G31G15G25G23G11G18
  23373403.106   -10077108.67949  -7505973.56346  23373402.750    23373409.907
  20383947.947   -25715151.52049 -18506939.48448  20383947.447    20383950.037
  22925662.134    -9719927.33649  -7560863.06746  22925661.585    22925667.262
  22693266.928   -16052184.11449 -12233720.95446  22693266.289    22693272.266
  22994825.863   -13805389.62349 -10489774.68446  22994825.724    22994832.091
  24055669.657    -6645579.51749  -5155891.32745  24055669.007    24055675.244
  23447401.771   -11259862.25149  -8731022.86146  23447401.442    23447406.231
  23371509.933   -12065063.05749  -9378490.23246  23371509.420    23371513.619
 03  4  3  2 18  0.0000000  0  8G 3G14G31G15G25G23G11G18
  23388600.740    -9997244.84649  -7443742.06046  23388600.408    23388607.508
  20389593.743   -25685482.63049 -18483820.83348  20389593.228    20389595.824
  22935692.330    -9667218.44749  -7519791.21546  22935691.801    22935697.419
  22711825.258   -15954659.99249 -12157728.15246  22711824.511    22711830.460
  22977033.454   -13898888.61549 -10562630.81546  22977033.271    22977039.590
  24067234.898    -6584803.40449  -5108533.30245  24067234.270    24067240.524
  23429889.058   -11351892.01649  -8802734.27446  23429888.685    23429893.403
  23384640.584   -11996060.53049  -9324722.01346  23384640.081    23384644.320
 03  4  3  2 18 30.0000000  0  8G 3G14G31G15G25G23G11G18
  23403830.304    -9917213.06549  -7381379.70346  23403829.975    23403837.072
  20395319.990   -25655390.64649 -18460372.50348  20395319.494    20395322.100
  22945798.290    -9614110.94749  -7478408.75646  22945797.765    22945803.452
  22730436.497   -15856857.38449 -12081518.35046  22730435.737    22730441.700
  22959273.419   -13992217.87749 -10635354.71646  22959273.186    22959279.447
  24078811.292    -6523968.84549  -5061129.74145  24078810.647    24078816.937
  23412414.336   -11443721.89149  -8874289.90946  23412413.963    23412418.628
  23397789.141   -11926964.09649  -9270880.62445  23397788.668    23397792.871
 03  4  3  2 19  0.0000000  0  8G 3G14G31G15G25G23G11G18
  23419091.034    -9837017.48149  -7318889.70646  23419090.740    23419097.805
  20401126.199   -25624878.59549 -18436596.84848  20401125.735    20401128.327
  22955979.473    -9560608.72549  -7436718.73346  22955978.936    22955984.601
  22749100.121   -15758779.33749 -12005093.92446  22749099.406    22749105.312
  22941545.924   -14085375.89849 -10707945.16346  22941545.659    22941551.898
  24090398.566    -6463076.80949  -5013681.39045  24090397.953    24090404.266
  23394977.860   -11535351.03149  -8945689.12146  23394977.454    23394982.080
  23410955.354   -11857774.92349  -9216966.96645  23410954.903    23410959.158
 03  4  3  2 19 30.0000000  0  8G 3G14G31G15G25G23G11G18
  23434382.590    -9756660.40149  -7256273.85546  23434382.235    23434389.367
  20407012.208   -25593947.54949 -18412494.70148  20407011.730    20407014.300
  22966235.404    -9506713.84449  -7394722.73746  22966234.826    22966240.519
  22767815.945   -15660426.89649 -11928455.68146  22767815.259    22767821.195
  22923851.715   -14178358.93649 -10780399.26046  22923851.428    22923857.549
  24101997.081    -6402126.14149  -4966187.34945  24101996.475    24102002.801
  23377580.107   -11626776.47349  -9016929.60746  23377579.718    23377584.284
  23424139.451   -11788492.45749  -9162980.61045  23424138.986    23424143.067
 03  4  3  2 20  0.0000000  0  8G 3G14G31G15G25G23G11G18
  23449704.164    -9676145.19249  -7193534.79946  23449703.808    23449711.040
  20412977.555   -25562599.47049 -18388067.59048  20412977.060    20412979.600
  22976565.451    -9452428.99049  -7352422.86246  22976564.875    22976570.580
  22786583.515   -15561802.18449 -11851605.29046  22786582.897    22786588.900
  22906191.188   -14271164.80849 -10852715.31046  22906190.925    22906196.960
  24113606.668    -6341116.89549  -4918647.64845  24113606.148    24113612.362
  23360221.547   -11717996.05249  -9088009.66946  23360221.185    23360225.666
  23437341.225   -11719116.91949  -9108921.72845  23437340.687    23437344.739
 03  4  3  2 20 30.0000000  0  8G 3G14G31G15G25G23G11G18
  23465055.086    -9595475.60649  -7130675.42646  23465054.761    23465062.002
  20419021.639   -25530837.50349 -18363317.97148  20419021.136    20419023.651
  22986968.964    -9397757.96049  -7309822.08046  22986968.393    22986974.105
  22805402.495   -15462907.93849 -11774544.85846  22805401.839    22805407.869
  22888564.826   -14363791.44149 -10924891.68146  22888564.497    22888570.483
  24125227.351    -6280049.74749  -4871062.84245  24125226.923    24125233.089
  23342902.393   -11809008.55249  -9158928.35146  23342902.026    23342906.463
  23450560.379   -11649649.37049  -9054791.13745  23450559.875    23450564.026
 03  4  3  2 21  0.0000000  0  8G 3G14G31G15G25G23G11G18
  23480435.457    -9514651.15149  -7067695.40446  23480435.173    23480442.429
  20425144.864   -25498659.66149 -18338244.29648  20425144.367    20425146.854
  22997446.204    -9342699.75649  -7266919.61646  22997445.699    22997451.343
  22824273.210   -15363742.34549 -11697272.98346  22824272.505    22824278.548
  22870973.620   -14456232.79249 -10996923.69546  22870973.365    22870979.247
  24136859.823    -6218920.74849  -4823429.84345  24136859.330    24136865.385
  23325623.662   -11899807.94949  -9229680.99446  23325623.376    23325627.771
  23463797.752   -11580086.19449  -9000586.05945  23463797.271    23463801.473
 03  4  3  2 21 30.0000000  0  8G 3G14G31G15G25G23G11G18
  23495843.806    -9433679.95849  -7004601.03246  23495843.496    23495850.804
  20431345.874   -25466073.04049 -18312852.09148  20431345.364    20431347.860
  23007995.740    -9287262.14549  -7223721.49446  23007995.146    23008000.818
  22843194.154   -15264312.44849 -11619795.16946  22843193.416    22843199.435
  22853417.235   -14548491.00349 -11068813.00046  22853417.069    22853422.828
  24148503.076    -6157734.53649  -4775752.24045  24148502.570    24148508.663
  23308385.045   -11990397.09849  -9300269.78046  23308384.682    23308389.086
  23477052.431   -11510432.42549  -8946310.38645  23477051.906    23477056.183
 03  4  3  2 22  0.0000000  0  8G 3G14G31G15G25G23G11G18
  23511280.137    -9352561.47249  -6941391.88746  23511279.849    23511287.201
  20437624.978   -25433075.92749 -18287140.02548  20437624.477    20437626.989
  23018617.421    -9231444.34349  -7180227.12646  23018616.863    23018622.625
  22862165.788   -15164616.56649 -11542110.08046  22862164.923    22862170.904
  22835897.041   -14640559.93049 -11140554.82846  22835896.798    22835902.435
  24160157.950    -6096487.33349  -4728027.13245  24160157.491    24160163.500
  23291187.566   -12080770.17749  -9370690.20246  23291187.147    23291191.509
  23490324.901   -11440684.82449  -8891961.60945  23490324.506    23490328.671
 03  4  3  2 22 30.0000000  0  8G 3G14G31G15G25G23G11G18
  23526743.663    -9271300.21049  -6878071.49446  23526743.385    23526750.811
  20443981.611   -25399671.41749 -18261110.50848  20443981.086    20443983.608
  23029310.749    -9175250.27349  -7136439.55046  23029310.281    23029316.031
  22881187.347   -15064657.54449 -11464219.95346  22881186.484    22881192.442
  22818413.093   -14732438.02049 -11212147.94346  22818412.772    22818418.417
  24171824.302    -6035180.23949  -4680255.36345  24171823.815    24171829.844
  23274031.295   -12170926.25549  -9440941.54846  23274030.884    23274035.255
  23503615.009   -11370844.57749  -8837540.61545  23503614.576    23503618.850
 03  4  3  2 23  0.0000000  0  8G 3G14G31G15G25G23G11G18
  23542234.240    -9189897.12449  -6814640.59146  23542233.970    23542241.375
  20450415.710   -25365859.71349 -18234763.70048  20450415.192    20450417.731
  23040075.582    -9118680.93049  -7092359.56546  23040075.118    23040080.844
  22900258.941   -14964435.50049 -11386124.87546  22900258.121    22900264.064
  22800966.257   -14824120.56349 -11283588.70446  22800965.990    22800971.595
  24183502.438    -5973811.08449  -4632435.23345  24183501.951    24183507.996
  23256917.125   -12260861.09049  -9511020.48546  23256916.702    23256921.119
  23516923.139   -11300909.71649  -8783045.91445  23516922.654    23516926.892
 03  4  3  2 23 30.0000000  0  8G 3G14G31G15G25G23G11G18
  23557750.934    -9108356.69949  -6751102.67946  23557750.689    23557758.056
  20456926.629   -25331644.53149 -18208102.49348  20456926.115    20456928.678
  23050910.998    -9061740.58449  -7047990.47646  23050910.487    23050916.243
  22919379.912   -14863954.01449 -11307827.64446  22919379.064    22919385.079
  22783556.809   -14915606.79749 -11354876.49946  22783556.572    22783562.166
  24195192.111    -5912381.15149  -4584567.71845  24195191.617    24195197.729
  23239845.223   -12350574.09849  -9580926.59246  23239844.830    23239849.126
  23530249.007   -11230882.04649  -8728478.87845  23530248.469    23530252.766
 03  4  3  2 24  0.0000000  0  8G 3G14G31G15G25G23G11G18
  23573293.038    -9026682.41749  -6687460.45146  23573292.719    23573300.220
  20463513.918   -25297027.75549 -18181128.35548  20463513.415    20463515.984
  23061816.341    -9004432.31549  -7003334.69046  23061815.827    23061821.694
  22938549.844   -14763215.22349 -11229329.90546  22938549.043    22938555.046
  22766185.226   -15006893.99649 -11426009.20746  22766185.039    22766190.577
  24206893.450    -5850890.31949  -4536652.75845  24206892.997    24206899.048
  23222815.897   -12440063.18249  -9650658.20446  23222815.480    23222819.772
  23543592.428   -11160761.50849  -8673839.46845  23543591.911    23543596.272
 03  4  3  2 24 30.0000000  0  8G 3G14G31G15G25G23G11G18
  23588860.237    -8944876.32849  -6623715.52346  23588859.902    23588867.532
  20470177.438   -25262010.55149 -18153842.20348  20470176.951    20470179.499
  23072791.413    -8946757.92549  -6958393.61746  23072790.929    23072796.825
  22957768.509   -14662220.16249 -11150632.46546  22957767.748    22957773.774
  22748852.316   -15097978.64849 -11496984.09546  22748852.078    22748857.555
  24218606.578    -5789337.52949  -4488689.53945  24218606.038    24218612.268
  23205829.747   -12529325.36249  -9720213.03746  23205829.369    23205833.576
  23556953.643   -11090547.36149  -8619127.12845  23556953.152    23556957.575
 03  4  3  2 25  0.0000000  0  8G 3G14G31G15G25G23G11G18
  23604451.880    -8862941.63749  -6559870.38746  23604451.598    23604459.290
  20476916.757   -25226595.14149 -18126245.75948  20476916.276    20476918.792
  23083835.581    -8888720.60549  -6913169.74946  23083835.103    23083840.951
  22977035.578   -14560970.79549 -11071736.88046  22977034.810    22977040.891
  22731558.360   -15188858.49249 -11567799.41246  22731558.120    22731563.520
  24230331.510    -5727722.65349  -4440677.93645  24230330.891    24230337.246
  23188887.192   -12618358.35849  -9789589.28646  23188886.858    23188891.028
  23570332.632   -11020240.01449  -8564342.16545  23570332.149    23570336.683
 03  4  3  2 25 30.0000000  0  8G 3G14G31G15G25G23G11G18
  23620067.658    -8780880.70249  -6495926.89246  23620067.407    23620074.996
  20483731.603   -25190782.90949 -18098340.10248  20483731.118    20483733.614
  23094948.437    -8830322.29149  -6867664.56446  23094947.930    23094953.788
  22996350.943   -14459468.13349 -10992643.91346  22996350.167    22996356.216
  22714303.991   -15279529.71949 -11638452.15946  22714303.775    22714309.164
  24242068.364    -5666044.73249  -4392617.19245  24242067.815    24242074.093
  23171988.835   -12707159.21349  -9858784.65946  23171988.536    23171992.741
  23583729.529   -10949838.94749  -8509484.18245  23583729.024    23583733.597
 03  4  3  2 26  0.0000000  0  8G 3G14G31G15G25G23G11G18
  23635706.991    -8698695.84849  -6431886.82446  23635706.791    23635714.291
  20490621.818   -25154574.81449 -18070125.98248  20490621.298    20490623.768
  23106129.576    -8771565.03449  -6821879.69646  23106129.050    23106134.947
  23015714.457   -14357713.52649 -10913354.65046  23015713.583    23015719.499
  22697089.939   -15369988.86149 -11708939.66246  22697089.792    22697095.176
  24253817.498    -5604302.51049  -4344506.34445  24253816.893    24253823.283
  23155135.297   -12795724.91849  -9927796.82646  23155134.924    23155139.106
  23597144.409   -10879343.21249  -8454552.42045  23597143.937    23597148.433
 03  4  3  2 26 30.0000000  0  8G 3G14G31G15G25G23G11G18
  23651368.421    -8616394.83849  -6367756.25946  23651368.119    23651375.705
  20497586.041   -25117977.61749 -18041608.66648  20497585.527    20497587.981
  23117377.543    -8712456.45449  -6775821.06346  23117377.003    23117382.995
  23035124.426   -14255713.78649 -10833874.34146  23035123.506    23035129.421
  22679915.895   -15460238.38049 -11779263.82246  22679915.721    22679921.127
  24265577.994    -5542500.53549  -4296348.94045  24265577.449    24265583.759
  23138326.043   -12884057.92349  -9996627.65646  23138325.631    23138329.852
  23610576.383   -10808757.65249  -8399550.66545  23610575.888    23610580.420
 03  4  3  2 27  0.0000000  0  8G 3G14G31G15G25G23G11G18
  23667052.784    -8533973.41749  -6303531.85546  23667052.520    23667060.123
  20504625.214   -25080986.21449 -18012784.17748  20504624.704    20504627.162
  23128693.198    -8652992.27449  -6729485.34246  23128692.709    23128698.709
  23054581.949   -14153463.61949 -10754198.91246  23054581.066    23054587.081
  22662783.520   -15550268.47049 -11849416.99446  22662783.422    22662788.796
  24277351.373    -5480631.32749  -4248139.14545  24277350.770    24277357.317
  23121562.831   -12972148.73049 -10065269.79246  23121562.456    23121566.622
  23624026.820   -10738075.08449  -8344473.30245  23624026.387    23624030.882
 03  4  3  2 27 30.0000000  0  8G 3G14G31G15G25G23G11G18
  23682758.442    -8451440.42449  -6239220.52046  23682758.058    23682765.791
  20511737.966   -25043608.30549 -17983658.51248  20511737.470    20511739.934
  23140074.883    -8593180.93749  -6682879.11346  23140074.430    23140080.372
  23074085.616   -14050970.61949 -10674334.24046  23074084.823    23074090.882
  22645692.511   -15640081.90849 -11919401.35546  22645692.373    22645697.747
  24289136.371    -5418700.50349  -4199881.34145  24289135.851    24289142.297
  23104845.075   -13060000.98149 -10133726.03446  23104844.659    23104848.794
  23637494.592   -10667301.30649  -8289324.89745  23637494.153    23637498.659
 03  4  3  2 28  0.0000000  0  8G 3G14G31G15G25G23G11G18
  23698485.382    -8368795.59849  -6174822.04846  23698484.900    23698492.637
  20518924.522   -25005842.57549 -17954230.65148  20518924.025    20518926.501
  23151522.721    -8533022.28849  -6636002.25646  23151522.245    23151528.173
  23093635.877   -13948233.36049 -10594279.26146  23093635.060    23093641.206
  22628643.939   -15729672.72249 -11989212.23146  22628643.726    22628649.055
  24300933.824    -5356704.43749  -4151572.71145  24300933.323    24300939.839
  23088173.716   -13147608.95849 -10201991.94846  23088173.311    23088177.462
  23650980.381   -10596433.31049  -8234103.06145  23650979.917    23650984.367
 03  4  3  2 28 30.0000000  0  8G 3G14G31G15G25G23G11G18
  23714232.935    -8286042.39149  -6110339.13446  23714232.458    23714240.103
  20526184.338   -24967691.78549 -17924502.74248  20526183.829    20526186.329
  23163035.954    -8472519.66849  -6588857.36746  23163035.484    23163041.432
  23113231.965   -13845254.64149 -10514036.12846  23113231.293    23113237.480
  22611638.028   -15819038.82049 -12058848.01046  22611637.819    22611643.161
  24312743.665    -5294643.57349  -4103213.55445  24312743.119    24312749.551
  23071549.141   -13234971.10849 -10270066.30446  23071548.809    23071552.925
  23664483.989   -10525471.47749  -8178808.11045  23664483.529    23664487.925
 03  4  3  2 29  0.0000000  0  8G 3G14G31G15G25G23G11G18
  23730000.353    -8203184.05649  -6045774.31146  23729999.963    23730007.552
  20533517.011   -24929158.03049 -17894476.42548  20533516.512    20533519.022
  23174614.119    -8411676.06849  -6541446.77546  23174613.659    23174619.655
  23132873.768   -13742036.56449 -10433606.49146  23132873.075    23132879.271
  22594675.274   -15908177.74049 -12128306.76246  22594675.112    22594680.469
  24324565.817    -5232517.56349  -4054803.66745  24324565.344    24324571.696
  23054971.807   -13322085.38149 -10337947.52246  23054971.455    23054975.548
  23678005.373   -10454415.89449  -8123440.11345  23678004.928    23678009.347
 03  4  3  2 29 30.0000000  0  8G 3G14G31G15G25G23G11G18
  23745787.235    -8120222.90549  -5981129.35145  23745786.934    23745794.612
  20540922.407   -24890242.44949 -17864152.57248  20540921.896    20540924.408
  23186256.840    -8350493.48949  -6493772.05646  23186256.309    23186262.311
  23152560.981   -13638580.11249 -10352991.10346  23152560.196    23152566.386
  22577756.569   -15997085.64649 -12197585.49746  22577756.385    22577761.702
  24336400.727    -5170325.25149  -4006342.09645  24336400.211    24336406.507
  23038442.342   -13408948.39649 -10405632.94446  23038441.899    23038446.008
  23691544.865   -10383265.97949  -8067998.60545  23691544.355    23691548.773
 03  4  3  2 30  0.0000000  0  8G 3G14G31G15G25G23G11G18
  23761592.965    -8037163.53149  -5916407.86445  23761592.652    23761600.416
  20548399.712   -24850948.84449 -17833534.15948  20548399.199    20548401.714
  23197963.085    -8288976.47649  -6445836.72846  23197962.605    23197968.600
  23172292.645   -13534888.73549 -10272192.64346  23172291.946    23172298.181
  22560881.920   -16085762.08049 -12266683.86646  22560881.707    22560887.002
  24348247.863    -5108067.99549  -3957829.91845  24348247.329    24348253.618
  23021960.709   -13495559.28449 -10473121.89946  23021960.299    23021964.444
  23705101.832   -10312023.31449  -8012484.82745  23705101.310    23705105.726
 03  4  3  2 30 30.0000000  0  8G 3G14G31G15G25G23G11G18
  23777416.845    -7954009.04749  -5851612.25645  23777416.517    23777424.316
  20555948.580   -24811279.25649 -17802622.77048  20555948.053    20555950.565
  23209732.386    -8227128.12449  -6397643.23346  23209731.976    23209737.908
  23192068.864   -13430964.81149 -10191212.98646  23192068.115    23192074.305
  22544051.796   -16174204.29049 -12335599.71746  22544051.648    22544056.909
  24360107.382    -5045745.85049  -3909267.18545  24360106.869    24360113.115
  23005527.495   -13581916.33149 -10540413.05146  23005527.115    23005531.229
  23718676.459   -10240688.14349  -7956898.96045  23718676.002    23718680.359
 03  4  3  2 31  0.0000000  0  8G 3G14G31G15G25G23G11G18
  23793259.129    -7870757.65449  -5786741.13745  23793258.810    23793266.578
  20563569.518   -24771230.91249 -17771416.25148  20563568.987    20563571.498
  23221565.130    -8164946.64549  -6349190.14246  23221564.696    23221570.617
  23211889.891   -13326805.61649 -10110049.99846  23211889.014    23211895.215
  22527267.671   -16262405.12549 -12404327.49146  22527267.507    22527272.709
  24371980.128    -4983353.66349  -3860649.86945  24371979.560    24371985.936
  22989143.982   -13668012.11549 -10607500.62246  22989143.567    22989147.735
  23732269.618   -10169255.73549  -7901237.35345  23732269.171    23732273.530
 03  4  3  2 31 30.0000000  0  8G 3G14G31G15G25G23G11G18
  23809117.974    -7787419.37949  -5721802.32145  23809117.620    23809125.433
  20571260.737   -24730812.95249 -17739921.71748  20571260.223    20571262.740
  23233459.493    -8102441.84249  -6300485.11646  23233459.001    23233464.947
  23231753.777   -13222419.96349 -10028710.54046  23231752.962    23231759.105
  22510528.660   -16350368.89749 -12472870.53646  22510528.475    22510533.642
  24383865.023    -4920898.18249  -3811983.24645  24383864.472    24383870.811
  22972809.222   -13753851.68849 -10674388.54646  22972808.846    22972812.954
  23745879.877   -10097733.28349  -7845505.54345  23745879.400    23745883.739
 03  4  3  2 32  0.0000000  0  8G 3G14G31G15G25G23G11G18
  23824993.838    -7703991.62249  -5656793.78245  23824993.470    23825001.377
  20579023.026   -24690021.80349 -17708136.38848  20579022.529    20579025.041
  23245415.808    -8039611.10649  -6251526.12446  23245415.314    23245421.274
  23251661.420   -13117804.20049  -9947191.77446  23251660.660    23251666.821
  22493836.361   -16438086.81249 -12541222.00346  22493836.201    22493841.340
  24395763.018    -4858373.46649  -3763262.66145  24395762.486    24395768.808
  22956524.724   -13839426.92049 -10741070.46346  22956524.379    22956528.491
  23759508.435   -10026114.86549  -7789698.96045  23759508.005    23759512.118
 03  4  3  2 32 30.0000000  0  8G 3G14G31G15G25G23G11G18
  23840885.607    -7620479.97249  -5591719.87745  23840885.258    23840893.158
  20586855.468   -24648861.96949 -17676063.77148  20586854.967    20586857.460
  23257433.153    -7976459.76249  -6202317.29846  23257432.684    23257438.554
  23271612.049   -13012962.96749  -9865497.32646  23271611.298    23271617.516
  22477190.805   -16525559.12149 -12609382.09846  22477190.655    22477195.728
  24407673.775    -4795781.70349  -3714489.84045  24407673.159    24407679.581
  22940290.531   -13924738.05049 -10807546.57446  22940290.098    22940294.242
  23773154.768    -9954403.09649  -7733819.64045  23773154.318    23773158.490
 03  4  3  2 33  0.0000000  0  8G 3G14G31G15G25G23G11G18
  23856792.974    -7536886.44949  -5526582.16845  23856792.726    23856800.487
  20594757.856   -24607334.67349 -17643704.82048  20594757.346    20594759.829
  23269511.065    -7912990.00249  -6152860.37146  23269510.593    23269516.438
  23291605.491   -12907897.44349  -9783628.10046  23291604.677    23291610.800
  22460592.712   -16612782.20249 -12677347.99046  22460592.565    22460597.564
  24419597.557    -4733121.76549  -3665663.88045  24419596.994    24419603.558
  22924107.177   -14009781.85749 -10873814.36946  22924106.761    22924110.916
  23786818.949    -9882597.25449  -7677867.01845  23786818.468    23786822.707
 03  4  3  2 33 30.0000000  0  8G 3G14G31G15G25G23G11G18
  23872715.460    -7453213.71049  -5461382.73145  23872715.132    23872722.935
  20602729.827   -24565441.53649 -17611060.79448  20602729.307    20602731.798
  23281649.052    -7849204.44349  -6103157.34046  23281648.630    23281654.446
  23311641.280   -12802609.13349  -9701585.27546  23311640.407    23311646.472
  22444042.656   -16699753.26149 -12745117.50546  22444042.423    22444047.356
  24431534.392    -4670392.99549  -3616784.30045  24431533.881    24431540.401
  22907975.079   -14094555.78749 -10939871.86146  22907974.719    22907978.901
  23800500.953    -9810697.21849  -7621840.99645  23800500.427    23800504.847
 03  4  3  2 34  0.0000000  0  8G 3G14G31G15G25G23G11G18
  23888652.360    -7369465.09149  -5396124.15345  23888652.120    23888659.868
  20610770.931   -24523185.13049 -17578133.70648  20610770.411    20610772.901
  23293846.491    -7785106.33349  -6053210.77346  23293846.116    23293851.977
  23331718.922   -12697100.79349  -9619370.99546  23331717.968    23331724.034
  22427540.915   -16786469.92949 -12812688.79746  22427540.667    22427545.585
  24443484.409    -4607595.52349  -3567851.18145  24443483.898    24443490.284
  22891894.768   -14179058.02849 -11005717.63846  22891894.401    22891898.548
  23814200.903    -9738703.19749  -7565741.73945  23814200.403    23814204.704
 03  4  3  2 34 30.0000000  0  8G 3G14G31G15G25G23G11G18
  23904603.289    -7285642.73449  -5330808.12945  23904603.048    23904610.810
  20618880.941   -24480566.75749 -17544924.56148  20618880.416    20618882.892
  23306103.105    -7720697.77349  -6003022.30646  23306102.681    23306108.514
  23351838.136   -12591373.20549  -9536985.87046  23351837.299    23351843.380
  22411088.276   -16872928.57149 -12880059.03146  22411087.997    22411092.914
  24455447.552    -4544728.21649  -3518863.66945  24455447.016    24455453.446
  22875866.725   -14263285.37049 -11071349.19746  22875866.437    22875870.536
  23827919.040    -9666614.24549  -7509568.51645  23827918.505    23827922.663
 03  4  3  2 35  0.0000000  0  8G 3G14G31G15G25G23G11G18
  23920567.445    -7201750.54849  -5265437.68345  23920567.176    23920575.137
  20627059.249   -24437589.39349 -17511435.68248  20627058.694    20627061.162
  23318417.929    -7655982.73449  -5952595.01546  23318417.496    23318423.330
  23371998.485   -12485429.42249  -9454432.28546  23371997.702    23372003.717
  22394684.977   -16959127.74649 -12947227.08746  22394684.693    22394689.595
  24467424.109    -4481791.72349  -3469822.20545  24467423.555    24467429.793
  22859891.297   -14347236.41249 -11136765.46546  22859891.037    22859895.086
  23841654.982    -9594431.49749  -7453322.19845  23841654.496    23841658.513
 03  4  3  2 35 30.0000000  0  8G 3G14G31G15G25G23G11G18
  23936544.344    -7117791.40049  -5200015.08045  23936544.105    23936552.074
  20635305.535   -24394254.66049 -17477668.33448  20635304.976    20635307.459
  23330790.574    -7590963.99249  -5901931.08846  23330790.140    23330796.040
  23392199.696   -12379271.18749  -9371711.59346  23392198.968    23392204.929
  22378331.655   -17045064.39949 -13014190.58446  22378331.364    22378336.230
  24479413.686    -4418785.47149  -3420726.41245  24479413.145    24479419.350
  22843968.893   -14430908.51049 -11201964.36546  22843968.670    22843972.686
  23855408.616    -9522154.85449  -7397002.71245  23855408.224    23855412.256
 03  4  3  2 36  0.0000000  0  8G 3G14G31G15G25G23G11G18
  23952533.449    -7033768.31549  -5134542.66545  23952533.256    23952541.185
  20643619.364   -24350564.97249 -17443624.40048  20643618.830    20643621.300
  23343220.424    -7525644.73949  -5851032.97446  23343219.955    23343225.909
  23412441.289   -12272901.04449  -9288825.77445  23412440.495    23412446.546
  22362028.692   -17130736.54049 -13080947.97146  22362028.400    22362033.254
  24491416.591    -4355709.53149  -3371576.32545  24491416.115    24491422.312
  22828100.051   -14514299.79749 -11266944.44646  22828099.725    22828103.699
  23869180.275    -9449784.42049  -7340610.13045  23869179.820    23869183.885
 03  4  3  2 36 30.0000000  0  8G 3G14G31G15G25G23G11G18
  23968534.519    -6949683.09649  -5069021.82245  23968534.349    23968542.208
  20652000.565   -24306521.09349 -17409304.47248  20652000.058    20652002.546
  23355707.112    -7460026.69949  -5799902.05746  23355706.661    23355712.587
  23432722.872   -12166319.67949  -9205775.37445  23432722.204    23432728.345
  22345776.846   -17216139.93949 -13147495.94747  22345776.571    22345781.429
  24503433.154    -4292562.21549  -3322370.59645  24503432.607    24503438.701
  22812285.222   -14597406.73049 -11331702.95346  22812284.904    22812288.845
  23882970.022    -9377319.01249  -7284143.59045  23882969.574    23882973.565
 03  4  3  2 37  0.0000000  0  8G 3G14G31G15G25G23G11G18
  23984546.688    -6865539.28849  -5003455.33045  23984546.364    23984554.395
  20660448.725   -24262125.73849 -17374710.67148  20660448.199    20660450.711
  23368250.072    -7394113.32949  -5748541.00846  23368249.618    23368255.491
  23453044.333   -12059529.65049  -9122562.38445  23453043.656    23453049.861
  22329576.537   -17301272.41349 -13213832.81847  22329576.306    22329581.120
  24515463.034    -4229343.77049  -3273109.46045  24515462.489    24515468.722
  22796524.818   -14680227.62649 -11396238.57246  22796524.465    22796528.414
  23896777.656    -9304759.21949  -7227603.46045  23896777.226    23896781.257
 03  4  3  2 37 30.0000000  0  8G 3G14G31G15G25G23G11G18
  24000569.516    -6781339.17449  -4937844.96445  24000569.221    24000577.358
  20668963.482   -24217380.32749 -17339844.09448  20668962.955    20668965.489
  23380848.672    -7327907.00049  -5696951.67246  23380848.196    23380854.155
  23473405.273   -11952532.37649  -9039187.90845  23473404.530    23473410.661
  22313428.420   -17386131.04749 -13279956.29547  22313428.146    22313432.935
  24527506.880    -4166053.24549  -3223792.12345  24527506.281    24527512.626
  22780819.453   -14762759.28049 -11460548.82246  22780819.127    22780823.014
  23910603.374    -9232104.50949  -7170989.36745  23910602.904    23910607.030
 03  4  3  2 38  0.0000000  0  8G 3G14G31G15G25G23G11G18
  24016602.012    -6697087.74649  -4872194.62045  24016601.713    24016609.975
  20677544.003   -24172289.17149 -17304708.10648  20677543.475    20677546.013
  23393502.143    -7261412.95049  -5645138.15046  23393501.655    23393507.480
  23493804.716   -11845332.24949  -8955655.35245  23493804.008    23493810.166
  22297332.418   -17470715.48649 -13345866.11847  22297332.198    22297336.921
  24539564.013    -4102692.71149  -3174420.26345  24539563.503    24539569.793
  22765169.084   -14845001.83649 -11524633.78346  22765168.752    22765172.633
  23924446.724    -9159356.99749  -7114302.96945  23924446.241    23924450.534
 03  4  3  2 38 30.0000000  0  8G 3G14G31G15G25G23G11G18
  24032644.234    -6612785.62549  -4806504.77145  24032643.996    24032652.213
  20686190.411   -24126851.90349 -17269302.42648  20686189.899    20686192.431
  23406210.281    -7194631.76349  -5593100.87246  23406209.738    23406215.613
  23514242.943   -11737928.56249  -8871964.18445  23514242.258    23514248.407
  22281289.566   -17555020.74649 -13411558.41147  22281289.384    22281294.028
  24551634.906    -4039259.29749  -3124991.60145  24551634.527    24551640.776
  22749574.606   -14926950.54749 -11588489.79746  22749574.367    22749578.161
  23938308.403    -9086514.22249  -7057542.36145  23938307.914    23938312.033
 03  4  3  2 39  0.0000000  0  8G 3G14G31G15G25G23G11G18
  24048695.559    -6528436.22749  -4740778.08045  24048695.274    24048703.398
  20694902.155   -24081071.11049 -17233629.06148  20694901.658    20694904.192
  23418972.239    -7127566.78149  -5540842.47146  23418971.773    23418977.636
  23534719.466   -11630324.14249  -8788116.61445  23534718.704    23534724.839
  22265300.284   -17639044.60249 -13477031.41647  22265300.064    22265304.660
  24563719.614    -3975753.18049  -3075506.29045  24563719.271    24563725.440
  22734036.558   -15008603.18649 -11652115.10646  22734036.334    22734040.032
  23952187.924    -9013576.58149  -7000707.83045  23952187.475    23952191.597
 03  4  3  2 39 30.0000000  0  8G 3G14G31G15G25G23G11G18
  24064755.422    -6444041.79249  -4675016.30145  24064755.127    24064763.292
  20703679.095   -24034948.00949 -17197688.97048  20703678.612    20703681.117
  23431787.797    -7060220.36849  -5488364.76046  23431787.341    23431793.205
  23555233.924   -11522520.42149  -8704113.72745  23555233.122    23555239.248
  22249365.132   -17722783.54649 -13542282.42447  22249364.965    22249369.551
  24575818.434    -3912173.29649  -3025963.49245  24575818.005    24575823.841
  22718555.421   -15089956.90049 -11715507.48346  22718555.122    22718558.835
  23966085.531    -8940543.63049  -6943799.01045  23966085.055    23966089.275
 03  4  3  2 40  0.0000000  0  8G 3G14G31G15G25G23G11G18
  24080822.864    -6359607.32549  -4609223.32345  24080822.523    24080830.736
  20712520.289   -23988487.05649 -17161485.60948  20712519.801    20712522.294
  23444656.049    -6992597.82249  -5435671.88046  23444655.592    23444661.332
  23575785.337   -11414521.38749  -8619958.63545  23575784.624    23575790.864
  22233484.282   -17806237.43649 -13607311.30647  22233484.119    22233488.635
  24587930.889    -3848521.67649  -2976364.77945  24587930.370    24587936.200
  22703131.073   -15171011.82249 -11778667.04146  22703130.830    22703134.459
  23980000.869    -8867417.44549  -6886817.52145  23980000.431    23980004.775
 03  4  3  2 40 30.0000000  0  8G 3G14G31G15G25G23G11G18
  24096897.973    -6275132.60049  -4543398.97745  24096897.664    24096905.842
  20721425.953   -23941687.31049 -17125018.26248  20721425.476    20721427.939
  23457576.707    -6924699.11849  -5382763.83246  23457576.248    23457581.959
  23596374.264   -11306326.28049  -8535650.78045  23596373.501    23596379.680
  22217658.797   -17889400.57949 -13672113.64047  22217658.655    22217663.089
  24600057.752    -3784795.07249  -2926707.65945  24600057.124    24600063.221
  22687764.573   -15251762.72249 -11841589.70846  22687764.318    22687767.944
  23993934.659    -8794195.02649  -6829761.08545  23993934.175    23993938.560
 03  4  3  2 41  0.0000000  0  8G 3G14G31G15G25G23G11G18
  24112979.482    -6190624.29249  -4477548.45745  24112979.162    24112987.394
  20730395.099   -23894554.26449 -17088291.19648  20730394.606    20730397.063
  23470548.770    -6856530.68649  -5329645.59646  23470548.247    23470554.067
  23616999.536   -11197940.47249  -8451194.30745  23616998.772    23617004.878
  22201888.479   -17972273.76949 -13736690.02747  22201888.343    22201892.714
  24612198.356    -3720996.63049  -2876994.56345  24612197.710    24612203.849
  22672455.818   -15332210.58649 -11904276.24946  22672455.536    22672459.085
  24007886.109    -8720879.86049  -6772632.34245  24007885.587    24007889.930
 03  4  3  2 41 30.0000000  0  8G 3G14G31G15G25G23G11G18
  24129067.270    -6106082.96949  -4411672.20945  24129066.914    24129075.253
  20739427.703   -23847087.37249 -17051303.99348  20739427.233    20739429.674
  23483571.971    -6788093.15349  -5276317.65946  23483571.461    23483577.349
  23637661.182   -11089363.72549  -8366589.07345  23637660.338    23637666.474
  22186174.237   -18054852.26649 -13801036.78247  22186174.092    22186178.399
  24624352.891    -3657123.53749  -2827223.28945  24624352.356    24624358.380
  22657205.620   -15412350.47049 -11966722.81846  22657205.333    22657208.834
  24021855.565    -8647469.69449  -6715429.62645  24021854.997    24021859.508
 03  4  3  2 42  0.0000000  0  8G 3G14G31G15G25G23G11G18
  24145160.861    -6021511.21549  -4345772.26845  24145160.593    24145168.831
  20748523.470   -23799288.87949 -17014058.39948  20748522.996    20748525.417
  23496645.991    -6719389.35949  -5222782.26846  23496645.421    23496651.242
  23658358.664   -10980597.91449  -8281836.50745  23658357.800    23658363.942
  22170516.617   -18137133.32249 -13865151.76547  22170516.421    22170520.734
  24636521.802    -3593175.35249  -2777393.49945  24636521.211    24636527.239
  22642014.542   -15492179.97149 -12028927.52746  22642014.219    22642017.681
  24035843.068    -8573964.40749  -6658152.73345  24035842.562    24035846.975
 03  4  3  2 42 30.0000000  0  8G 3G14G31G15G25G23G11G18
  24161260.033    -5936910.50949  -4279849.76145  24161259.598    24161267.899
  20757682.216   -23751159.18549 -16976554.73148  20757681.746    20757684.149
  23509770.330    -6650420.77449  -5169040.54346  23509769.755    23509775.494
  23679092.007   -10871643.70149  -8196937.14045  23679091.156    23679097.204
  22154916.385   -18219112.53649 -13929031.55047  22154916.211    22154920.481
  24648705.338    -3529150.27349  -2727503.80645  24648704.796    24648710.718
  22626883.156   -15571695.41949 -12090887.52946  22626882.825    22626886.313
  24049849.040    -8500362.38649  -6600800.48845  24049848.516    24049852.902
 03  4  3  2 43  0.0000000  0  8G 3G14G31G15G25G23G11G18
  24177362.970    -5852288.80749  -4213910.89145  24177362.620    24177370.964
  20766902.642   -23702705.58049 -16938798.65248  20766902.143    20766904.552
  23522943.326    -6581195.68149  -5115098.93146  23522942.796    23522948.645
  23699859.809   -10762508.32049  -8111896.58645  23699858.960    23699865.039
  22139373.047   -18300792.91949 -13992678.46647  22139372.831    22139377.110
  24660902.759    -3465053.06549  -2677557.87345  24660902.342    24660907.973
  22611811.009   -15650899.80049 -12152605.14146  22611810.649    22611814.127
  24063872.425    -8426668.79149  -6543376.89645  24063871.978    24063876.269
 03  4  3  2 43 30.0000000  0  8G 3G14G31G15G25G23G11G18
  24193470.690    -5767642.52549  -4147952.86245  24193470.379    24193478.735
  20776185.516   -23653923.75249 -16900786.82648  20776185.016    20776187.417
  23536165.854    -6511710.80449  -5060954.89446  23536165.292    23536171.265
  23720662.900   -10653187.63749  -8026711.66645  23720662.017    23720668.119
  22123888.266   -18382165.57849 -14056085.61047  22123888.011    22123892.296
  24673115.028    -3400877.13649  -2627550.61245  24673114.479    24673120.191
  22596799.718   -15729784.32549 -12214073.52146  22596799.321    22596802.818
  24077914.420    -8352877.26649  -6485876.98345  24077913.987    24077918.206
 03  4  3  2 44  0.0000000  0  8G 3G14G31G15G25G23G11G18
  24209581.891    -5682978.67949  -4081981.16045  24209581.505    24209589.922
  20785529.636   -23604819.97149 -16862524.12348  20785529.148    20785531.562
  23549436.547    -6441973.20549  -5006613.93946  23549435.975    23549441.941
  23741500.141   -10543687.52149  -7941386.91145  23741499.252    23741505.451
  22108461.746   -18463231.86549 -14119254.01847  22108461.521    22108465.744
  24685341.434    -3336626.32649  -2577484.99945  24685340.894    24685347.003
  22581848.952   -15808350.62549 -12275293.93646  22581848.611    22581852.085
  24091974.447    -8278991.98149  -6428304.00045  24091973.893    24091978.087
 03  4  3  2 44 30.0000000  0  8G 3G14G31G15G25G23G11G18
  24225695.956    -5598298.91449  -4015997.04545  24225695.699    24225704.080
  20794934.851   -23555395.08449 -16824011.20748  20794934.347    20794936.773
  23562754.983    -6371984.63249  -4952077.42946  23562754.394    23562760.397
  23762371.249   -10434008.94549  -7855923.09445  23762370.334    23762376.513
  22093094.245   -18543987.92449 -14182180.69547  22093094.040    22093098.235
  24697582.490    -3272299.16749  -2527359.91945  24697581.910    24697587.950
  22566959.423   -15886595.27649 -12336263.71746  22566959.079    22566962.514
  24106052.334    -8205011.76949  -6370657.06545  24106051.828    24106056.082
 03  4  3  2 45  0.0000000  0  8G 3G14G31G15G25G23G11G18
  24241812.579    -5513605.66649  -3950002.42545  24241812.313    24241820.694
  20804400.868   -23505650.75849 -16785249.37848  20804400.373    20804402.810
  23576120.643    -6301747.87049  -4897347.51746  23576120.002    23576126.018
  23783275.956   -10324153.72549  -7770321.63445  23783275.061    23783281.185
  22077786.333   -18624431.32749 -14244863.74547  22077786.097    22077790.248
  24709838.275    -3207894.99049  -2477174.82845  24709837.506    24709843.630
  22552131.635   -15964515.86449 -12396980.99146  22552131.255    22552134.647
  24120148.438    -8130936.30849  -6312935.92045  24120147.870    24120152.236
 03  4  3  2 45 30.0000000  0  8G 3G14G31G15G25G23G11G18
  24257931.124    -5428902.34149  -3883999.96045  24257930.874    24257939.211
  20813927.163   -23455589.53749 -16746240.62048  20813926.669    20813929.127
  23589532.729    -6231266.29749  -4842426.85246  23589532.207    23589538.228
  23804213.820   -10214124.37849  -7684584.49045  23804212.996    23804219.065
  22062538.324   -18704559.73849 -14307301.35947  22062538.083    22062542.201
  24722108.700    -3143413.85849  -2426929.75445  24722108.050    24722114.115
  22537365.905   -16042110.13849 -12457443.99146  22537365.507    22537368.835
  24134262.668    -8056765.89249  -6255140.78345  24134262.078    24134266.381
 03  4  3  2 46  0.0000000  0  8G 3G14G31G15G25G23G11G18
  24274050.667    -5344193.27349  -3817993.03145  24274050.475    24274058.773
  20823513.076   -23405214.96849 -16706987.69348  20823512.592    20823515.052
  23602990.712    -6160544.66549  -4787319.13846  23602990.229    23602996.112
  23825184.047   -10103924.64249  -7598714.58045  23825183.239    23825189.290
  22047350.399   -18784371.92049 -14369492.55147  22047350.207    22047354.314
  24734393.421    -3078857.08249  -2376625.75745  24734392.787    24734398.729
  22522662.317   -16119377.54149 -12517652.28446  22522661.926    22522665.277
  24148394.538    -7982502.24349  -6197272.99045  24148394.015    24148398.406
 03  4  3  2 46 30.0000000  0  8G 3G14G31G15G25G23G11G18
  24290172.023    -5259475.78949  -3751979.55145  24290171.824    24290180.248
  20833159.303   -23354523.75849 -16667488.02848  20833158.804    20833161.251
  23616494.713    -6089580.29949  -4732022.27246  23616494.262    23616500.286
  23846187.421    -9993550.85649  -7512709.03245  23846186.648    23846192.798
  22032224.244   -18863860.11049 -14431431.28747  22032224.049    22032228.135
  24746693.687    -3014218.65949  -2326258.14245  24746693.061    24746698.882
  22508022.453   -16196310.16749 -12577599.72246  22508022.091    22508025.368
  24162545.336    -7908139.69849  -6139328.13445  24162544.768    24162549.114
 03  4  3  2 47  0.0000000  0  8G 3G14G31G15G25G23G11G18
  24306293.113    -5174760.25749  -3685967.58845  24306292.693    24306301.146
  20842863.974   -23303525.21949 -16627748.89148  20842863.476    20842865.924
  23630043.030    -6018383.71049  -4676544.45446  23630042.502    23630048.610
  23867222.191    -9883012.67749  -7426575.40445  23867221.357    23867227.402
  22017158.751   -18943029.23649 -14493121.40847  22017158.529    22017162.629
  24759008.030    -2949505.77549  -2275832.47445  24759007.516    24759013.337
  22493445.352   -16272913.22849 -12637290.35046  22493444.982    22493448.293
  24176713.291    -7833685.57949  -6081311.92845  24176712.820    24176717.198
 03  4  3  2 47 30.0000000  0  8G 3G14G31G15G25G23G11G18
  24322414.260    -5090043.63949  -3619954.75545  24322413.854    24322422.383
  20852627.889   -23252215.61549 -16587767.36248  20852627.396    20852629.812
  23643636.069    -5946951.98149  -4620883.41146  23643635.542    23643641.696
  23888288.866    -9772306.19949  -7340310.63245  23888288.033    23888294.111
  22002155.582   -19021870.84049 -14554556.31547  22002155.375    22002159.470
  24771337.721    -2884712.26449  -2225344.02945  24771337.190    24771343.214
  22478932.400   -16349178.84249 -12696718.03346  22478932.059    22478935.334
  24190900.157    -7759133.88749  -6023219.68045  24190899.668    24190903.954
 03  4  3  2 48  0.0000000  0  7G 3G14G31G15G25G11G18
  24338534.302    -5005331.41049  -3553945.37845  24338534.033    24338542.566
  20862450.005   -23200600.12749 -16547547.48148  20862449.497    20862451.858
  23657272.717    -5875291.37849  -4565044.02846  23657272.171    23657278.290
  23909386.627    -9661436.80749  -7253918.91445  23909385.846    23909391.916
  21987214.613   -19100385.53949 -14615736.50347  21987214.448    21987218.472
  22464483.678   -16425107.23849 -12755882.96146  22464483.352    22464486.565
  24205104.695    -7684488.09249  -5965054.12145  24205104.185    24205108.535
 03  4  3  2 48 30.0000000  0  7G 3G14G31G15G25G11G18
  24354653.112    -4920627.34149  -3487942.33945  24354652.744    24354661.401
  20872329.819   -23148681.41449 -16507091.32048  20872329.307    20872331.655
  23670952.222    -5803405.47549  -4509029.08346  23670951.701    23670957.784
  23930514.981    -9550407.11849  -7167402.29445  23930514.219    23930520.152
  21972336.255   -19178571.53749 -14676660.55447  21972336.028    21972340.061
  22450099.348   -16500696.87649 -12814783.91046  22450099.060    22450102.246
  24219327.034    -7609748.88849  -5906815.77145  24219326.510    24219330.943
 03  4  3  2 49  0.0000000  0  7G 3G14G31G15G25G11G18
  24370770.478    -4835931.59949  -3421945.78545  24370769.996    24370778.552
  20882267.419   -23096458.97749 -16466398.48748  20882266.867    20882269.218
  23684674.396    -5731294.76549  -4452838.95846  23684673.902    23684679.957
  23951673.849    -9439216.73949  -7080760.45945  23951673.032    23951679.086
  21957521.289   -19256423.69249 -14737324.47647  21957521.175    21957525.187
  22435780.501   -16575942.90849 -12873417.11846  22435780.133    22435783.348
  24233567.661    -7534913.40749  -5848502.39345  24233567.160    24233571.565
 03  4  3  2 49 30.0000000  0  7G 3G14G31G15G25G11G18
  24386885.347    -4751248.19549  -3355958.85545  24386884.861    24386893.399
  20892262.168   -23043936.21549 -16425471.63648  20892261.628    20892263.964
  23698438.524    -5658963.66349  -4396477.10946  23698438.063    23698444.216
  23972862.565    -9327869.10649  -6993996.09145  23972861.683    23972867.966
  21942770.172   -19333940.96549 -14797727.45047  21942770.067    21942774.027
  22421527.204   -16650844.15149 -12931781.65046  22421526.830    22421530.043
  24247826.366    -7459982.86149  -5790114.94245  24247825.979    24247830.223
 03  4  3  2 50  0.0000000  0  7G 3G14G31G15G25G11G18
  24402997.422    -4666578.39849  -3289982.52545  24402997.097    24403005.640
  20902313.977   -22991113.48149 -16384311.04348  20902313.450    20902315.780
  23712244.382    -5586413.63949  -4339944.66046  23712243.905    23712250.059
  23994081.078    -9216364.78049  -6907109.61245  23994080.295    23994086.598
  21928083.506   -19411119.36149 -14857866.36447  21928083.404    21928087.324
  22407340.167   -16725397.24849 -12989874.90346  22407339.791    22407343.010
  24262103.608    -7384955.94949  -5731652.38145  24262103.155    24262107.446
 03  4  3  2 50 30.0000000  0  7G 3G14G31G15G25G11G18
  24419106.647    -4581924.72349  -3224018.75545  24419106.125    24419114.856
  20912422.503   -22937992.79449 -16342918.27548  20912421.972    20912424.314
  23726091.421    -5513647.51849  -4283243.82346  23726090.959    23726097.109
  24015328.902    -9104705.78149  -6820102.62645  24015328.245    24015334.675
  21913461.903   -19487956.22549 -14917739.14447  21913461.776    21913465.673
  22393219.827   -16799599.63649 -13047694.87146  22393219.457    22393222.676
  24276398.972    -7309832.43049  -5673114.57845  24276398.618    24276402.954
 03  4  3  2 51  0.0000000  0  7G 3G14G31G15G25G11G18
  24435211.824    -4497291.80949  -3158071.15745  24435211.186    24435220.186
  20922587.032   -22884577.75249 -16301296.14248  20922586.485    20922588.818
  23739978.647    -5440669.92449  -4226378.21346  23739978.145    23739984.372
  24036605.562    -8992895.90949  -6732978.06545  24036604.865    24036611.498
  21898905.446   -19564450.62749 -14977345.08347  21898905.323    21898909.198
  22379166.394   -16873450.55649 -13105240.97446  22379166.056    22379169.236
  24290712.703    -7234613.97449  -5614502.78945  24290712.230    24290716.713
 03  4  3  2 51 30.0000000  0  7G 3G14G31G15G25G11G18
  24451312.637    -4412681.60349  -3092141.28045  24451312.098    24451320.953
  20932807.311   -22830869.69749 -16259445.68448  20932806.779    20932809.123
  23753905.644    -5367483.27249  -4169349.68946  23753905.083    23753911.308
  24057910.773    -8880936.33949  -6645736.86245  24057910.035    24057916.698
  21884414.761   -19640599.21349 -15036681.54547  21884414.625    21884418.504
  22365180.442   -16946946.86749 -13162510.75046  22365180.128    22365183.243
  24305044.315    -7159299.80649  -5555816.41345  24305043.938    24305048.484
 03  4  3  2 52  0.0000000  0  7G 3G14G31G15G25G11G18
  24467408.918    -4328096.22649  -3026230.72745  24467408.425    24467417.067
  20943083.072   -22776870.19649 -16217368.13348  20943082.526    20943084.867
  23767871.923    -5294090.04449  -4112160.19046  23767871.385    23767877.594
  24079244.205    -8768828.67149  -6558380.25645  24079243.436    24079250.183
  21869990.388   -19716399.38649 -15095746.53047  21869990.231    21869994.092
  22351262.483   -17020085.75849 -13219502.02046  22351262.183    22351265.297
  24319394.336    -7083889.49649  -5497055.11245  24319393.905    24319398.302
 03  4  3  2 52 30.0000000  0  7G 3G14G31G15G25G11G18
  24483499.623    -4243539.71449  -2960342.67245  24483499.215    24483507.717
  20953413.586   -22722582.78549 -16175066.22848  20953413.054    20953415.398
  23781876.680    -5220494.70549  -4054813.20846  23781876.130    23781882.356
  24100605.086    -8656576.44349  -6470911.01545  24100604.339    24100611.083
  21855632.607   -19791850.16749 -15154539.24747  21855632.381    21855636.206
  22337412.680   -17092866.78549 -13276214.42346  22337412.371    22337415.472
  24333762.437    -7008384.16449  -5438219.74445  24333762.078    24333766.502
 03  4  3  2 53  0.0000000  0  7G 3G14G31G15G25G11G18
  24499584.350    -4159014.20749  -2894478.76645  24499583.981    24499592.600
  20963798.656   -22668008.73049 -16132540.97548  20963798.144    20963800.466
  23795919.420    -5146699.48849  -3997310.47046  23795918.938    23795925.145
  24121993.233    -8544181.03349  -6383330.18945  24121992.502    24121999.298
  21841341.825   -19866948.14049 -15213057.05447  21841341.614    21841345.432
  22323631.607   -17165286.39249 -13332645.20746  22323631.302    22323634.386
  24348148.827    -6932783.02649  -5379309.77145  24348148.367    24348152.884
 03  4  3  2 53 30.0000000  0  7G 3G14G31G15G25G11G18
  24515662.756    -4074521.90249  -2828640.76045  24515662.489    24515671.258
  20974238.014   -22613149.40949 -16089793.43448  20974237.498    20974239.820
  23809999.812    -5072706.87749  -3939653.92846  23809999.290    23810005.502
  24143408.278    -8431644.19349  -6295639.16745  24143407.617    24143414.339
  21827118.738   -19941690.70049 -15271297.91847  21827118.520    21827122.297
  22309919.849   -17237341.89249 -13388792.26847  22309919.534    22309922.611
  24362553.679    -6857085.97849  -5320325.02345  24362553.065    24362557.595
 03  4  3  2 54  0.0000000  0  7G 3G14G31G15G25G11G18
  24531734.454    -3990065.47249  -2762830.71945  24531734.104    24531742.966
  20984731.224   -22558007.03749 -16046825.33548  20984730.703    20984733.029
  23824117.129    -4998520.03449  -3881846.02446  23824116.637    23824122.757
  24164849.906    -8318967.91949  -6207839.49845  24164849.193    24164855.989
  21812963.792   -20016075.12649 -15329259.71647  21812963.560    21812967.293
  22296277.740   -17309031.08249 -13444653.89747  22296277.449    22296280.552
  24376976.498    -6781292.85049  -5261265.40245  24376976.091    24376980.650
 03  4  3  2 54 30.0000000  0  7G 3G14G31G15G25G11G18
  24547798.324    -3905650.08849  -2697052.63945  24547797.954    24547806.759
  20995277.447   -22502586.01349 -16003640.10348  20995276.942    20995279.271
  23838270.297    -4924144.53049  -3823891.12346  23838269.879    23838276.013
  24186317.261    -8206156.96049  -6119934.86645  24186316.461    24186323.131
  21798876.845   -20090101.85249 -15386942.79047  21798876.692    21798880.379
  22282705.362   -17380354.34149 -13500230.38247  22282705.024    22282708.129
  24391417.071    -6705406.38849  -5202133.10945  24391416.823    24391421.116
 03  4  3  2 55  0.0000000  0  7G 3G14G31G15G25G11G18
  24563854.123    -3821277.20649  -2631307.70545  24563853.708    24563862.596
  21005876.637   -22446886.89149 -15960238.17048  21005876.105    21005878.452
  23852459.037    -4849581.75349  -3765790.28945  23852458.646    23852464.844
  24207810.091    -8093211.78949  -6031925.65245  24207809.292    24207815.937
  21784858.977   -20163766.39249 -15444343.64347  21784858.756    21784862.405
  22269203.354   -17451307.81449 -13555518.73347  22269202.972    22269205.993
  24405876.010    -6629424.61349  -5142926.48845  24405875.694    24405879.778
 03  4  3  2 55 30.0000000  0  7G 3G14G31G15G25G11G18
  24579901.656    -3736946.67749  -2565595.76545  24579901.299    24579910.363
  21016528.868   -22390908.88749 -15916618.93048  21016528.350    21016530.719
  23866683.452    -4774832.02049  -3707543.75745  23866683.039    23866689.278
  24229328.533    -7980131.70949  -5943811.32745  24229327.745    24229334.264
  21770910.795   -20237064.02649 -15501458.59247  21770910.602    21770914.257
  22255772.637   -17521886.46449 -13610515.01547  22255772.280    22255775.278
  24420353.600    -6553344.95849  -5083643.63245  24420353.171    24420357.425
 03  4  3  2 56  0.0000000  0  7G 3G14G31G15G25G11G18
  24595940.246    -3652663.90549  -2499921.06745  24595939.845    24595948.914
  21027233.316   -22334656.54149 -15872785.91248  21027232.790    21027235.155
  23880942.295    -4699901.05749  -3649156.02345  23880941.877    23880948.169
  24250871.719    -7866921.61349  -5855595.69845  24250870.871    24250877.415
  21757032.321   -20309995.35849 -15558288.11447  21757032.140    21757035.797
  22242413.199   -17592090.66749 -13665219.52347  22242412.818    22242415.749
  24434849.274    -6477170.00249  -5024286.50945  24434848.906    24434852.957
 03  4  3  2 56 30.0000000  0  7G 3G14G31G15G25G11G18
  24611969.088    -3568432.49549  -2434286.37745  24611968.678    24611977.847
  21037989.362   -22278133.27949 -15828741.79248  21037988.833    21037991.171
  23895234.971    -4624792.98149  -3590630.28745  23895234.554    23895240.785
  24272438.926    -7753584.65049  -5767281.20645  24272438.241    24272444.727
  21743223.870   -20382558.91249 -15614831.05447  21743223.680    21743227.327
  22229125.096   -17661919.45049 -13719631.49247  22229124.767    22229127.731
  24449362.764    -6400900.81249  -4964855.93645  24449362.499    24449366.267
 03  4  3  2 57  0.0000000  0  7G 3G14G31G15G25G11G18
  24627988.255    -3484251.89749  -2368691.30145  24627987.869    24627997.108
  21048797.178   -22221337.72449 -15784485.50548  21048796.691    21048798.990
  23909561.292    -4549507.67449  -3531966.42345  23909560.875    23909567.111
  24294030.372    -7640120.05049  -5678867.25345  24294029.733    24294036.266
  21729486.563   -20454748.79649 -15671082.82847  21729486.360    21729489.988
  22215909.561   -17731367.33149 -13773746.66147  22215909.226    22215912.187
  24463894.881    -6324534.31449  -4905349.54245  24463894.578    24463898.377
 03  4  3  2 57 30.0000000  0  7G 3G14G31G15G25G11G18
  24643996.804    -3400127.03549  -2303139.64845  24643996.426    24644005.686
  21059655.971   -22164274.34749 -15740020.51448  21059655.474    21059657.759
  23923920.328    -4474050.43349  -3473168.60445  23923919.855    23923926.184
  24315645.466    -7526531.89949  -5590357.02845  24315644.820    24315651.360
  21715820.291   -20526565.20649 -15727043.57847  21715820.071    21715823.682
  22202766.535   -17800434.40949 -13827565.09147  22202766.135    22202769.107
  24478444.953    -6248073.06549  -4845769.33745  24478444.745    24478448.365
 03  4  3  2 58  0.0000000  0  7G 3G14G31G15G25G11G18
  24659994.405    -3316059.78849  -2237632.90145  24659994.031    24660003.344
  21070565.538   -22106944.10449 -15695347.58048  21070565.041    21070567.322
  23938311.663    -4398423.38149  -3414238.46145  23938311.271    23938317.537
  24337283.852    -7412821.54749  -5501751.57445  24337283.199    24337289.762
  21702225.665   -20598004.88549 -15782710.77647  21702225.482    21702229.086
  22189696.545   -17869117.44849 -13881084.28747  22189696.183    22189699.066
  24493013.352    -6171515.96449  -4786114.38845  24493013.140    24493016.394
 03  4  3  2 58 30.0000000  0  7G 3G14G31G15G25G11G18
  24675980.259    -3232053.65049  -2172173.77345  24675980.054    24675989.421
  21081525.353   -22049349.90749 -15650468.96948  21081524.844    21081527.105
  23952734.726    -4322630.32649  -3355178.97045  23952734.247    23952740.455
  24358944.916    -7298991.82349  -5413053.09945  24358944.463    24358950.720
  21688703.009   -20669066.52849 -15838083.40247  21688702.844    21688706.429
  22176699.839   -17937414.81849 -13934302.94547  22176699.520    22176702.463
  24507599.650    -6094863.63449  -4726385.28745  24507599.402    24507603.028
 03  4  3  2 59  0.0000000  0  7G 3G14G31G15G25G11G18
  24691954.216    -3148110.26149  -2106763.54345  24691953.847    24691963.414
  21092535.108   -21991493.00849 -15605385.65248  21092534.592    21092536.855
  23967188.788    -4246673.57849  -3295991.92745  23967188.391    23967194.512
  24380628.464    -7185044.26049  -5324262.77745  24380628.062    24380634.297
  21675252.901   -20739746.93549 -15893158.95947  21675252.755    21675256.332
  22163777.196   -18005323.56049 -13987218.78847  22163776.877    22163779.781
  24522204.302    -6018115.54849  -4666581.55545  24522204.121    24522207.515
 03  4  3  2 59 30.0000000  0  7G 3G14G31G15G25G11G18
  24707915.833    -3064231.96349  -2041404.04045  24707915.396    24707925.132
  21103594.587   -21933374.87349 -15560098.77647  21103594.086    21103596.367
  23981673.496    -4170555.88849  -3236679.45345  23981673.153    23981679.251
  24402334.195    -7070980.52149  -5235381.94945  24402333.596    24402339.871
  21661875.934   -20810043.22149 -15947935.20747  21661875.756    21661879.322
  22150928.890   -18072841.65149 -14039830.22547  22150928.552    22150931.439
  24536827.385    -5941271.13749  -4606702.76545  24536827.018    24536830.371
 03  4  3  3  0  0.0000000  0  7G 3G14G31G15G25G11G18
  24723864.554    -2980422.32749  -1976098.05445  24723864.134    24723873.728
  21114703.158   -21874998.59649 -15514610.75047  21114702.676    21114704.965
  23996188.175    -4094281.04049  -3177244.53745  23996187.815    23996193.848
  24424061.524    -6956803.71149  -5146413.02245  24424060.854    24424067.157
  21648572.293   -20879953.92749 -16002410.99947  21648572.106    21648575.666
  22138155.258   -18139967.27349 -14092135.84747  22138154.944    22138157.769
  24551468.478    -5864331.51349  -4546749.80145  24551468.132    24551471.526
 03  4  3  3  0 30.0000000  0  7G 3G14G31G15G25G11G18
  24739799.750    -2896683.56349  -1910847.26345  24739799.352    24739808.898
  21125860.642   -21816365.55849 -15468922.65047  21125860.161    21125862.442
  24010732.244    -4017851.76049  -3117689.26245  24010731.807    24010737.947
  24445809.915    -6842515.55849  -5057357.34045  24445809.179    24445815.472
  21635342.445   -20949476.89049 -16056584.65847  21635342.294    21635345.816
  22125456.810   -18206697.83349 -14144133.61947  22125456.465    22125459.319
  24566127.746    -5787296.18549  -4486722.23345  24566127.464    24566130.839
 03  4  3  3  1  0.0000000  0  7G 3G14G31G15G25G11G18
  24755720.858    -2813018.35249  -1845653.82845  24755720.371    24755730.178
  21137066.556   -21757477.98449 -15423036.21247  21137066.074    21137068.360
  24025304.983    -3941271.08049  -3058016.05145  24025304.638    24025310.663
  24467579.038    -6728118.27749  -4968216.61545  24467578.208    24467584.415
  21622186.844   -21018609.93849 -16110454.48547  21622186.682    21622190.187
  22112833.876   -18273031.52449 -14195822.14847  22112833.564    22112836.427
  24580805.330    -5710164.90949  -4426619.94145  24580804.913    24580808.441
 03  4  3  3  1 30.0000000  0  7G 3G14G31G15G25G11G18
  24771627.295    -2729429.53449  -1780519.89045  24771626.680    24771636.763
  21148320.533   -21698338.06949 -15376953.13947  21148320.023    21148322.304
  24039905.893    -3864542.28249  -2998227.40145  24039905.500    24039911.675
  24489368.493    -6613614.24049  -4878992.71145  24489367.533    24489373.805
  21609105.820   -21087350.92749 -16164018.81447  21609105.637    21609109.114
  22100286.821   -18338966.40949 -14247199.92347  22100286.511    22100289.349
  24595501.189    -5632938.19949  -4366443.25845  24595500.739    24595504.328
 03  4  3  3  2  0.0000000  0  5G14G31G15G25G11
  21159621.590   -21638950.56049 -15330677.14947  21159621.059    21159623.342
  24054534.200    -3787671.07049  -2938327.78045  24054533.673    24054539.860
  24511177.191    -6499008.53549  -4789689.57945  24511176.226    24511182.610
  21596099.389   -21155699.98849 -16217277.75147  21596099.202    21596102.639
  22087815.651   -18404502.62349 -14298267.04847  22087815.344    22087818.146
 03  4  3  3  2 30.0000000  0  5G14G31G15G25G11
  21170969.892   -21579314.63149 -15284207.56947  21170969.393    21170971.672
  24069189.365    -3710657.97749  -2878317.61045  24069188.857    24069195.047
  24533005.321    -6384300.42549  -4700306.67245  24533004.404    24533010.818
  21583168.356   -21223652.80849 -16270227.92147  21583168.174    21583171.549
  22075421.167   -18469635.70949 -14349020.03847  22075420.914    22075423.664
 03  4  3  3  3  0.0000000  0  5G14G31G15G25G11
  21182365.593   -21519429.78749 -15237544.03847  21182365.104    21182367.383
  24083871.453    -3633503.31749  -2818197.13445  24083870.973    24083877.052
  24554853.049    -6269489.50049  -4610843.64445  24554852.309    24554858.737
  21570313.663   -21291204.36949 -16322865.42647  21570313.453    21570316.814
  22063104.256   -18534360.89849 -14399455.19247  22063104.021    22063106.792
 03  4  3  3  3 30.0000000  0  5G14G31G15G25G11
  21193807.909   -21459299.97949 -15190689.63147  21193807.422    21193809.679
  24098579.480    -3556212.27649  -2757970.39545  24098578.971    24098585.127
  24576719.675    -6154579.80549  -4521303.65645  24576718.932    24576725.362
  21557535.339   -21358354.58549 -16375190.20147  21557535.139    21557538.479
  22050865.080   -18598677.92749 -14449572.30147  22050864.844    22050867.617
 03  4  3  3  4  0.0000000  0  5G14G31G15G25G11
  21205296.586   -21398926.54549 -15143645.38147  21205296.079    21205298.339
  24113313.007    -3478787.06149  -2697639.09245  24113312.502    24113318.799
  24598604.818    -6039572.94949  -4431687.96545  24598604.041    24598610.518
  21544833.941   -21425100.70049 -16427200.08647  21544833.712    21544837.046
  22038704.177   -18662583.78449 -14499369.01147  22038703.913    22038706.758
 03  4  3  3  4 30.0000000  0  5G14G31G15G25G11
  21216831.204   -21338311.63249 -15096412.96547  21216830.694    21216832.962
  24128071.519    -3401230.88749  -2637205.75645  24128070.954    24128077.337
  24620508.035    -5924471.22349  -4341998.33645  24620507.278    24620513.786
  21532209.825   -21491440.43749 -16478893.31647  21532209.602    21532212.925
  22026621.848   -18726076.94149 -14548844.14747  22026621.567    22026624.339
 03  4  3  3  5  0.0000000  0  5G14G31G15G25G11
  21228411.251   -21277457.87849 -15048994.43747  21228410.757    21228413.047
  24142854.300    -3323547.47749  -2576673.26245  24142853.670    24142860.096
  24642428.781    -5809277.49849  -4252237.04845  24642428.002    24642434.559
  21519663.353   -21557372.41049 -16530268.80947  21519663.137    21519666.406
  22014618.311   -18789155.95149 -14597996.56247  22014618.027    22014620.732
 03  4  3  3  5 30.0000000  0  5G14G31G15G25G11
  21240035.967   -21216369.31749 -15001392.94947  21240035.470    21240037.779
  24157660.316    -3245741.84449  -2516045.53445  24157659.650    24157665.999
  24664366.110    -5693995.92049  -4162407.29745  24664365.345    24664372.076
  21507194.485   -21622896.50149 -16581326.46647  21507194.249    21507197.476
  22002693.601   -18851820.61949 -14646826.10947  22002693.292    22002695.990
 03  4  3  3  6  0.0000000  0  4G14G31G25G11
  21251705.363   -21155046.13249 -14953608.63647  21251704.881    21251707.179
  24172489.246    -3167815.37749  -2455323.64845  24172488.624    24172494.931
  21494803.900   -21688009.02649 -16632063.42647  21494803.707    21494806.873
  21990848.392   -18914067.03249 -14695329.74547  21990848.123    21990850.806
 03  4  3  3  6 30.0000000  0  4G14G31G25G11
  21263417.808   -21093496.83549 -14905648.12847  21263417.342    21263419.633
  24187339.335    -3089777.61049  -2394515.03745  24187338.794    24187345.042
  21482490.896   -21752714.27649 -16682483.02447  21482490.671    21482493.817
  21979082.086   -18975899.50049 -14743510.82347  21979081.769    21979084.413
 03  4  3  3  7  0.0000000  0  4G14G31G25G11
  21275175.338   -21031710.53949 -14857502.94747  21275174.863    21275177.144
  24202212.399    -3011618.66149  -2333611.99145  24202211.908    24202218.283
  21470258.187   -21816997.17949 -16732573.52547  21470257.950    21470261.087
  21967397.242   -19037303.67349 -14791358.17447  21967396.908    21967399.531
 03  4  3  3  7 30.0000000  0  4G14G31G25G11
  21286977.036   -20969692.08449 -14809176.86447  21286976.573    21286978.832
  24217107.533    -2933344.55049  -2272619.21145  24217106.986    24217113.419
  21458105.635   -21880858.83549 -16782335.77847  21458105.433    21458108.560
  21955793.769   -19098279.97249 -14838872.11147  21955793.451    21955796.041
 03  4  3  3  8  0.0000000  0  4G14G31G25G11
  21298822.296   -20907444.91649 -14760672.56247  21298821.842    21298824.092
  24232023.737    -2854959.80949  -2211540.23645  24232023.189    24232029.579
  21446033.337   -21944298.64249 -16831769.32147  21446033.140    21446036.263
  21944271.825   -19158827.77949 -14886052.16447  21944271.517    21944274.094
 03  4  3  3  8 30.0000000  0  4G14G31G25G11
  21310710.874   -20844970.07849 -14711990.85947  21310710.412    21310712.660
  24246960.523    -2776466.54849  -2150376.69145  24246959.938    24246966.384
  21434041.910   -22007313.69949 -16880871.89447  21434041.722    21434044.810
  21932831.941   -19218944.62249 -14932896.39647  21932831.597    21932834.137
 03  4  3  3  9  0.0000000  0  4G14G31G25G11
  21322642.029   -20782271.41849 -14663134.74347  21322641.542    21322643.772
  24261917.104    -2697869.52249  -2089132.29445  24261916.524    24261922.899
  21422131.326   -22069904.06849 -16929643.53847  21422131.117    21422134.184
  21921474.082   -19278629.99649 -14979404.41347  21921473.779    21921476.362
 03  4  3  3  9 30.0000000  0  4G14G31G25G11
  21334615.062   -20719352.78849 -14614107.22547  21334614.584    21334616.800
  24276892.421    -2619173.80549  -2027810.99845  24276891.948    24276898.270
  21410301.601   -22132069.39149 -16978083.98247  21410301.417    21410304.465
  21910198.438   -19337883.66449 -15025576.04747  21910198.126    21910200.690
 03  4  3  3 10  0.0000000  0  4G14G31G25G11
  21346629.616   -20656215.68949 -14564909.46447  21346629.136    21346631.350
  24291886.004    -2540381.84749  -1966414.70445  24291885.548    24291892.007
  21398553.234   -22193807.01849 -17026191.14747  21398553.060    21398556.129
  21899005.401   -19396703.06049 -15071409.27647  21899005.124    21899007.656
 03  4  3  3 10 30.0000000  0  4G14G31G25G11
  21358685.778   -20592860.21049 -14515541.54347  21358685.270    21358687.457
  24306897.659    -2461494.92249  -1904944.42345  24306897.235    24306903.729
  21386886.887   -22255113.68849 -17073962.51347  21386886.707    21386889.774
  21887895.729   -19455084.80949 -15116901.49047  21887895.415    21887897.945
 03  4  3  3 11  0.0000000  0  4G14G31G25G11
  21370783.071   -20529288.34349 -14466005.00747  21370782.575    21370784.760
  24321926.895    -2382516.18749  -1843402.59445  24321926.461    24321932.904
  21375302.934   -22315987.41349 -17121396.51747  21375302.766    21375305.795
  21876869.608   -19513026.89049 -15162051.11247  21876869.329    21876871.830
 03  4  3  3 11 30.0000000  0  4G14G31G25G11
  21382920.901   -20465503.48349 -14416302.50047  21382920.392    21382922.609
  24336972.725    -2303449.83249  -1781792.48245  24336972.195    24336978.679
  21363801.631   -22376427.20449 -17168492.39147  21363801.438    21363804.444
  21865927.368   -19570528.56649 -15206857.55247  21865927.074    21865929.571
 03  4  3  3 12  0.0000000  0  4G14G31G25G11
  21395099.210   -20401505.69749 -14366434.08147  21395098.722    21395100.917
  24352034.995    -2224297.22449  -1720115.17045  24352034.477    24352040.920
  21352383.497   -22436429.70649 -17215247.52247  21352383.303    21352386.278
  21855069.611   -19627586.17549 -15251317.97447  21855069.290    21855071.786
 03  4  3  3 12 30.0000000  0  4G14G31G25G11
  21407317.130   -20337299.77749 -14316403.47647  21407316.643    21407318.882
  24367112.603    -2145064.28449  -1658375.26145  24367112.009    24367118.541
  21341048.295   -22495996.09049 -17261662.82347  21341048.130    21341051.062
  21844296.199   -19684200.78049 -15295433.18947  21844295.869    21844298.334
 03  4  3  3 13  0.0000000  0  4G14G31G25G11
  21419575.020   -20272884.02649 -14266209.37447  21419574.537    21419576.762
  24382205.484    -2065750.40849  -1596572.30845  24382204.961    24382211.544
  21329797.258   -22555120.65349 -17307733.84747  21329797.049    21329799.951
  21833608.203   -19740366.78749 -15339198.85747  21833607.818    21833610.269
 03  4  3  3 13 30.0000000  0  4G14G31G25G11
  21431872.220   -20208261.86349 -14215854.43147  21431871.734    21431873.957
  24397312.887    -1986360.10949  -1534709.77845  24397312.372    24397318.989
  21318630.393   -22613802.84449 -17353460.17547  21318630.170    21318633.019
  21823005.513   -19796083.90349 -15382614.73247  21823005.158    21823007.595
 03  4  3  3 14  0.0000000  0  4G14G31G25G11
  21444208.138   -20143436.30249 -14165340.99347  21444207.674    21444209.853
  24412434.202    -1906897.34249  -1472790.79245  24412433.673    24412440.195
  21307547.775   -22672042.11649 -17398841.36347  21307547.572    21307550.393
  21812488.416   -19851351.18049 -15425680.09247  21812488.089    21812490.519
 03  4  3  3 14 30.0000000  0  4G14G31G25G11
  21456582.504   -20078408.77249 -14114670.18347  21456582.027    21456584.155
  24427568.816    -1827364.80449  -1410817.43245  24427568.275    24427574.769
  21296549.897   -22729835.99049 -17443875.50147  21296549.715    21296552.521
  21802057.407   -19906166.20049 -15468393.04247  21802057.090    21802059.518
 03  4  3  3 15  0.0000000  0  4G14G31G25G11
  21468995.067   -20013180.71149 -14063843.10747  21468994.564    21468996.678
  24442716.243    -1747764.93549  -1348791.60845  24442715.780    24442722.226
  21285637.262   -22787182.38149 -17488560.93747  21285637.030    21285639.840
  21791712.924   -19960526.67549 -15510751.79847  21791712.611    21791715.013
 03  4  3  3 15 30.0000000  0  4G14G31G25G11
  21481445.454   -19947753.49549 -14012860.84147  21481444.955    21481447.053
  24457875.948    -1668100.14049  -1286715.18645  24457875.406    24457882.029
  21274810.150   -22844078.85549 -17532895.79247  21274809.966    21274812.763
  21781455.366   -20014430.16749 -15552754.46547  21781455.053    21781457.434
 03  4  3  3 16  0.0000000  0  4G14G31G25G11
  21493933.406   -19882128.74249 -13961724.65847  21493932.910    21493935.039
  24473047.442    -1588373.18949  -1224590.33745  24473046.982    24473053.684
  21264069.084   -22900523.21149 -17576878.35747  21264068.921    21264071.703
  21771285.263   -20067874.50549 -15594399.35547  21771284.913    21771287.289
 03  4  3  3 16 30.0000000  0  4G14G31G25G11
  21506458.474   -19816309.02149 -13910436.55247  21506457.959    21506460.133
  24488230.134    -1508587.82949  -1162419.96445  24488229.711    24488236.390
  21253414.305   -22956514.32649 -17620507.74247  21253414.108    21253416.869
  21761202.643   -20120858.70749 -15635685.70147  21761202.313    21761204.669
 03  4  3  3 17  0.0000000  0  4G14G31G25G11
  21519020.287   -19750295.96549 -13858997.79047  21519019.783    21519021.989
  24503423.579    -1428746.65949  -1100206.11245  24503423.154    24503429.668
  21242846.114   -23012050.41449 -17663782.56447  21242845.914    21242848.652
  21751208.028   -20173380.62849 -15676611.82047  21751207.702    21751210.049
 03  4  3  3 17 30.0000000  0  4G14G31G25G11
  21531618.518   -19684091.53849 -13807409.91247  21531618.041    21531620.242
  24518626.927    -1348852.94349  -1037951.30745  24518626.408    24518632.986
  21232364.693   -23067130.10149 -17706701.74647  21232364.550    21232367.283
  21741301.702   -20225438.65049 -15717176.46747  21741301.390    21741303.699
 03  4  3  3 18  0.0000000  0  4G14G31G25G11
  21544252.898   -19617697.30049 -13755674.13247  21544252.424    21544254.630
  24533839.559    -1268909.32549   -975657.61145  24533839.107    24533845.557
  21221970.552   -23121751.36249 -17749263.72047  21221970.426    21221973.171
  21731484.053   -20277030.70849 -15757378.03247  21731483.707    21731485.982
 03  4  3  3 18 30.0000000  0  4G14G31G25G11
  21556923.125   -19551114.87949 -13703791.71247  21556922.613    21556924.798
  24549061.358    -1188918.43249   -913327.08545  24549060.879    24549067.381
  21211664.100   -23175912.02049 -17791466.78147  21211663.941    21211666.694
  21721755.462   -20328154.59949 -15797214.79247  21721755.132    21721757.392
 03  4  3  3 19  0.0000000  0  4G14G31G25G11
  21569628.588   -19484347.31949 -13651765.02647  21569628.057    21569630.192
  24564291.467    -1108884.67049   -850963.16845  24564291.055    24564297.313
  21201445.370   -23229611.68849 -17833310.62347  21201445.205    21201447.931
  21712116.002   -20378809.96649 -15836686.46347  21712115.675    21712117.926
 03  4  3  3 19 30.0000000  0  4G14G31G25G11
  21582369.239   -19417394.75149 -13599594.17847  21582368.697    21582370.781
  24579529.444    -1028809.13049   -788566.68545  24579528.857    24579535.268
  21191315.017   -23282846.79549 -17874792.47047  21191314.848    21191317.562
  21702566.473   -20428993.13949 -15875790.19247  21702566.126    21702568.394
 03  4  3  3 20  0.0000000  0  4G14G31G25G11
  21595144.377   -19350260.86049 -13547282.04147  21595143.873    21595145.917
  24594774.308     -948696.35249   -726141.18445  24594773.693    24594780.277
  21181272.978   -23335617.85749 -17915912.72947  21181272.790    21181275.472
  21693106.703   -20478704.14849 -15914526.01047  21693106.415    21693108.658
 03  4  3  3 20 30.0000000  0  5G14G31G25G20G11
  21607954.040   -19282945.51049 -13494828.50947  21607953.535    21607955.557
  24610025.990     -868547.60049   -663687.66745  24610025.454    24610032.224
  21171319.945   -23387921.12749 -17956668.46748  21171319.760    21171322.459
  24729161.641    -5063668.34059  -3458896.10945  24729160.908    24729166.185
  21683737.490   -20527939.57349 -15952891.24147  21683737.181    21683739.429
 03  4  3  3 21  0.0000000  0  5G14G31G25G20G11
  21620797.414   -19215453.22849 -13442237.10647  21620796.914    21620798.912
  24625283.752     -788368.41449   -601210.44145  24625283.290    24625289.876
  21161455.757   -23439757.57349 -17997060.44748  21161455.579    21161458.275
  24712851.643    -5149377.66849  -3525682.55445  24712850.959    24712856.186
  21674458.623   -20576700.03649 -15990886.37247  21674458.325    21674460.575
 03  4  3  3 21 30.0000000  0  5G14G31G25G20G11
  21633674.699   -19147782.47549 -13389506.63347  21633674.199    21633676.215
  24640547.423     -708158.40149   -538709.20245  24640546.924    24640553.323
  21151681.308   -23491122.19149 -18037084.76648  21151681.146    21151683.851
  24696535.553    -5235118.33049  -3592493.41645  24696534.825    24696540.178
  21665271.092   -20624980.85949 -16028507.76047  21665270.775    21665272.974
 03  4  3  3 22  0.0000000  0  5G14G31G25G20G11
  21646585.339   -19079936.54949 -13336639.66647  21646584.851    21646586.895
  24655815.733     -627922.06049   -476187.43045  24655815.314    24655821.916
  21141996.696   -23542014.77349 -18076741.26948  21141996.570    21141999.262
  24680213.581    -5320891.34449  -3659329.50045  24680212.695    24680217.991
  21656174.870   -20672781.63949 -16065755.08547  21656174.572    21656176.764
 03  4  3  3 22 30.0000000  0  5G14G31G25G20G11
  21659528.964   -19011917.23749 -13283637.59147  21659528.490    21659530.569
  24671088.724     -547662.42749   -413647.53345  24671088.261    24671094.801
  21132402.134   -23592434.27649 -18116029.13348  21132402.013    21132404.703
  24663885.259    -5406696.46049  -3726190.54745  24663884.568    24663889.810
  21647170.271   -20720100.98349 -16102627.26547  21647169.966    21647172.137
 03  4  3  3 23  0.0000000  0  5G14G31G25G20G11
  21672505.670   -18943724.07549 -13230500.04547  21672505.177    21672507.316
  24686366.118     -467380.06349   -351089.91945  24686365.655    24686372.060
  21122898.432   -23642376.48649 -18154945.07848  21122898.272    21122900.956
  24647551.417    -5492530.82749  -3793074.43945  24647550.806    24647556.178
  21638258.060   -20766934.71849 -16139121.04547  21638257.746    21638259.945
 03  4  3  3 23 30.0000000  0  5G14G31G25G20G11
  21685514.329   -18875362.82049 -13177231.51747  21685513.851    21685516.016
  24701646.452     -387081.57249   -288519.73445  24701645.936    24701652.579
  21113485.019   -23691844.00149 -18193491.13448  21113484.859    21113487.539
  24631211.377    -5578397.81149  -3859983.67545  24631210.857    24631216.300
  21629437.849   -20813284.81049 -16175237.96447  21629437.592    21629439.774
 03  4  3  3 24  0.0000000  0  5G14G31G25G20G11
  21698555.571   -18806830.68649 -13123829.84047  21698555.073    21698557.236
  24716929.951     -306765.55249   -225935.90445  24716929.566    24716936.287
  21104163.092   -23740830.86049 -18231662.65248  21104162.942    21104165.589
  24614866.075    -5664292.41949  -3926914.42145  24614865.673    24614871.018
  21620710.890   -20859145.60349 -16210973.62047  21620710.584    21620712.698
 03  4  3  3 24 30.0000000  0  5G14G31G25G20G11
  21711628.187   -18738133.46149 -13070299.52547  21711627.673    21711629.845
  24732215.789     -226438.92749   -163343.81145  24732215.283    24732221.999
  21094932.163   -23789339.42449 -18269461.48048  21094932.033    21094934.673
  24598514.900    -5750218.20649  -3993869.46145  24598514.503    24598519.810
  21612076.496   -20904519.41349 -16246329.80747  21612076.181    21612078.287
 03  4  3  3 25  0.0000000  0  5G14G31G25G20G11
  21724732.493   -18669269.71549 -13016639.44347  21724731.971    21724734.163
  24747503.728     -146101.26749   -100743.12945  24747503.190    24747509.725
  21085793.186   -23837364.90149 -18306883.86548  21085793.039    21085795.674
  24582158.505    -5836171.22149  -4060845.69145  24582158.076    24582163.333
  21603535.767   -20949400.99549 -16281302.43047  21603535.464    21603537.572
 03  4  3  3 25 30.0000000  0  5G14G31G25G20G11
  21737867.252   -18600245.91049 -12962854.65247  21737866.738    21737868.933
  24762792.177      -65760.32249    -38139.88045  24762791.537    24762798.272
  21076745.426   -23884910.70949 -18343932.49548  21076745.303    21076747.938
  24565796.146    -5922155.76349  -4127846.50245  24565795.724    24565801.000
  21595088.006   -20993794.22949 -16315894.52747  21595087.682    21595089.820
 03  4  3  3 26  0.0000000  0  5G14G31G25G20G11
  21751033.121   -18531058.68149 -12908942.50747  21751032.614    21751034.800
  24778081.594       14586.03249     24467.57745  24778081.011    24778087.775
  21067790.208   -23931970.53649 -18380602.42748  21067790.063    21067792.703
  24549428.825    -6008166.41249  -4194867.63445  24549428.324    24549433.647
  21586734.501   -21037691.99949 -16350100.54247  21586734.185    21586736.322
 03  4  3  3 26 30.0000000  0  5G14G31G25G20G11
  21764229.375   -18461711.97449 -12854906.09847  21764228.898    21764231.038
  24793371.186       94933.00849     87075.52345  24793370.586    24793377.373
  21058927.418   -23978544.66649 -18416893.90448  21058927.278    21058929.912
  24533056.207    -6094204.41349  -4261910.10045  24533055.739    24533061.052
  21578475.219   -21081094.58849 -16383920.70847  21578474.923    21578477.045
 03  4  3  3 27  0.0000000  0  5G14G31G25G20G11
  21777455.660   -18392207.41449 -12800746.68847  21777455.162    21777457.267
  24808660.210      175277.79549    149681.75145  24808659.762    24808666.475
  21050157.259   -24024631.84349 -18452805.93848  21050157.119    21050159.724
  24516678.504    -6180269.66549  -4328973.78945  24516678.027    24516683.269
  21570310.434   -21124000.73749 -16417354.03547  21570310.135    21570312.218
 03  4  3  3 27 30.0000000  0  5G14G31G25G20G11
  21790711.750   -18322546.03849 -12746465.08147  21790711.275    21790713.368
  24823948.504      255617.99949    212284.41545  24823947.979    24823954.908
  21041480.250   -24070229.89749 -18488336.84348  21041480.077    21041482.661
  24500295.896    -6266360.73949  -4396057.61245  24500295.329    24500300.555
  21562240.553   -21166408.34149 -16450398.88747  21562240.232    21562242.302
 03  4  3  3 28  0.0000000  0  5G14G31G25G20G11
  21803997.131   -18252730.93649 -12692063.69047  21803996.637    21803998.687
  24839235.287      335949.48549    274880.27745  24839234.655    24839241.502
  21032896.201   -24115339.08349 -18523486.80448  21032896.039    21032898.615
  24483908.107    -6352478.41649  -4463162.16445  24483907.534    24483912.732
  21554265.544   -21208316.99849 -16483054.94447  21554265.233    21554267.316
 03  4  3  3 28 30.0000000  0  5G14G31G25G20G11
  21817311.694   -18182762.29749 -12637542.65747  21817311.220    21817313.239
  24854519.937      416271.01949    337468.40145  24854519.444    24854526.238
  21024405.756   -24159956.30849 -18558253.42848  21024405.597    21024408.184
  24467515.789    -6438620.39149  -4530285.66845  24467515.122    24467520.381
  21546386.009   -21249724.09249 -16515320.18147  21546385.707    21546387.779
 03  4  3  3 29  0.0000000  0  5G14G31G25G20G11
  21830655.168   -18112641.98949 -12582903.44947  21830654.682    21830656.674
  24869802.003      496579.56349    400046.39245  24869801.625    24869808.396
  21016009.246   -24204080.21749 -18592635.65048  21016009.070    21016011.641
  24451118.856    -6524786.37349  -4597427.89445  24451118.293    24451123.495
  21538602.191   -21290628.11049 -16547193.40047  21538601.916    21538603.985
 03  4  3  3 29 30.0000000  0  5G14G31G25G20G11
  21844027.148   -18042371.80849 -12528147.45047  21844026.655    21844028.631
  24885081.306      576872.09749    462611.89945  24885080.907    24885087.692
  21007706.749   -24247710.10549 -18626632.92148  21007706.548    21007709.098
  24434717.363    -6610976.08849  -4664588.61345  24434716.798    24434722.034
  21530914.362   -21331027.62649 -16578673.50647  21530914.098    21530916.164
 03  4  3  3 30  0.0000000  0  5G14G31G25G20G11
  21857427.363   -17971953.38749 -12473275.94747  21857426.858    21857428.832
  24900356.939      657145.86149    525162.80945  24900356.472    24900363.343
  20999498.505   -24290844.31749 -18660243.95148  20999498.350    20999500.888
  24418311.531    -6697188.67349  -4731767.16745  24418311.106    24418316.142
  21523322.881   -21370920.91349 -16609759.14847  21523322.594    21523324.668
 03  4  3  3 30 30.0000000  0  5G14G31G25G20G11
  21870855.121   -17901390.15249 -12418291.59047  21870854.602    21870856.558
  24915628.154      737396.38749    587695.58545  24915627.589    24915634.678
  20991384.495   -24333483.48549 -18693469.24048  20991384.347    20991386.888
  24401901.172    -6783425.31049  -4798964.47845  24401900.736    24401905.647
  21515827.677   -21410308.41049 -16640450.67147  21515827.393    21515829.427
 03  4  3  3 31  0.0000000  0  5G14G31G25G20G11
  21884310.640   -17830680.88849 -12363193.45047  21884310.108    21884312.077
  24930894.982      817623.67649    650210.25645  24930894.490    24930901.562
  20983365.468   -24375623.57149 -18726305.63148  20983365.299    20983367.859
  24385486.993    -6869682.31749  -4866177.64945  24385486.359    24385491.351
  21508429.517   -21449185.97249 -16670744.84447  21508429.224    21508431.254
 03  4  3  3 31 30.0000000  0  4G14G25G20G11
  21897795.344   -17759818.10249 -12307975.68347  21897794.822    21897796.829
  20975443.381   -24417253.96249 -18758744.85948  20975443.253    20975445.806
  24369070.721    -6955950.14449  -4933399.26645  24369070.203    24369075.056
  21501130.351   -21487543.13349 -16700633.50347  21501130.058    21501132.097
 03  4  3  3 32  0.0000000  0  4G14G25G20G11
  21911306.439   -17688816.31749 -12252649.61047  21911305.919    21911307.980
  20967616.149   -24458386.24649 -18790795.95648  20967616.011    20967618.537
  24352650.002    -7042241.19649  -5000638.98545  24352649.542    24352654.272
  21493928.013   -21525391.34949 -16730125.58547  21493927.733    21493929.804
 03  4  3  3 32 30.0000000  0  4G14G25G20G11
  21924843.522   -17617678.46449 -12197217.50247  21924842.967    21924845.046
  20959883.676   -24499020.72749 -18822459.14848  20959883.505    20959885.994
  24336224.842    -7128555.87149  -5067897.11645  24336224.303    24336229.023
  21486822.627   -21562730.43649 -16759220.94347  21486822.352    21486824.391
 03  4  3  3 33  0.0000000  0  4G14G25G20G11
  21938406.496   -17546404.29749 -12141679.17747  21938405.978    21938408.045
  20952246.497   -24539154.06749 -18853731.84448  20952246.332    20952248.805
  24319795.620    -7214891.53749  -5135171.59345  24319795.077    24319799.779
  21479814.796   -21599556.99149 -16787916.92947  21479814.484    21479816.474
 03  4  3  3 33 30.0000000  0  4G14G25G20G11
  21951995.412   -17474994.00549 -12086034.78247  21951994.880    21951996.974
  20944705.163   -24578783.77049 -18884612.09548  20944705.022    20944707.491
  24303362.855    -7301246.26049  -5202460.93545  24303362.213    24303366.914
  21472904.902   -21635868.51049 -16816211.58947  21472904.597    21472906.578
 03  4  3  3 34  0.0000000  0  4G14G25G20G11
  21965609.685   -17403450.39349 -12030286.49547  21965609.165    21965611.296
  20937259.690   -24617909.87749 -18915099.93548  20937259.547    20937261.990
  24286926.387    -7387620.56849  -5269765.51545  24286925.642    24286930.361
  21466093.031   -21671664.74549 -16844104.72347  21466092.733    21466094.760
 03  4  3  3 34 30.0000000  0  4G14G25G20G11
  21979249.426   -17331773.11849 -11974434.06147  21979248.873    21979250.988
  20929910.584   -24656529.60549 -18945193.18848  20929910.435    20929912.899
  24270486.647    -7474011.72649  -5337083.22545  24270485.923    24270490.506
  21459379.896   -21706942.45049 -16871593.81047  21459379.611    21459381.601
 03  4  3  3 35  0.0000000  0  4G14G25G20G11
  21992914.091   -17259964.62649 -11918479.37847  21992913.583    21992915.691
  20922657.904   -24694642.61749 -18974891.60448  20922657.735    20922660.168
  24254043.650    -7560420.00049  -5404414.27845  24254042.966    24254047.490
  21452765.448   -21741701.42649 -16898678.70047  21452765.170    21452767.161
 03  4  3  3 35 30.0000000  0  4G14G25G20G11
  22006603.658   -17188025.44149 -11862422.86047  22006603.165    22006605.224
  20915502.009   -24732246.99149 -19004193.67448  20915501.829    20915504.235
  24237597.747    -7646843.57549  -5471757.24645  24237597.100    24237601.527
  21446250.173   -21775939.14049 -16925357.41047  21446249.900    21446251.869
 03  4  3  3 36  0.0000000  0  4G14G25G20G11
  22020317.756   -17115957.50049 -11806266.01547  22020317.271    22020319.281
  20908443.064   -24769341.85649 -19033098.72848  20908442.876    20908445.276
  24221148.850    -7733282.20549  -5539111.94745  24221148.229    24221152.753
  21439834.274   -21809654.77949 -16951629.31147  21439833.992    21439835.970
 03  4  3  3 36 30.0000000  0  4G14G25G20G11
  22034056.284   -17043761.25049 -11750009.17747  22034055.781    22034057.764
  20901481.482   -24805924.91549 -19061604.96648  20901481.306    20901483.694
  24204697.626    -7819734.12449  -5606476.97645  24204697.047    24204701.456
  21433518.167   -21842845.91349 -16977492.50047  21433517.894    21433519.879
 03  4  3  3 37  0.0000000  0  4G14G25G20G11
  22047818.411   -16971440.90049 -11693655.64547  22047817.913    22047819.867
  20894617.065   -24841997.61049 -19089713.51848  20894616.898    20894619.251
  24188243.342    -7906201.19249  -5673853.82645  24188242.839    24188247.182
  21427301.644   -21875514.04149 -17002948.15747  21427301.338    21427303.336
 03  4  3  3 37 30.0000000  0  4G14G25G20G11
  22061604.670   -16898993.64949 -11637203.22547  22061604.159    22061606.107
  20887850.780   -24877554.72649 -19117420.31648  20887850.592    20887852.925
  24171787.201    -7992678.23549  -5741238.44345  24171786.740    24171791.036
  21421185.682   -21907653.57049 -17027991.92047  21421185.372    21421187.353
 03  4  3  3 38  0.0000000  0  4G14G25G20G11
  22075413.787   -16826426.23649 -11580657.17747  22075413.269    22075415.204
  20881181.680   -24912600.74249 -19144728.86048  20881181.509    20881183.829
  24155328.433    -8079169.67849  -5808634.28345  24155327.915    24155332.276
  21415169.528   -21939268.50649 -17052626.90747  21415169.217    21415171.175
 03  4  3  3 38 30.0000000  0  4G14G25G20G11
  22089246.183   -16753736.19449 -11524015.57247  22089245.683    22089247.620
  20874610.878   -24947130.31649 -19171634.98148  20874610.728    20874613.043
  24138867.685    -8165670.66749  -5876037.55445  24138867.190    24138871.600
  21409254.203   -21970353.66849 -17076849.08647  21409253.902    21409255.829
 03  4  3  3 39  0.0000000  0  4G14G25G20G11
  22103101.502   -16680926.12649 -11467280.43947  22103101.002    22103102.907
  20868138.263   -24981143.97049 -19198139.08448  20868138.129    20868140.398
  24122405.141    -8252181.75449  -5943448.70245  24122404.587    24122408.993
  21403439.666   -22000909.09949 -17100658.48847  21403439.387    21403441.290
 03  4  3  3 39 30.0000000  0  4G14G25G20G11
  22116978.819   -16608000.16849 -11410455.01647  22116978.334    22116980.212
  20861763.594   -25014643.05949 -19224242.23348  20861763.442    20861765.701
  24105940.416    -8338704.54149  -6010868.97445  24105939.825    24105944.213
  21397725.729   -22030936.00449 -17124056.05247  21397725.463    21397727.348
 03  4  3  3 40  0.0000000  0  4G14G25G20G11
  22130878.666   -16534955.77349 -11353537.29047  22130878.192    22130880.100
  20855487.801   -25047622.58549 -19249940.51848  20855487.636    20855489.895
  24089474.311    -8425234.25249  -6078294.64645  24089473.635    24089478.007
  21392113.310   -22060429.56349 -17147038.01847  21392112.978    21392114.886
 03  4  3  3 40 30.0000000  0  4G14G25G20G11
  22144800.199   -16461797.60949 -11296530.92147  22144799.704    22144801.653
  20849310.370   -25080085.05249 -19275235.90548  20849310.203    20849312.443
  24073006.391    -8511773.47449  -6145727.71245  24073005.745    24073010.080
  21386601.922   -22089391.88449 -17169606.02747  21386601.624    21386603.542
 03  4  3  3 41  0.0000000  0  4G14G25G20G11
  22158743.514   -16388524.79349 -11239435.21147  22158743.041    22158745.001
  20843231.919   -25112027.38249 -19300125.99448  20843231.781    20843233.969
  24056537.207    -8598318.91349  -6213165.62745  24056536.666    24056541.008
  21381192.320   -22117819.40749 -17191757.31747  21381191.999    21381193.941
 03  4  3  3 41 30.0000000  0  4G14G25G20G11
  22172708.368   -16315138.92949 -11182251.41147  22172707.904    22172709.866
  20837252.624   -25143448.73349 -19324610.11948  20837252.480    20837254.653
  24040067.096    -8684869.77849  -6280607.75845  24040066.529    24040070.944
  21375884.674   -22145711.33349 -17213491.25747  21375884.363    21375886.258
 03  4  3  3 42  0.0000000  0  4G14G25G20G11
  22186693.885   -16241644.46149 -11124982.98547  22186693.432    22186695.395
  20831372.093   -25174350.98149 -19348689.75448  20831371.931    20831374.112
  24023595.450    -8771428.40249  -6348055.95145  24023594.872    24023599.300
  21370678.553   -22173069.37149 -17234809.18347  21370678.267    21370680.148
 03  4  3  3 42 30.0000000  0  4G14G25G20G11
  22200700.420   -16168039.72349 -11067628.63947  22200699.936    22200701.903
  20825591.033   -25204730.45749 -19372362.03548  20825590.873    20825593.042
  24007123.063    -8857990.88749  -6415507.14245  24007122.436    24007126.913
  21365574.846   -22199889.42749 -17255707.89747  21365574.551    21365576.425
 03  4  3  3 43  0.0000000  0  4G14G25G20G11
  22214727.682   -16094325.88349 -11010189.28547  22214727.204    22214729.166
  20819909.681   -25234586.00749 -19395626.06848  20819909.537    20819911.690
  23990650.165    -8944555.87249  -6482960.27445  23990649.589    23990654.200
  21360573.745   -22226170.43249 -17276186.57247  21360573.423    21360575.334
 03  4  3  3 43 30.0000000  0  4G14G25G20G11
  22228774.858   -16020507.35249 -10952668.33547  22228774.350    22228776.306
  20814327.579   -25263919.90249 -19418483.60648  20814327.421    20814329.572
  23974176.405    -9031125.55449  -6550417.07845  23974175.844    23974180.388
  21355674.802   -22251914.39149 -17296246.77347  21355674.494    21355676.382
 03  4  3  3 44  0.0000000  0  4G14G25G20G11
  22242841.906   -15946584.16949 -10895065.86147  22242841.441    22242843.428
  20808845.167   -25292729.93749 -19440932.95248  20808845.026    20808847.161
  23957702.281    -9117697.75649  -6617875.84545  23957701.649    23957706.192
  21350878.561   -22277118.83149 -17315886.57147  21350878.245    21350880.105
 03  4  3  3 44 30.0000000  0  4G14G25G20G11
  22256928.897   -15872556.65649 -10837382.06147  22256928.399    22256930.398
  20803462.894   -25321014.10549 -19462972.52348  20803462.723    20803464.886
  23941227.998    -9204270.66049  -6685335.13845  23941227.253    23941231.886
  21346185.362   -22301781.74749 -17335104.39947  21346185.014    21346186.878
 03  4  3  3 45  0.0000000  0  4G14G25G20G11
  22271035.195   -15798427.58049 -10779619.14347  22271034.664    22271036.695
  20798180.442   -25348773.42749 -19484603.13148  20798180.259    20798182.432
  23924753.430    -9290844.45949  -6752795.16345  23924752.719    23924757.306
  21341595.061   -22325903.58149 -17353900.60447  21341594.751    21341596.621
 03  4  3  3 45 30.0000000  0  4G14G25G20G11
  22285160.933   -15724196.25349 -10721776.54547  22285160.405    22285162.435
  20792998.332   -25376005.20749 -19505822.66848  20792998.167    20793000.330
  23908279.250    -9377416.38649  -6820253.72845  23908278.574    23908283.031
  21337108.321   -22349481.48449 -17372272.96847  21337108.018    21337109.893
 03  4  3  3 46  0.0000000  0  4G14G25G20G11
  22299305.372   -15649866.59549 -10663857.32547  22299304.853    22299306.918
  20787916.298   -25402711.19949 -19526632.49748  20787916.145    20787918.283
  23891805.123    -9463987.98449  -6887712.02245  23891804.428    23891808.935
  21332724.814   -22372517.01349 -17390222.70247  21332724.482    21332726.360
 03  4  3  3 46 30.0000000  0  4G14G25G20G11
  22313468.656   -15575437.89249 -10605860.93047  22313468.167    22313470.231
  20782934.871   -25428888.59649 -19547030.43448  20782934.724    20782936.863
  23875331.749    -9550556.45049  -6955167.90845  23875330.992    23875335.338
  21328445.006   -22395007.42749 -17407747.67447  21328444.665    21328446.517
 03  4  3  3 47  0.0000000  0  4G14G25G20G11
  22327649.949   -15500914.89349 -10547791.06147  22327649.430    22327651.441
  20778053.504   -25454540.28349 -19567018.73148  20778053.343    20778055.504
  23858858.570    -9637123.81949  -7022622.93945  23858857.846    23858861.912
  21324268.490   -22416955.06449 -17424849.70347  21324268.166    21324270.002
 03  4  3  3 47 30.0000000  0  4G14G25G20G11
  22341849.549   -15426295.56149 -10489646.12147  22341849.040    22341850.978
  20773272.909   -25479662.15349 -19586594.18648  20773272.773    20773274.925
  23842386.327    -9723685.91249  -7090073.82245  23842385.550    23842389.626
  21320196.058   -22438355.60749 -17441525.42247  21320195.736    21320197.596
 03  4  3  3 48  0.0000000  0  4G14G25G20G11
  22356066.925   -15351583.10349 -10431428.61446  22356066.397    22356068.300
  20768592.973   -25504255.44849 -19605757.76448  20768592.812    20768594.936
  23825914.778    -9810243.80649  -7157521.46545  23825914.073    23825918.054
  21316227.559   -22459210.27849 -17457775.79247  21316227.243    21316229.087
 03  4  3  3 48 30.0000000  0  5G14G25G20G11G 1
  22370298.589   -15276795.27249 -10373152.37946  22370298.075    22370299.929
  20764010.671   -25528335.70049 -19624521.56648  20764010.485    20764012.569
  23809441.246    -9896812.59249  -7224977.56845  23809440.417    23809444.459
  21312359.911   -22479534.60149 -17473612.90347  21312359.630    21312361.492
  24613009.981    -5949021.68059  -4356302.51845  24613009.609    24613015.872
 03  4  3  3 49  0.0000000  0  5G14G25G20G11G 1
  22384548.909   -15201909.37149 -10314799.72846  22384548.400    22384550.231
  20759530.449   -25551879.02549 -19642866.98848  20759530.296    20759532.366
  23792970.199    -9983367.78649  -7292423.07345  23792969.450    23792973.457
  21308597.884   -22499304.06949 -17489017.65547  21308597.605    21308599.432
  24597548.273    -6030271.64549  -4419613.95945  24597547.882    24597554.411
 03  4  3  3 49 30.0000000  0  5G14G25G20G11G 1
  22398817.305   -15126928.22449 -10256372.84946  22398816.812    22398818.611
  20755152.290   -25574886.36749 -19660794.75848  20755152.117    20755154.191
  23776501.732   -10069909.83249  -7359858.36645  23776500.971    23776505.006
  21304941.343   -22518519.31649 -17503990.55347  21304941.016    21304942.832
  24582116.326    -6111365.48649  -4482803.76245  24582115.985    24582122.418
 03  4  3  3 50  0.0000000  0  5G14G25G20G11G 1
  22413103.124   -15051855.67549 -10197874.76146  22413102.612    22413104.431
  20750875.881   -25597359.11949 -19678305.96548  20750875.718    20750877.771
  23760035.453   -10156439.97349  -7427284.36245  23760034.790    23760038.746
  21301389.913   -22537182.07749 -17518532.94247  21301389.615    21301391.408
  24566714.040    -6192305.18749  -4545873.47745  24566713.429    24566719.903
 03  4  3  3 50 30.0000000  0  5G14G25G20G11G 1
  22427405.509   -14976695.76549 -10139308.59246  22427405.011    22427406.805
  20746700.654   -25619299.99749 -19695402.72048  20746700.458    20746702.526
  23743571.222   -10242960.18049  -7494702.63645  23743570.549    23743574.451
  21297943.230   -22555294.44749 -17532646.44947  21297942.941    21297944.728
  24551340.466    -6273093.29349  -4608825.07545  24551339.891    24551346.393
 03  4  3  3 51  0.0000000  0  5G14G25G20G11G 1
  22441724.681   -14901447.87449 -10080673.86246  22441724.198    22441726.041
  20742627.086   -25640706.39749 -19712083.00348  20742626.928    20742628.996
  23727109.378   -10329467.36749  -7562110.74345  23727108.685    23727112.627
  21294601.769   -22572853.62049 -17546328.89847  21294601.494    21294603.284
  24535996.141    -6353727.46349  -4671656.71145  24535995.564    24536002.055
 03  4  3  3 51 30.0000000  0  5G14G25G20G11G 1
  22456060.069   -14826115.25849 -10021973.12346  22456059.533    22456061.409
  20738654.922   -25661580.06349 -19728348.17148  20738654.768    20738656.805
  23710649.774   -10415962.71949  -7629509.64945  23710649.090    23710653.044
  21291365.301   -22589861.26449 -17559581.58547  21291365.045    21291366.806
  24520680.617    -6434209.24649  -4734369.64245  24520680.196    24520686.614
 03  4  3  3 52  0.0000000  0  5G14G25G20G11G 1
  22470411.517   -14750697.98049  -9963206.39946  22470410.968    22470412.906
  20734784.445   -25681919.63749 -19744197.16148  20734784.278    20734786.308
  23694192.928   -10502443.97349  -7696897.55645  23694192.173    23694196.198
  21288234.163   -22606315.63849 -17572403.15947  21288233.892    21288235.595
  24505394.689    -6514537.20449  -4796962.68645  24505394.309    24505400.559
 03  4  3  3 52 30.0000000  0  5G14G25G20G11G 1
  22484778.246   -14675200.29349  -9904377.02546  22484777.703    22484779.700
  20731015.100   -25701727.37549 -19759631.73748  20731014.957    20731016.990
  23677738.286   -10588913.03149  -7764275.98245  23677737.563    23677741.548
  21285207.842   -22622218.86849 -17584795.26947  21285207.577    21285209.275
  24490137.453    -6594713.85049  -4859437.85245  24490137.101    24490143.260
 03  4  3  3 53  0.0000000  0  5G14G25G20G11G 1
  22499160.389   -14599621.59149  -9845484.52846  22499159.856    22499161.834
  20727347.417   -25721000.87249 -19774650.02048  20727347.286    20727349.309
  23661286.595   -10675367.09849  -7831642.71645  23661285.853    23661289.875
  21282286.916   -22637568.48349 -17596755.98647  21282286.640    21282288.318
  24474909.447    -6674736.97149  -4921793.38845  24474909.073    24474915.226
 03  4  3  3 53 30.0000000  0  5G14G25G20G11G 1
  22513557.777   -14523962.77249  -9786529.58946  22513557.249    22513559.219
  20723781.512   -25739739.90449 -19789251.83148  20723781.365    20723783.369
  23644838.095   -10761804.65849  -7898996.59545  23644837.359    23644841.286
  21279471.405   -22652363.74049 -17608284.73347  21279471.159    21279472.848
  24459710.787    -6754605.68349  -4984028.62445  24459710.435    24459716.762
 03  4  3  3 54  0.0000000  0  5G14G25G20G11G 1
  22527969.990   -14448225.98849  -9727513.91446  22527969.481    22527971.471
  20720317.204   -25757944.89049 -19803437.50948  20720317.053    20720319.023
  23628392.646   -10848225.64849  -7966337.56346  23628391.975    23628395.926
  21276761.416   -22666605.04049 -17619381.83347  21276761.165    21276762.816
  24444541.469    -6834320.77649  -5046144.17245  24444541.026    24444547.347
 03  4  3  3 54 30.0000000  0  5G14G25G20G11G 1
  22542396.998   -14372411.76549  -9668437.89846  22542396.464    22542398.424
  20716954.733   -25775614.76449 -19817206.21348  20716954.571    20716956.560
  23611950.746   -10934628.23449  -8033664.19446  23611949.997    23611953.997
  21274157.105   -22680290.96049 -17630046.17047  21274156.818    21274158.431
  24429401.614    -6913881.24749  -5108139.23045  24429401.128    24429407.270
 03  4  3  3 55  0.0000000  0  5G14G25G20G11G 1
  22556838.308   -14296522.13049  -9609303.10546  22556837.776    22556839.729
  20713694.004   -25792749.84249 -19830558.19448  20713693.848    20713695.858
  23595512.376   -11021012.01549  -8100976.18546  23595511.687    23595515.569
  21271658.280   -22693422.25949 -17640278.33047  21271657.958    21271659.584
  24414290.852    -6993287.63049  -5170014.22345  24414290.399    24414296.614
 03  4  3  3 55 30.0000000  0  5G14G25G20G11G 1
  22571293.781   -14220558.15849  -9550110.39646  22571293.219    22571295.140
  20710535.094   -25809349.83449 -19843493.22848  20710534.945    20710536.939
  23579077.814   -11107376.05349  -8168272.77946  23579077.115    23579080.993
  21269265.196   -22705997.80949 -17650077.44147  21269264.884    21269266.519
  24399209.643    -7072539.42049  -5231768.75345  24399209.209    24399215.381
 03  4  3  3 56  0.0000000  0  5G14G25G20G11G 1
  22585763.071   -14144521.13849  -9490860.77646  22585762.552    22585764.519
  20707478.017   -25825414.85049 -19856011.39748  20707477.871    20707479.867
  23562647.178   -11193719.21749  -8235553.12246  23562646.529    23562650.307
  21266977.915   -22718017.59649 -17659443.48947  21266977.608    21266979.255
  24384158.001    -7151636.37549  -5293402.64445  24384157.489    24384163.627
 03  4  3  3 56 30.0000000  0  5G14G25G20G11G 1
  22600246.242   -14068411.42649  -9431554.49946  22600245.726    22600247.675
  20704522.927   -25840943.79949 -19868111.85348  20704522.767    20704524.771
  23546220.896   -11280039.60849  -8302815.70446  23546220.251    23546224.087
  21264796.666   -22729480.21249 -17668375.38647  21264796.338    21264797.971
  24369135.929    -7230577.42349  -5354915.04945  24369135.509    24369141.495
 03  4  3  3 57  0.0000000  0  5G14G25G20G11G 1
  22614742.900   -13992230.97949  -9372193.11346  22614742.400    22614744.338
  20701669.723   -25855937.15549 -19879794.96148  20701669.592    20701671.626
  23529799.104   -11366336.73549  -8370060.15046  23529798.360    23529802.236
  21262721.285   -22740386.04149 -17676873.41547  21262720.995    21262722.621
  24354143.380    -7309362.96349  -5416306.27945  24354142.888    24354148.960
 03  4  3  3 57 30.0000000  0  5G14G25G20G11G 1
  22629253.220   -13915978.69849  -9312775.73946  22629252.724    22629254.604
  20698918.950   -25870392.61249 -19891058.93048  20698918.807    20698920.839
  23513382.333   -11452607.32949  -8437283.92946  23513381.605    23513385.462
  21260752.411   -22750732.52949 -17684935.59947  21260752.118    21260753.714
  24339180.953    -7387990.42549  -5477574.33345  24339180.536    24339186.496
 03  4  3  3 58  0.0000000  0  5G14G25G20G11G 1
  22643775.841   -13839661.84549  -9253308.06146  22643775.330    22643777.223
  20696269.403   -25884315.98549 -19901908.29048  20696269.261    20696271.293
  23496969.637   -11538856.26049  -8504490.81346  23496968.847    23496972.751
  21258888.954   -22760525.24949 -17692566.27347  21258888.638    21258890.260
  24324247.713    -7466465.55749  -5538723.65845  24324247.214    24324253.026
 03  4  3  3 58 30.0000000  0  5G14G25G20G11G 1
  22658311.882   -13763274.70849  -9193785.61746  22658311.387    22658313.225
  20693722.403   -25897700.26049 -19912337.57548  20693722.274    20693724.313
  23480562.517   -11625075.90849  -8571674.89046  23480561.765    23480565.701
  21257132.140   -22769757.18149 -17699759.97347  21257131.804    21257133.455
  24309344.502    -7544781.62149  -5599749.05545  24309344.111    24309349.901
